<?xml version="1.0" encoding="UTF-8" standalone="no" ?>
<gpx xmlns="http://www.topografix.com/GPX/1/1" xmlns:xsi="http://www.w3.org/2001/XMLSchema-instance" xsi:schemaLocation="http://www.topografix.com/GPX/1/1 http://www.topografix.com/GPX/1/1/gpx.xsd" version="1.1" creator="VisuGPX - https://www.visugpx.com">
  <metadata>
    <name>Semi nocturne de vignory</name>
    <desc><![CDATA[une trace au top et assez technique, trace permanente , dommage le flechage est un peu limite .. ]]></desc>
  </metadata>
  <trk>
    <name><![CDATA[Semi nocturne de vignory]]></name>
    <trkseg>
      <trkpt lat="48.27926" lon="5.10136">
        <ele>331.4</ele>
        <time>2019-07-06T16:51:32Z</time>
      </trkpt>
      <trkpt lat="48.27926" lon="5.10136">
        <ele>331.4</ele>
        <time>2019-07-06T16:51:34Z</time>
      </trkpt>
      <trkpt lat="48.27926" lon="5.10136">
        <ele>331.4</ele>
        <time>2019-07-06T16:51:38Z</time>
      </trkpt>
      <trkpt lat="48.27926" lon="5.10136">
        <ele>331.4</ele>
        <time>2019-07-06T16:51:42Z</time>
      </trkpt>
      <trkpt lat="48.27938" lon="5.10108">
        <ele>331.4</ele>
        <time>2019-07-06T16:51:46Z</time>
      </trkpt>
      <trkpt lat="48.27948" lon="5.10085">
        <ele>332</ele>
        <time>2019-07-06T16:51:50Z</time>
      </trkpt>
      <trkpt lat="48.27957" lon="5.10066">
        <ele>332</ele>
        <time>2019-07-06T16:51:54Z</time>
      </trkpt>
      <trkpt lat="48.27966" lon="5.10046">
        <ele>333.4</ele>
        <time>2019-07-06T16:51:58Z</time>
      </trkpt>
      <trkpt lat="48.27975" lon="5.10027">
        <ele>333.8</ele>
        <time>2019-07-06T16:52:02Z</time>
      </trkpt>
      <trkpt lat="48.27983" lon="5.10009">
        <ele>334.4</ele>
        <time>2019-07-06T16:52:06Z</time>
      </trkpt>
      <trkpt lat="48.27992" lon="5.0999">
        <ele>334.2</ele>
        <time>2019-07-06T16:52:10Z</time>
      </trkpt>
      <trkpt lat="48.28001" lon="5.09971">
        <ele>334.6</ele>
        <time>2019-07-06T16:52:14Z</time>
      </trkpt>
      <trkpt lat="48.28009" lon="5.09951">
        <ele>335</ele>
        <time>2019-07-06T16:52:18Z</time>
      </trkpt>
      <trkpt lat="48.28019" lon="5.09931">
        <ele>335</ele>
        <time>2019-07-06T16:52:22Z</time>
      </trkpt>
      <trkpt lat="48.28028" lon="5.09911">
        <ele>335.6</ele>
        <time>2019-07-06T16:52:26Z</time>
      </trkpt>
      <trkpt lat="48.28037" lon="5.0989">
        <ele>335.6</ele>
        <time>2019-07-06T16:52:30Z</time>
      </trkpt>
      <trkpt lat="48.28046" lon="5.0987">
        <ele>336</ele>
        <time>2019-07-06T16:52:34Z</time>
      </trkpt>
      <trkpt lat="48.28055" lon="5.09851">
        <ele>336.6</ele>
        <time>2019-07-06T16:52:38Z</time>
      </trkpt>
      <trkpt lat="48.28064" lon="5.0983">
        <ele>337</ele>
        <time>2019-07-06T16:52:42Z</time>
      </trkpt>
      <trkpt lat="48.28072" lon="5.09809">
        <ele>337.6</ele>
        <time>2019-07-06T16:52:46Z</time>
      </trkpt>
      <trkpt lat="48.28078" lon="5.09788">
        <ele>338</ele>
        <time>2019-07-06T16:52:50Z</time>
      </trkpt>
      <trkpt lat="48.28084" lon="5.09766">
        <ele>338.4</ele>
        <time>2019-07-06T16:52:54Z</time>
      </trkpt>
      <trkpt lat="48.28089" lon="5.09746">
        <ele>338.4</ele>
        <time>2019-07-06T16:52:58Z</time>
      </trkpt>
      <trkpt lat="48.28095" lon="5.09726">
        <ele>339.2</ele>
        <time>2019-07-06T16:53:02Z</time>
      </trkpt>
      <trkpt lat="48.28101" lon="5.09705">
        <ele>340.4</ele>
        <time>2019-07-06T16:53:06Z</time>
      </trkpt>
      <trkpt lat="48.28106" lon="5.09685">
        <ele>340.8</ele>
        <time>2019-07-06T16:53:10Z</time>
      </trkpt>
      <trkpt lat="48.2811" lon="5.09664">
        <ele>342.2</ele>
        <time>2019-07-06T16:53:14Z</time>
      </trkpt>
      <trkpt lat="48.28114" lon="5.09644">
        <ele>343.2</ele>
        <time>2019-07-06T16:53:18Z</time>
      </trkpt>
      <trkpt lat="48.28117" lon="5.09623">
        <ele>343.6</ele>
        <time>2019-07-06T16:53:22Z</time>
      </trkpt>
      <trkpt lat="48.28119" lon="5.09603">
        <ele>344.8</ele>
        <time>2019-07-06T16:53:26Z</time>
      </trkpt>
      <trkpt lat="48.2812" lon="5.09582">
        <ele>344.8</ele>
        <time>2019-07-06T16:53:30Z</time>
      </trkpt>
      <trkpt lat="48.28121" lon="5.09558">
        <ele>344.8</ele>
        <time>2019-07-06T16:53:34Z</time>
      </trkpt>
      <trkpt lat="48.28123" lon="5.09533">
        <ele>345</ele>
        <time>2019-07-06T16:53:38Z</time>
      </trkpt>
      <trkpt lat="48.28125" lon="5.09507">
        <ele>345</ele>
        <time>2019-07-06T16:53:42Z</time>
      </trkpt>
      <trkpt lat="48.28128" lon="5.09479">
        <ele>345</ele>
        <time>2019-07-06T16:53:46Z</time>
      </trkpt>
      <trkpt lat="48.28131" lon="5.09452">
        <ele>345.2</ele>
        <time>2019-07-06T16:53:50Z</time>
      </trkpt>
      <trkpt lat="48.28135" lon="5.09422">
        <ele>345.2</ele>
        <time>2019-07-06T16:53:54Z</time>
      </trkpt>
      <trkpt lat="48.2814" lon="5.09393">
        <ele>345.8</ele>
        <time>2019-07-06T16:53:58Z</time>
      </trkpt>
      <trkpt lat="48.28146" lon="5.09366">
        <ele>345.8</ele>
        <time>2019-07-06T16:54:02Z</time>
      </trkpt>
      <trkpt lat="48.28151" lon="5.09341">
        <ele>346.8</ele>
        <time>2019-07-06T16:54:06Z</time>
      </trkpt>
      <trkpt lat="48.28155" lon="5.09316">
        <ele>347.8</ele>
        <time>2019-07-06T16:54:10Z</time>
      </trkpt>
      <trkpt lat="48.28157" lon="5.09285">
        <ele>347.6</ele>
        <time>2019-07-06T16:54:14Z</time>
      </trkpt>
      <trkpt lat="48.28159" lon="5.09242">
        <ele>345.4</ele>
        <time>2019-07-06T16:54:18Z</time>
      </trkpt>
      <trkpt lat="48.28159" lon="5.0919">
        <ele>344.4</ele>
        <time>2019-07-06T16:54:22Z</time>
      </trkpt>
      <trkpt lat="48.28157" lon="5.09139">
        <ele>344.6</ele>
        <time>2019-07-06T16:54:26Z</time>
      </trkpt>
      <trkpt lat="48.28153" lon="5.09088">
        <ele>343.2</ele>
        <time>2019-07-06T16:54:30Z</time>
      </trkpt>
      <trkpt lat="48.28142" lon="5.0904">
        <ele>343.2</ele>
        <time>2019-07-06T16:54:34Z</time>
      </trkpt>
      <trkpt lat="48.2813" lon="5.08995">
        <ele>343.2</ele>
        <time>2019-07-06T16:54:38Z</time>
      </trkpt>
      <trkpt lat="48.28116" lon="5.08955">
        <ele>344.2</ele>
        <time>2019-07-06T16:54:42Z</time>
      </trkpt>
      <trkpt lat="48.28101" lon="5.08913">
        <ele>343.6</ele>
        <time>2019-07-06T16:54:46Z</time>
      </trkpt>
      <trkpt lat="48.28089" lon="5.08875">
        <ele>344.6</ele>
        <time>2019-07-06T16:54:50Z</time>
      </trkpt>
      <trkpt lat="48.28075" lon="5.0884">
        <ele>345.6</ele>
        <time>2019-07-06T16:54:54Z</time>
      </trkpt>
      <trkpt lat="48.28064" lon="5.08806">
        <ele>346</ele>
        <time>2019-07-06T16:54:58Z</time>
      </trkpt>
      <trkpt lat="48.28054" lon="5.0877">
        <ele>346</ele>
        <time>2019-07-06T16:55:02Z</time>
      </trkpt>
      <trkpt lat="48.28046" lon="5.08734">
        <ele>346</ele>
        <time>2019-07-06T16:55:06Z</time>
      </trkpt>
      <trkpt lat="48.28039" lon="5.08699">
        <ele>345.8</ele>
        <time>2019-07-06T16:55:10Z</time>
      </trkpt>
      <trkpt lat="48.28037" lon="5.08666">
        <ele>345.8</ele>
        <time>2019-07-06T16:55:14Z</time>
      </trkpt>
      <trkpt lat="48.28039" lon="5.08634">
        <ele>346.6</ele>
        <time>2019-07-06T16:55:18Z</time>
      </trkpt>
      <trkpt lat="48.28043" lon="5.08607">
        <ele>347.4</ele>
        <time>2019-07-06T16:55:22Z</time>
      </trkpt>
      <trkpt lat="48.28048" lon="5.08584">
        <ele>348</ele>
        <time>2019-07-06T16:55:26Z</time>
      </trkpt>
      <trkpt lat="48.28053" lon="5.0856">
        <ele>348</ele>
        <time>2019-07-06T16:55:30Z</time>
      </trkpt>
      <trkpt lat="48.28058" lon="5.0854">
        <ele>349</ele>
        <time>2019-07-06T16:55:34Z</time>
      </trkpt>
      <trkpt lat="48.28063" lon="5.0852">
        <ele>349.8</ele>
        <time>2019-07-06T16:55:38Z</time>
      </trkpt>
      <trkpt lat="48.28068" lon="5.08502">
        <ele>350.6</ele>
        <time>2019-07-06T16:55:42Z</time>
      </trkpt>
      <trkpt lat="48.28074" lon="5.08481">
        <ele>351.4</ele>
        <time>2019-07-06T16:55:46Z</time>
      </trkpt>
      <trkpt lat="48.28079" lon="5.08463">
        <ele>352</ele>
        <time>2019-07-06T16:55:50Z</time>
      </trkpt>
      <trkpt lat="48.28084" lon="5.08446">
        <ele>352.2</ele>
        <time>2019-07-06T16:55:54Z</time>
      </trkpt>
      <trkpt lat="48.2809" lon="5.08429">
        <ele>353.2</ele>
        <time>2019-07-06T16:55:58Z</time>
      </trkpt>
      <trkpt lat="48.28097" lon="5.08413">
        <ele>354.2</ele>
        <time>2019-07-06T16:56:02Z</time>
      </trkpt>
      <trkpt lat="48.28102" lon="5.08395">
        <ele>354.2</ele>
        <time>2019-07-06T16:56:06Z</time>
      </trkpt>
      <trkpt lat="48.28107" lon="5.0838">
        <ele>355</ele>
        <time>2019-07-06T16:56:10Z</time>
      </trkpt>
      <trkpt lat="48.28113" lon="5.08363">
        <ele>356</ele>
        <time>2019-07-06T16:56:14Z</time>
      </trkpt>
      <trkpt lat="48.28118" lon="5.08345">
        <ele>355.8</ele>
        <time>2019-07-06T16:56:18Z</time>
      </trkpt>
      <trkpt lat="48.28123" lon="5.0833">
        <ele>356.8</ele>
        <time>2019-07-06T16:56:22Z</time>
      </trkpt>
      <trkpt lat="48.28126" lon="5.08316">
        <ele>357.6</ele>
        <time>2019-07-06T16:56:26Z</time>
      </trkpt>
      <trkpt lat="48.28128" lon="5.083">
        <ele>358.2</ele>
        <time>2019-07-06T16:56:30Z</time>
      </trkpt>
      <trkpt lat="48.28131" lon="5.08285">
        <ele>358.8</ele>
        <time>2019-07-06T16:56:34Z</time>
      </trkpt>
      <trkpt lat="48.28133" lon="5.08269">
        <ele>359.4</ele>
        <time>2019-07-06T16:56:38Z</time>
      </trkpt>
      <trkpt lat="48.28134" lon="5.08254">
        <ele>360</ele>
        <time>2019-07-06T16:56:42Z</time>
      </trkpt>
      <trkpt lat="48.28136" lon="5.0824">
        <ele>360.8</ele>
        <time>2019-07-06T16:56:46Z</time>
      </trkpt>
      <trkpt lat="48.28135" lon="5.08226">
        <ele>361.2</ele>
        <time>2019-07-06T16:56:50Z</time>
      </trkpt>
      <trkpt lat="48.28134" lon="5.08209">
        <ele>361.8</ele>
        <time>2019-07-06T16:56:54Z</time>
      </trkpt>
      <trkpt lat="48.28134" lon="5.08194">
        <ele>363</ele>
        <time>2019-07-06T16:56:58Z</time>
      </trkpt>
      <trkpt lat="48.28133" lon="5.08179">
        <ele>362.8</ele>
        <time>2019-07-06T16:57:02Z</time>
      </trkpt>
      <trkpt lat="48.28132" lon="5.08165">
        <ele>363.8</ele>
        <time>2019-07-06T16:57:06Z</time>
      </trkpt>
      <trkpt lat="48.28132" lon="5.08152">
        <ele>364.2</ele>
        <time>2019-07-06T16:57:10Z</time>
      </trkpt>
      <trkpt lat="48.28133" lon="5.08139">
        <ele>364.8</ele>
        <time>2019-07-06T16:57:14Z</time>
      </trkpt>
      <trkpt lat="48.28132" lon="5.08125">
        <ele>365.6</ele>
        <time>2019-07-06T16:57:18Z</time>
      </trkpt>
      <trkpt lat="48.28132" lon="5.08111">
        <ele>366</ele>
        <time>2019-07-06T16:57:22Z</time>
      </trkpt>
      <trkpt lat="48.28132" lon="5.08099">
        <ele>366.8</ele>
        <time>2019-07-06T16:57:26Z</time>
      </trkpt>
      <trkpt lat="48.28131" lon="5.08087">
        <ele>367.6</ele>
        <time>2019-07-06T16:57:30Z</time>
      </trkpt>
      <trkpt lat="48.28133" lon="5.08077">
        <ele>368.4</ele>
        <time>2019-07-06T16:57:34Z</time>
      </trkpt>
      <trkpt lat="48.28131" lon="5.08067">
        <ele>369.2</ele>
        <time>2019-07-06T16:57:38Z</time>
      </trkpt>
      <trkpt lat="48.2813" lon="5.08057">
        <ele>370.4</ele>
        <time>2019-07-06T16:57:42Z</time>
      </trkpt>
      <trkpt lat="48.28129" lon="5.08043">
        <ele>371</ele>
        <time>2019-07-06T16:57:46Z</time>
      </trkpt>
      <trkpt lat="48.28129" lon="5.08031">
        <ele>371.8</ele>
        <time>2019-07-06T16:57:50Z</time>
      </trkpt>
      <trkpt lat="48.28129" lon="5.08018">
        <ele>371.8</ele>
        <time>2019-07-06T16:57:54Z</time>
      </trkpt>
      <trkpt lat="48.28128" lon="5.08005">
        <ele>372.6</ele>
        <time>2019-07-06T16:57:58Z</time>
      </trkpt>
      <trkpt lat="48.28127" lon="5.07993">
        <ele>373</ele>
        <time>2019-07-06T16:58:02Z</time>
      </trkpt>
      <trkpt lat="48.28125" lon="5.07982">
        <ele>373.6</ele>
        <time>2019-07-06T16:58:06Z</time>
      </trkpt>
      <trkpt lat="48.28124" lon="5.07969">
        <ele>374.4</ele>
        <time>2019-07-06T16:58:10Z</time>
      </trkpt>
      <trkpt lat="48.28122" lon="5.07959">
        <ele>375.2</ele>
        <time>2019-07-06T16:58:14Z</time>
      </trkpt>
      <trkpt lat="48.2812" lon="5.07949">
        <ele>375.2</ele>
        <time>2019-07-06T16:58:18Z</time>
      </trkpt>
      <trkpt lat="48.28118" lon="5.07937">
        <ele>375.6</ele>
        <time>2019-07-06T16:58:22Z</time>
      </trkpt>
      <trkpt lat="48.28116" lon="5.07925">
        <ele>376.6</ele>
        <time>2019-07-06T16:58:26Z</time>
      </trkpt>
      <trkpt lat="48.28114" lon="5.07913">
        <ele>377</ele>
        <time>2019-07-06T16:58:30Z</time>
      </trkpt>
      <trkpt lat="48.28113" lon="5.07903">
        <ele>377.8</ele>
        <time>2019-07-06T16:58:34Z</time>
      </trkpt>
      <trkpt lat="48.28111" lon="5.07894">
        <ele>378.6</ele>
        <time>2019-07-06T16:58:38Z</time>
      </trkpt>
      <trkpt lat="48.2811" lon="5.07882">
        <ele>379</ele>
        <time>2019-07-06T16:58:42Z</time>
      </trkpt>
      <trkpt lat="48.28108" lon="5.07873">
        <ele>380</ele>
        <time>2019-07-06T16:58:46Z</time>
      </trkpt>
      <trkpt lat="48.28107" lon="5.07862">
        <ele>380.6</ele>
        <time>2019-07-06T16:58:50Z</time>
      </trkpt>
      <trkpt lat="48.28105" lon="5.07852">
        <ele>381.4</ele>
        <time>2019-07-06T16:58:54Z</time>
      </trkpt>
      <trkpt lat="48.28102" lon="5.07839">
        <ele>382.4</ele>
        <time>2019-07-06T16:58:58Z</time>
      </trkpt>
      <trkpt lat="48.281" lon="5.07826">
        <ele>382.8</ele>
        <time>2019-07-06T16:59:02Z</time>
      </trkpt>
      <trkpt lat="48.28097" lon="5.07814">
        <ele>383.2</ele>
        <time>2019-07-06T16:59:06Z</time>
      </trkpt>
      <trkpt lat="48.28095" lon="5.07801">
        <ele>383.8</ele>
        <time>2019-07-06T16:59:10Z</time>
      </trkpt>
      <trkpt lat="48.28094" lon="5.07789">
        <ele>385.2</ele>
        <time>2019-07-06T16:59:14Z</time>
      </trkpt>
      <trkpt lat="48.28092" lon="5.07777">
        <ele>385.2</ele>
        <time>2019-07-06T16:59:18Z</time>
      </trkpt>
      <trkpt lat="48.28092" lon="5.07766">
        <ele>386.2</ele>
        <time>2019-07-06T16:59:22Z</time>
      </trkpt>
      <trkpt lat="48.28091" lon="5.07754">
        <ele>386.6</ele>
        <time>2019-07-06T16:59:26Z</time>
      </trkpt>
      <trkpt lat="48.28089" lon="5.07742">
        <ele>387.2</ele>
        <time>2019-07-06T16:59:30Z</time>
      </trkpt>
      <trkpt lat="48.28087" lon="5.07731">
        <ele>388.2</ele>
        <time>2019-07-06T16:59:34Z</time>
      </trkpt>
      <trkpt lat="48.28087" lon="5.0772">
        <ele>388.2</ele>
        <time>2019-07-06T16:59:38Z</time>
      </trkpt>
      <trkpt lat="48.28085" lon="5.0771">
        <ele>389.2</ele>
        <time>2019-07-06T16:59:42Z</time>
      </trkpt>
      <trkpt lat="48.28084" lon="5.07701">
        <ele>390.2</ele>
        <time>2019-07-06T16:59:46Z</time>
      </trkpt>
      <trkpt lat="48.28082" lon="5.07691">
        <ele>390.2</ele>
        <time>2019-07-06T16:59:50Z</time>
      </trkpt>
      <trkpt lat="48.2808" lon="5.07679">
        <ele>391.2</ele>
        <time>2019-07-06T16:59:54Z</time>
      </trkpt>
      <trkpt lat="48.28079" lon="5.07666">
        <ele>391.8</ele>
        <time>2019-07-06T16:59:58Z</time>
      </trkpt>
      <trkpt lat="48.28078" lon="5.07652">
        <ele>392.6</ele>
        <time>2019-07-06T17:00:02Z</time>
      </trkpt>
      <trkpt lat="48.28078" lon="5.07642">
        <ele>393.2</ele>
        <time>2019-07-06T17:00:06Z</time>
      </trkpt>
      <trkpt lat="48.28077" lon="5.07631">
        <ele>393.8</ele>
        <time>2019-07-06T17:00:10Z</time>
      </trkpt>
      <trkpt lat="48.28077" lon="5.07618">
        <ele>394.4</ele>
        <time>2019-07-06T17:00:14Z</time>
      </trkpt>
      <trkpt lat="48.28076" lon="5.07606">
        <ele>394.6</ele>
        <time>2019-07-06T17:00:18Z</time>
      </trkpt>
      <trkpt lat="48.28077" lon="5.07594">
        <ele>395.4</ele>
        <time>2019-07-06T17:00:22Z</time>
      </trkpt>
      <trkpt lat="48.28076" lon="5.07581">
        <ele>395.4</ele>
        <time>2019-07-06T17:00:26Z</time>
      </trkpt>
      <trkpt lat="48.28077" lon="5.0757">
        <ele>396.4</ele>
        <time>2019-07-06T17:00:30Z</time>
      </trkpt>
      <trkpt lat="48.2808" lon="5.0756">
        <ele>397.2</ele>
        <time>2019-07-06T17:00:34Z</time>
      </trkpt>
      <trkpt lat="48.28086" lon="5.07551">
        <ele>397.2</ele>
        <time>2019-07-06T17:00:38Z</time>
      </trkpt>
      <trkpt lat="48.28092" lon="5.07544">
        <ele>398.8</ele>
        <time>2019-07-06T17:00:42Z</time>
      </trkpt>
      <trkpt lat="48.28098" lon="5.07537">
        <ele>399</ele>
        <time>2019-07-06T17:00:46Z</time>
      </trkpt>
      <trkpt lat="48.28105" lon="5.07532">
        <ele>400</ele>
        <time>2019-07-06T17:00:50Z</time>
      </trkpt>
      <trkpt lat="48.28113" lon="5.07528">
        <ele>401.4</ele>
        <time>2019-07-06T17:00:54Z</time>
      </trkpt>
      <trkpt lat="48.28121" lon="5.07524">
        <ele>402</ele>
        <time>2019-07-06T17:00:58Z</time>
      </trkpt>
      <trkpt lat="48.28128" lon="5.07521">
        <ele>402.8</ele>
        <time>2019-07-06T17:01:02Z</time>
      </trkpt>
      <trkpt lat="48.28135" lon="5.07517">
        <ele>403.4</ele>
        <time>2019-07-06T17:01:06Z</time>
      </trkpt>
      <trkpt lat="48.28142" lon="5.07514">
        <ele>404.2</ele>
        <time>2019-07-06T17:01:10Z</time>
      </trkpt>
      <trkpt lat="48.28149" lon="5.0751">
        <ele>404.4</ele>
        <time>2019-07-06T17:01:14Z</time>
      </trkpt>
      <trkpt lat="48.28156" lon="5.07504">
        <ele>405.6</ele>
        <time>2019-07-06T17:01:18Z</time>
      </trkpt>
      <trkpt lat="48.28163" lon="5.07497">
        <ele>405.6</ele>
        <time>2019-07-06T17:01:22Z</time>
      </trkpt>
      <trkpt lat="48.28168" lon="5.07489">
        <ele>406.2</ele>
        <time>2019-07-06T17:01:26Z</time>
      </trkpt>
      <trkpt lat="48.28175" lon="5.07483">
        <ele>406.4</ele>
        <time>2019-07-06T17:01:30Z</time>
      </trkpt>
      <trkpt lat="48.28182" lon="5.07477">
        <ele>407</ele>
        <time>2019-07-06T17:01:34Z</time>
      </trkpt>
      <trkpt lat="48.28188" lon="5.0747">
        <ele>408.2</ele>
        <time>2019-07-06T17:01:38Z</time>
      </trkpt>
      <trkpt lat="48.28194" lon="5.07464">
        <ele>408.6</ele>
        <time>2019-07-06T17:01:42Z</time>
      </trkpt>
      <trkpt lat="48.282" lon="5.07457">
        <ele>409.6</ele>
        <time>2019-07-06T17:01:46Z</time>
      </trkpt>
      <trkpt lat="48.28206" lon="5.07452">
        <ele>410.4</ele>
        <time>2019-07-06T17:01:50Z</time>
      </trkpt>
      <trkpt lat="48.28215" lon="5.07447">
        <ele>411.2</ele>
        <time>2019-07-06T17:01:54Z</time>
      </trkpt>
      <trkpt lat="48.28213" lon="5.07447">
        <ele>410.6</ele>
        <time>2019-07-06T17:01:58Z</time>
      </trkpt>
      <trkpt lat="48.28213" lon="5.07447">
        <ele>410.6</ele>
        <time>2019-07-06T17:02:02Z</time>
      </trkpt>
      <trkpt lat="48.28213" lon="5.07447">
        <ele>410.6</ele>
        <time>2019-07-06T17:02:06Z</time>
      </trkpt>
      <trkpt lat="48.28213" lon="5.07447">
        <ele>410.6</ele>
        <time>2019-07-06T17:02:10Z</time>
      </trkpt>
      <trkpt lat="48.28213" lon="5.07447">
        <ele>410.6</ele>
        <time>2019-07-06T17:02:14Z</time>
      </trkpt>
      <trkpt lat="48.28213" lon="5.07447">
        <ele>410.6</ele>
        <time>2019-07-06T17:02:18Z</time>
      </trkpt>
      <trkpt lat="48.28213" lon="5.07447">
        <ele>410.6</ele>
        <time>2019-07-06T17:02:22Z</time>
      </trkpt>
      <trkpt lat="48.28213" lon="5.07447">
        <ele>410.6</ele>
        <time>2019-07-06T17:02:26Z</time>
      </trkpt>
      <trkpt lat="48.28213" lon="5.07447">
        <ele>410.6</ele>
        <time>2019-07-06T17:02:30Z</time>
      </trkpt>
      <trkpt lat="48.28213" lon="5.07447">
        <ele>410.6</ele>
        <time>2019-07-06T17:02:34Z</time>
      </trkpt>
      <trkpt lat="48.28213" lon="5.07447">
        <ele>410.6</ele>
        <time>2019-07-06T17:02:38Z</time>
      </trkpt>
      <trkpt lat="48.28213" lon="5.07447">
        <ele>410.6</ele>
        <time>2019-07-06T17:02:42Z</time>
      </trkpt>
      <trkpt lat="48.28213" lon="5.07447">
        <ele>410.6</ele>
        <time>2019-07-06T17:02:46Z</time>
      </trkpt>
      <trkpt lat="48.28212" lon="5.0745">
        <ele>410.4</ele>
        <time>2019-07-06T17:02:50Z</time>
      </trkpt>
      <trkpt lat="48.28204" lon="5.07459">
        <ele>408.2</ele>
        <time>2019-07-06T17:02:54Z</time>
      </trkpt>
      <trkpt lat="48.28189" lon="5.07476">
        <ele>406.2</ele>
        <time>2019-07-06T17:02:58Z</time>
      </trkpt>
      <trkpt lat="48.28178" lon="5.07486">
        <ele>406.2</ele>
        <time>2019-07-06T17:03:02Z</time>
      </trkpt>
      <trkpt lat="48.28172" lon="5.07492">
        <ele>405.2</ele>
        <time>2019-07-06T17:03:06Z</time>
      </trkpt>
      <trkpt lat="48.28171" lon="5.07503">
        <ele>406.6</ele>
        <time>2019-07-06T17:03:10Z</time>
      </trkpt>
      <trkpt lat="48.28175" lon="5.07508">
        <ele>407.4</ele>
        <time>2019-07-06T17:03:14Z</time>
      </trkpt>
      <trkpt lat="48.28177" lon="5.07521">
        <ele>408</ele>
        <time>2019-07-06T17:03:18Z</time>
      </trkpt>
      <trkpt lat="48.28175" lon="5.07535">
        <ele>407.2</ele>
        <time>2019-07-06T17:03:22Z</time>
      </trkpt>
      <trkpt lat="48.28172" lon="5.07552">
        <ele>407.6</ele>
        <time>2019-07-06T17:03:26Z</time>
      </trkpt>
      <trkpt lat="48.28173" lon="5.07571">
        <ele>407.4</ele>
        <time>2019-07-06T17:03:30Z</time>
      </trkpt>
      <trkpt lat="48.28178" lon="5.07589">
        <ele>406.6</ele>
        <time>2019-07-06T17:03:34Z</time>
      </trkpt>
      <trkpt lat="48.28187" lon="5.076">
        <ele>404.6</ele>
        <time>2019-07-06T17:03:38Z</time>
      </trkpt>
      <trkpt lat="48.28192" lon="5.07626">
        <ele>406.2</ele>
        <time>2019-07-06T17:03:42Z</time>
      </trkpt>
      <trkpt lat="48.28194" lon="5.07644">
        <ele>406.8</ele>
        <time>2019-07-06T17:03:46Z</time>
      </trkpt>
      <trkpt lat="48.2819" lon="5.07662">
        <ele>407</ele>
        <time>2019-07-06T17:03:50Z</time>
      </trkpt>
      <trkpt lat="48.28188" lon="5.07681">
        <ele>407</ele>
        <time>2019-07-06T17:03:54Z</time>
      </trkpt>
      <trkpt lat="48.28189" lon="5.077">
        <ele>406.2</ele>
        <time>2019-07-06T17:03:58Z</time>
      </trkpt>
      <trkpt lat="48.28192" lon="5.07721">
        <ele>406.8</ele>
        <time>2019-07-06T17:04:02Z</time>
      </trkpt>
      <trkpt lat="48.282" lon="5.07741">
        <ele>406.6</ele>
        <time>2019-07-06T17:04:06Z</time>
      </trkpt>
      <trkpt lat="48.28208" lon="5.07764">
        <ele>405.6</ele>
        <time>2019-07-06T17:04:10Z</time>
      </trkpt>
      <trkpt lat="48.28213" lon="5.07776">
        <ele>405.6</ele>
        <time>2019-07-06T17:04:14Z</time>
      </trkpt>
      <trkpt lat="48.28219" lon="5.07789">
        <ele>404</ele>
        <time>2019-07-06T17:04:18Z</time>
      </trkpt>
      <trkpt lat="48.28215" lon="5.07814">
        <ele>402</ele>
        <time>2019-07-06T17:04:22Z</time>
      </trkpt>
      <trkpt lat="48.2821" lon="5.07831">
        <ele>403</ele>
        <time>2019-07-06T17:04:26Z</time>
      </trkpt>
      <trkpt lat="48.28206" lon="5.07843">
        <ele>401.8</ele>
        <time>2019-07-06T17:04:30Z</time>
      </trkpt>
      <trkpt lat="48.28209" lon="5.0785">
        <ele>402.8</ele>
        <time>2019-07-06T17:04:34Z</time>
      </trkpt>
      <trkpt lat="48.28214" lon="5.07849">
        <ele>403.6</ele>
        <time>2019-07-06T17:04:38Z</time>
      </trkpt>
      <trkpt lat="48.28214" lon="5.07849">
        <ele>403.6</ele>
        <time>2019-07-06T17:04:42Z</time>
      </trkpt>
      <trkpt lat="48.28214" lon="5.07849">
        <ele>403.6</ele>
        <time>2019-07-06T17:04:46Z</time>
      </trkpt>
      <trkpt lat="48.28214" lon="5.07849">
        <ele>403.6</ele>
        <time>2019-07-06T17:04:50Z</time>
      </trkpt>
      <trkpt lat="48.28218" lon="5.0785">
        <ele>403.6</ele>
        <time>2019-07-06T17:04:54Z</time>
      </trkpt>
      <trkpt lat="48.28222" lon="5.07847">
        <ele>405</ele>
        <time>2019-07-06T17:04:58Z</time>
      </trkpt>
      <trkpt lat="48.28227" lon="5.07842">
        <ele>406.6</ele>
        <time>2019-07-06T17:05:02Z</time>
      </trkpt>
      <trkpt lat="48.28235" lon="5.07838">
        <ele>406.8</ele>
        <time>2019-07-06T17:05:06Z</time>
      </trkpt>
      <trkpt lat="48.28244" lon="5.07834">
        <ele>407.2</ele>
        <time>2019-07-06T17:05:10Z</time>
      </trkpt>
      <trkpt lat="48.28252" lon="5.07832">
        <ele>408</ele>
        <time>2019-07-06T17:05:14Z</time>
      </trkpt>
      <trkpt lat="48.28263" lon="5.07829">
        <ele>408.2</ele>
        <time>2019-07-06T17:05:18Z</time>
      </trkpt>
      <trkpt lat="48.28272" lon="5.07832">
        <ele>409.4</ele>
        <time>2019-07-06T17:05:22Z</time>
      </trkpt>
      <trkpt lat="48.28275" lon="5.07842">
        <ele>409.2</ele>
        <time>2019-07-06T17:05:26Z</time>
      </trkpt>
      <trkpt lat="48.28279" lon="5.07861">
        <ele>409</ele>
        <time>2019-07-06T17:05:30Z</time>
      </trkpt>
      <trkpt lat="48.28287" lon="5.07886">
        <ele>409</ele>
        <time>2019-07-06T17:05:34Z</time>
      </trkpt>
      <trkpt lat="48.28298" lon="5.0791">
        <ele>409</ele>
        <time>2019-07-06T17:05:38Z</time>
      </trkpt>
      <trkpt lat="48.2831" lon="5.07933">
        <ele>408.2</ele>
        <time>2019-07-06T17:05:42Z</time>
      </trkpt>
      <trkpt lat="48.28324" lon="5.07948">
        <ele>408.6</ele>
        <time>2019-07-06T17:05:46Z</time>
      </trkpt>
      <trkpt lat="48.28335" lon="5.07957">
        <ele>409.6</ele>
        <time>2019-07-06T17:05:50Z</time>
      </trkpt>
      <trkpt lat="48.28345" lon="5.07965">
        <ele>409.4</ele>
        <time>2019-07-06T17:05:54Z</time>
      </trkpt>
      <trkpt lat="48.28354" lon="5.0797">
        <ele>409.8</ele>
        <time>2019-07-06T17:05:58Z</time>
      </trkpt>
      <trkpt lat="48.28363" lon="5.07977">
        <ele>410.2</ele>
        <time>2019-07-06T17:06:02Z</time>
      </trkpt>
      <trkpt lat="48.28371" lon="5.07987">
        <ele>409.4</ele>
        <time>2019-07-06T17:06:06Z</time>
      </trkpt>
      <trkpt lat="48.28377" lon="5.08005">
        <ele>407.2</ele>
        <time>2019-07-06T17:06:10Z</time>
      </trkpt>
      <trkpt lat="48.28379" lon="5.08033">
        <ele>407.8</ele>
        <time>2019-07-06T17:06:14Z</time>
      </trkpt>
      <trkpt lat="48.28379" lon="5.08052">
        <ele>409.8</ele>
        <time>2019-07-06T17:06:18Z</time>
      </trkpt>
      <trkpt lat="48.28375" lon="5.08065">
        <ele>410.6</ele>
        <time>2019-07-06T17:06:22Z</time>
      </trkpt>
      <trkpt lat="48.2837" lon="5.08074">
        <ele>411</ele>
        <time>2019-07-06T17:06:26Z</time>
      </trkpt>
      <trkpt lat="48.28366" lon="5.08089">
        <ele>411.6</ele>
        <time>2019-07-06T17:06:30Z</time>
      </trkpt>
      <trkpt lat="48.28368" lon="5.08105">
        <ele>411.6</ele>
        <time>2019-07-06T17:06:34Z</time>
      </trkpt>
      <trkpt lat="48.28372" lon="5.0812">
        <ele>412.4</ele>
        <time>2019-07-06T17:06:38Z</time>
      </trkpt>
      <trkpt lat="48.28378" lon="5.08136">
        <ele>412.8</ele>
        <time>2019-07-06T17:06:42Z</time>
      </trkpt>
      <trkpt lat="48.28383" lon="5.08159">
        <ele>413.8</ele>
        <time>2019-07-06T17:06:46Z</time>
      </trkpt>
      <trkpt lat="48.28388" lon="5.08182">
        <ele>413</ele>
        <time>2019-07-06T17:06:50Z</time>
      </trkpt>
      <trkpt lat="48.28396" lon="5.08203">
        <ele>413.6</ele>
        <time>2019-07-06T17:06:54Z</time>
      </trkpt>
      <trkpt lat="48.28406" lon="5.08225">
        <ele>413.8</ele>
        <time>2019-07-06T17:06:58Z</time>
      </trkpt>
      <trkpt lat="48.28414" lon="5.0825">
        <ele>413.8</ele>
        <time>2019-07-06T17:07:02Z</time>
      </trkpt>
      <trkpt lat="48.28424" lon="5.08271">
        <ele>414.4</ele>
        <time>2019-07-06T17:07:06Z</time>
      </trkpt>
      <trkpt lat="48.28438" lon="5.08292">
        <ele>412.4</ele>
        <time>2019-07-06T17:07:10Z</time>
      </trkpt>
      <trkpt lat="48.2845" lon="5.08313">
        <ele>408.4</ele>
        <time>2019-07-06T17:07:14Z</time>
      </trkpt>
      <trkpt lat="48.28461" lon="5.08351">
        <ele>406.4</ele>
        <time>2019-07-06T17:07:18Z</time>
      </trkpt>
      <trkpt lat="48.28468" lon="5.08374">
        <ele>410.4</ele>
        <time>2019-07-06T17:07:22Z</time>
      </trkpt>
      <trkpt lat="48.2847" lon="5.08387">
        <ele>412.6</ele>
        <time>2019-07-06T17:07:26Z</time>
      </trkpt>
      <trkpt lat="48.28474" lon="5.08402">
        <ele>413</ele>
        <time>2019-07-06T17:07:30Z</time>
      </trkpt>
      <trkpt lat="48.28472" lon="5.08423">
        <ele>412.8</ele>
        <time>2019-07-06T17:07:34Z</time>
      </trkpt>
      <trkpt lat="48.28472" lon="5.08448">
        <ele>413</ele>
        <time>2019-07-06T17:07:38Z</time>
      </trkpt>
      <trkpt lat="48.28468" lon="5.08469">
        <ele>411.2</ele>
        <time>2019-07-06T17:07:42Z</time>
      </trkpt>
      <trkpt lat="48.28465" lon="5.08492">
        <ele>409.4</ele>
        <time>2019-07-06T17:07:46Z</time>
      </trkpt>
      <trkpt lat="48.28461" lon="5.08519">
        <ele>407.8</ele>
        <time>2019-07-06T17:07:50Z</time>
      </trkpt>
      <trkpt lat="48.28458" lon="5.08548">
        <ele>405.2</ele>
        <time>2019-07-06T17:07:54Z</time>
      </trkpt>
      <trkpt lat="48.28444" lon="5.08563">
        <ele>406</ele>
        <time>2019-07-06T17:07:58Z</time>
      </trkpt>
      <trkpt lat="48.28435" lon="5.08551">
        <ele>405</ele>
        <time>2019-07-06T17:08:02Z</time>
      </trkpt>
      <trkpt lat="48.28425" lon="5.08539">
        <ele>406.2</ele>
        <time>2019-07-06T17:08:06Z</time>
      </trkpt>
      <trkpt lat="48.28417" lon="5.08525">
        <ele>406.2</ele>
        <time>2019-07-06T17:08:10Z</time>
      </trkpt>
      <trkpt lat="48.28407" lon="5.08514">
        <ele>409</ele>
        <time>2019-07-06T17:08:14Z</time>
      </trkpt>
      <trkpt lat="48.28397" lon="5.0851">
        <ele>410.4</ele>
        <time>2019-07-06T17:08:18Z</time>
      </trkpt>
      <trkpt lat="48.2839" lon="5.085">
        <ele>410.4</ele>
        <time>2019-07-06T17:08:22Z</time>
      </trkpt>
      <trkpt lat="48.2838" lon="5.08491">
        <ele>408</ele>
        <time>2019-07-06T17:08:26Z</time>
      </trkpt>
      <trkpt lat="48.2837" lon="5.08479">
        <ele>408</ele>
        <time>2019-07-06T17:08:30Z</time>
      </trkpt>
      <trkpt lat="48.28363" lon="5.08463">
        <ele>405.6</ele>
        <time>2019-07-06T17:08:34Z</time>
      </trkpt>
      <trkpt lat="48.28354" lon="5.08457">
        <ele>403.8</ele>
        <time>2019-07-06T17:08:38Z</time>
      </trkpt>
      <trkpt lat="48.28343" lon="5.08449">
        <ele>403.4</ele>
        <time>2019-07-06T17:08:42Z</time>
      </trkpt>
      <trkpt lat="48.28332" lon="5.08446">
        <ele>404.8</ele>
        <time>2019-07-06T17:08:46Z</time>
      </trkpt>
      <trkpt lat="48.28321" lon="5.08445">
        <ele>405.2</ele>
        <time>2019-07-06T17:08:50Z</time>
      </trkpt>
      <trkpt lat="48.28308" lon="5.08438">
        <ele>404.2</ele>
        <time>2019-07-06T17:08:54Z</time>
      </trkpt>
      <trkpt lat="48.28294" lon="5.08436">
        <ele>406.8</ele>
        <time>2019-07-06T17:08:58Z</time>
      </trkpt>
      <trkpt lat="48.28281" lon="5.08438">
        <ele>407.4</ele>
        <time>2019-07-06T17:09:02Z</time>
      </trkpt>
      <trkpt lat="48.28269" lon="5.0844">
        <ele>408</ele>
        <time>2019-07-06T17:09:06Z</time>
      </trkpt>
      <trkpt lat="48.28259" lon="5.08442">
        <ele>408</ele>
        <time>2019-07-06T17:09:10Z</time>
      </trkpt>
      <trkpt lat="48.28247" lon="5.08444">
        <ele>406.6</ele>
        <time>2019-07-06T17:09:14Z</time>
      </trkpt>
      <trkpt lat="48.28239" lon="5.08452">
        <ele>406.2</ele>
        <time>2019-07-06T17:09:18Z</time>
      </trkpt>
      <trkpt lat="48.28237" lon="5.08465">
        <ele>407.6</ele>
        <time>2019-07-06T17:09:22Z</time>
      </trkpt>
      <trkpt lat="48.28233" lon="5.08477">
        <ele>406.8</ele>
        <time>2019-07-06T17:09:26Z</time>
      </trkpt>
      <trkpt lat="48.28231" lon="5.08492">
        <ele>408</ele>
        <time>2019-07-06T17:09:30Z</time>
      </trkpt>
      <trkpt lat="48.28228" lon="5.08507">
        <ele>407.4</ele>
        <time>2019-07-06T17:09:34Z</time>
      </trkpt>
      <trkpt lat="48.28223" lon="5.08525">
        <ele>405.6</ele>
        <time>2019-07-06T17:09:38Z</time>
      </trkpt>
      <trkpt lat="48.28217" lon="5.08542">
        <ele>403.6</ele>
        <time>2019-07-06T17:09:42Z</time>
      </trkpt>
      <trkpt lat="48.28213" lon="5.08562">
        <ele>401.8</ele>
        <time>2019-07-06T17:09:46Z</time>
      </trkpt>
      <trkpt lat="48.2821" lon="5.08581">
        <ele>401.6</ele>
        <time>2019-07-06T17:09:50Z</time>
      </trkpt>
      <trkpt lat="48.2821" lon="5.08599">
        <ele>401.6</ele>
        <time>2019-07-06T17:09:54Z</time>
      </trkpt>
      <trkpt lat="48.28209" lon="5.08604">
        <ele>402</ele>
        <time>2019-07-06T17:09:58Z</time>
      </trkpt>
      <trkpt lat="48.2821" lon="5.08618">
        <ele>403.2</ele>
        <time>2019-07-06T17:10:02Z</time>
      </trkpt>
      <trkpt lat="48.28216" lon="5.08637">
        <ele>403.8</ele>
        <time>2019-07-06T17:10:06Z</time>
      </trkpt>
      <trkpt lat="48.28219" lon="5.08649">
        <ele>403.8</ele>
        <time>2019-07-06T17:10:10Z</time>
      </trkpt>
      <trkpt lat="48.28219" lon="5.08649">
        <ele>403.8</ele>
        <time>2019-07-06T17:10:14Z</time>
      </trkpt>
      <trkpt lat="48.28223" lon="5.08658">
        <ele>404.8</ele>
        <time>2019-07-06T17:10:18Z</time>
      </trkpt>
      <trkpt lat="48.28223" lon="5.08658">
        <ele>404.8</ele>
        <time>2019-07-06T17:10:22Z</time>
      </trkpt>
      <trkpt lat="48.28227" lon="5.08664">
        <ele>405.4</ele>
        <time>2019-07-06T17:10:26Z</time>
      </trkpt>
      <trkpt lat="48.28228" lon="5.0867">
        <ele>405.4</ele>
        <time>2019-07-06T17:10:30Z</time>
      </trkpt>
      <trkpt lat="48.28231" lon="5.08674">
        <ele>407.2</ele>
        <time>2019-07-06T17:10:34Z</time>
      </trkpt>
      <trkpt lat="48.28235" lon="5.08677">
        <ele>408.4</ele>
        <time>2019-07-06T17:10:38Z</time>
      </trkpt>
      <trkpt lat="48.28238" lon="5.08674">
        <ele>409</ele>
        <time>2019-07-06T17:10:42Z</time>
      </trkpt>
      <trkpt lat="48.28243" lon="5.08671">
        <ele>410.4</ele>
        <time>2019-07-06T17:10:46Z</time>
      </trkpt>
      <trkpt lat="48.28248" lon="5.08668">
        <ele>410.8</ele>
        <time>2019-07-06T17:10:50Z</time>
      </trkpt>
      <trkpt lat="48.28252" lon="5.08665">
        <ele>411.4</ele>
        <time>2019-07-06T17:10:54Z</time>
      </trkpt>
      <trkpt lat="48.28254" lon="5.08662">
        <ele>411.4</ele>
        <time>2019-07-06T17:10:58Z</time>
      </trkpt>
      <trkpt lat="48.28254" lon="5.08662">
        <ele>411.4</ele>
        <time>2019-07-06T17:11:02Z</time>
      </trkpt>
      <trkpt lat="48.28254" lon="5.08662">
        <ele>411.4</ele>
        <time>2019-07-06T17:11:06Z</time>
      </trkpt>
      <trkpt lat="48.28254" lon="5.08662">
        <ele>411.4</ele>
        <time>2019-07-06T17:11:10Z</time>
      </trkpt>
      <trkpt lat="48.28254" lon="5.08662">
        <ele>411.4</ele>
        <time>2019-07-06T17:11:14Z</time>
      </trkpt>
      <trkpt lat="48.28254" lon="5.08662">
        <ele>411.4</ele>
        <time>2019-07-06T17:11:18Z</time>
      </trkpt>
      <trkpt lat="48.28254" lon="5.08662">
        <ele>411.4</ele>
        <time>2019-07-06T17:11:22Z</time>
      </trkpt>
      <trkpt lat="48.28257" lon="5.08658">
        <ele>411.8</ele>
        <time>2019-07-06T17:11:26Z</time>
      </trkpt>
      <trkpt lat="48.28263" lon="5.08654">
        <ele>412.8</ele>
        <time>2019-07-06T17:11:30Z</time>
      </trkpt>
      <trkpt lat="48.28268" lon="5.08651">
        <ele>413</ele>
        <time>2019-07-06T17:11:34Z</time>
      </trkpt>
      <trkpt lat="48.28275" lon="5.08646">
        <ele>415</ele>
        <time>2019-07-06T17:11:38Z</time>
      </trkpt>
      <trkpt lat="48.28281" lon="5.08643">
        <ele>415</ele>
        <time>2019-07-06T17:11:42Z</time>
      </trkpt>
      <trkpt lat="48.28289" lon="5.08638">
        <ele>415.8</ele>
        <time>2019-07-06T17:11:46Z</time>
      </trkpt>
      <trkpt lat="48.28294" lon="5.08636">
        <ele>416</ele>
        <time>2019-07-06T17:11:50Z</time>
      </trkpt>
      <trkpt lat="48.28301" lon="5.08639">
        <ele>416</ele>
        <time>2019-07-06T17:11:54Z</time>
      </trkpt>
      <trkpt lat="48.28304" lon="5.08652">
        <ele>416</ele>
        <time>2019-07-06T17:11:58Z</time>
      </trkpt>
      <trkpt lat="48.2831" lon="5.08663">
        <ele>416</ele>
        <time>2019-07-06T17:12:02Z</time>
      </trkpt>
      <trkpt lat="48.28317" lon="5.08676">
        <ele>416</ele>
        <time>2019-07-06T17:12:06Z</time>
      </trkpt>
      <trkpt lat="48.28325" lon="5.0869">
        <ele>415.8</ele>
        <time>2019-07-06T17:12:10Z</time>
      </trkpt>
      <trkpt lat="48.28334" lon="5.087">
        <ele>416.4</ele>
        <time>2019-07-06T17:12:14Z</time>
      </trkpt>
      <trkpt lat="48.2834" lon="5.08719">
        <ele>415.6</ele>
        <time>2019-07-06T17:12:18Z</time>
      </trkpt>
      <trkpt lat="48.2835" lon="5.08739">
        <ele>415.6</ele>
        <time>2019-07-06T17:12:22Z</time>
      </trkpt>
      <trkpt lat="48.28358" lon="5.08764">
        <ele>413.6</ele>
        <time>2019-07-06T17:12:26Z</time>
      </trkpt>
      <trkpt lat="48.28368" lon="5.08783">
        <ele>414.4</ele>
        <time>2019-07-06T17:12:30Z</time>
      </trkpt>
      <trkpt lat="48.28377" lon="5.08808">
        <ele>413.4</ele>
        <time>2019-07-06T17:12:34Z</time>
      </trkpt>
      <trkpt lat="48.28379" lon="5.08824">
        <ele>413.4</ele>
        <time>2019-07-06T17:12:38Z</time>
      </trkpt>
      <trkpt lat="48.28381" lon="5.08848">
        <ele>413.4</ele>
        <time>2019-07-06T17:12:42Z</time>
      </trkpt>
      <trkpt lat="48.28378" lon="5.08872">
        <ele>413.4</ele>
        <time>2019-07-06T17:12:46Z</time>
      </trkpt>
      <trkpt lat="48.28374" lon="5.08893">
        <ele>412.8</ele>
        <time>2019-07-06T17:12:50Z</time>
      </trkpt>
      <trkpt lat="48.2837" lon="5.08914">
        <ele>411.4</ele>
        <time>2019-07-06T17:12:54Z</time>
      </trkpt>
      <trkpt lat="48.28366" lon="5.08926">
        <ele>410.8</ele>
        <time>2019-07-06T17:12:58Z</time>
      </trkpt>
      <trkpt lat="48.28368" lon="5.08944">
        <ele>410</ele>
        <time>2019-07-06T17:13:02Z</time>
      </trkpt>
      <trkpt lat="48.28374" lon="5.08958">
        <ele>411.6</ele>
        <time>2019-07-06T17:13:06Z</time>
      </trkpt>
      <trkpt lat="48.2838" lon="5.08972">
        <ele>411.6</ele>
        <time>2019-07-06T17:13:10Z</time>
      </trkpt>
      <trkpt lat="48.28385" lon="5.08986">
        <ele>412.6</ele>
        <time>2019-07-06T17:13:14Z</time>
      </trkpt>
      <trkpt lat="48.28392" lon="5.08998">
        <ele>412.6</ele>
        <time>2019-07-06T17:13:18Z</time>
      </trkpt>
      <trkpt lat="48.28399" lon="5.09008">
        <ele>413.8</ele>
        <time>2019-07-06T17:13:22Z</time>
      </trkpt>
      <trkpt lat="48.28408" lon="5.09017">
        <ele>414.4</ele>
        <time>2019-07-06T17:13:26Z</time>
      </trkpt>
      <trkpt lat="48.28417" lon="5.09018">
        <ele>416.6</ele>
        <time>2019-07-06T17:13:30Z</time>
      </trkpt>
      <trkpt lat="48.28425" lon="5.09023">
        <ele>417.2</ele>
        <time>2019-07-06T17:13:34Z</time>
      </trkpt>
      <trkpt lat="48.28433" lon="5.09035">
        <ele>417.2</ele>
        <time>2019-07-06T17:13:38Z</time>
      </trkpt>
      <trkpt lat="48.28441" lon="5.09048">
        <ele>417.6</ele>
        <time>2019-07-06T17:13:42Z</time>
      </trkpt>
      <trkpt lat="48.28448" lon="5.09059">
        <ele>417</ele>
        <time>2019-07-06T17:13:46Z</time>
      </trkpt>
      <trkpt lat="48.28455" lon="5.09071">
        <ele>416.8</ele>
        <time>2019-07-06T17:13:50Z</time>
      </trkpt>
      <trkpt lat="48.28461" lon="5.09083">
        <ele>417.6</ele>
        <time>2019-07-06T17:13:54Z</time>
      </trkpt>
      <trkpt lat="48.28467" lon="5.09094">
        <ele>416.8</ele>
        <time>2019-07-06T17:13:58Z</time>
      </trkpt>
      <trkpt lat="48.28471" lon="5.0911">
        <ele>416.8</ele>
        <time>2019-07-06T17:14:02Z</time>
      </trkpt>
      <trkpt lat="48.28478" lon="5.09124">
        <ele>417</ele>
        <time>2019-07-06T17:14:06Z</time>
      </trkpt>
      <trkpt lat="48.28484" lon="5.09137">
        <ele>416.6</ele>
        <time>2019-07-06T17:14:10Z</time>
      </trkpt>
      <trkpt lat="48.28488" lon="5.09144">
        <ele>417</ele>
        <time>2019-07-06T17:14:14Z</time>
      </trkpt>
      <trkpt lat="48.28492" lon="5.09156">
        <ele>414.4</ele>
        <time>2019-07-06T17:14:18Z</time>
      </trkpt>
      <trkpt lat="48.28496" lon="5.09169">
        <ele>413.4</ele>
        <time>2019-07-06T17:14:22Z</time>
      </trkpt>
      <trkpt lat="48.285" lon="5.09189">
        <ele>411</ele>
        <time>2019-07-06T17:14:26Z</time>
      </trkpt>
      <trkpt lat="48.28504" lon="5.09206">
        <ele>409</ele>
        <time>2019-07-06T17:14:30Z</time>
      </trkpt>
      <trkpt lat="48.28507" lon="5.09224">
        <ele>406.6</ele>
        <time>2019-07-06T17:14:34Z</time>
      </trkpt>
      <trkpt lat="48.2851" lon="5.09244">
        <ele>404.2</ele>
        <time>2019-07-06T17:14:38Z</time>
      </trkpt>
      <trkpt lat="48.28503" lon="5.09246">
        <ele>402.8</ele>
        <time>2019-07-06T17:14:42Z</time>
      </trkpt>
      <trkpt lat="48.28497" lon="5.09236">
        <ele>401.2</ele>
        <time>2019-07-06T17:14:46Z</time>
      </trkpt>
      <trkpt lat="48.28486" lon="5.09226">
        <ele>399.8</ele>
        <time>2019-07-06T17:14:50Z</time>
      </trkpt>
      <trkpt lat="48.28476" lon="5.09211">
        <ele>399.8</ele>
        <time>2019-07-06T17:14:54Z</time>
      </trkpt>
      <trkpt lat="48.28463" lon="5.09197">
        <ele>397.8</ele>
        <time>2019-07-06T17:14:58Z</time>
      </trkpt>
      <trkpt lat="48.28449" lon="5.09178">
        <ele>395.2</ele>
        <time>2019-07-06T17:15:02Z</time>
      </trkpt>
      <trkpt lat="48.28439" lon="5.09164">
        <ele>394.6</ele>
        <time>2019-07-06T17:15:06Z</time>
      </trkpt>
      <trkpt lat="48.28435" lon="5.09166">
        <ele>392.8</ele>
        <time>2019-07-06T17:15:10Z</time>
      </trkpt>
      <trkpt lat="48.28436" lon="5.09186">
        <ele>389.8</ele>
        <time>2019-07-06T17:15:14Z</time>
      </trkpt>
      <trkpt lat="48.28438" lon="5.09209">
        <ele>388.8</ele>
        <time>2019-07-06T17:15:18Z</time>
      </trkpt>
      <trkpt lat="48.28438" lon="5.09219">
        <ele>385.2</ele>
        <time>2019-07-06T17:15:22Z</time>
      </trkpt>
      <trkpt lat="48.28421" lon="5.09221">
        <ele>384.8</ele>
        <time>2019-07-06T17:15:26Z</time>
      </trkpt>
      <trkpt lat="48.28406" lon="5.09218">
        <ele>384.2</ele>
        <time>2019-07-06T17:15:30Z</time>
      </trkpt>
      <trkpt lat="48.28395" lon="5.09207">
        <ele>382.2</ele>
        <time>2019-07-06T17:15:34Z</time>
      </trkpt>
      <trkpt lat="48.28379" lon="5.09201">
        <ele>380.2</ele>
        <time>2019-07-06T17:15:38Z</time>
      </trkpt>
      <trkpt lat="48.28362" lon="5.09199">
        <ele>380.8</ele>
        <time>2019-07-06T17:15:42Z</time>
      </trkpt>
      <trkpt lat="48.28344" lon="5.09201">
        <ele>380.8</ele>
        <time>2019-07-06T17:15:46Z</time>
      </trkpt>
      <trkpt lat="48.28327" lon="5.09201">
        <ele>381.2</ele>
        <time>2019-07-06T17:15:50Z</time>
      </trkpt>
      <trkpt lat="48.28313" lon="5.09206">
        <ele>382.6</ele>
        <time>2019-07-06T17:15:54Z</time>
      </trkpt>
      <trkpt lat="48.28303" lon="5.09213">
        <ele>382</ele>
        <time>2019-07-06T17:15:58Z</time>
      </trkpt>
      <trkpt lat="48.28286" lon="5.0921">
        <ele>378.8</ele>
        <time>2019-07-06T17:16:02Z</time>
      </trkpt>
      <trkpt lat="48.2826" lon="5.09215">
        <ele>375.6</ele>
        <time>2019-07-06T17:16:06Z</time>
      </trkpt>
      <trkpt lat="48.28239" lon="5.09233">
        <ele>374.2</ele>
        <time>2019-07-06T17:16:10Z</time>
      </trkpt>
      <trkpt lat="48.28236" lon="5.09251">
        <ele>375.4</ele>
        <time>2019-07-06T17:16:14Z</time>
      </trkpt>
      <trkpt lat="48.28239" lon="5.09263">
        <ele>373.6</ele>
        <time>2019-07-06T17:16:18Z</time>
      </trkpt>
      <trkpt lat="48.28235" lon="5.09284">
        <ele>374.2</ele>
        <time>2019-07-06T17:16:22Z</time>
      </trkpt>
      <trkpt lat="48.28232" lon="5.093">
        <ele>375</ele>
        <time>2019-07-06T17:16:26Z</time>
      </trkpt>
      <trkpt lat="48.28229" lon="5.09311">
        <ele>376.6</ele>
        <time>2019-07-06T17:16:30Z</time>
      </trkpt>
      <trkpt lat="48.28229" lon="5.09325">
        <ele>377</ele>
        <time>2019-07-06T17:16:34Z</time>
      </trkpt>
      <trkpt lat="48.28228" lon="5.09338">
        <ele>378</ele>
        <time>2019-07-06T17:16:38Z</time>
      </trkpt>
      <trkpt lat="48.28228" lon="5.09338">
        <ele>378</ele>
        <time>2019-07-06T17:16:42Z</time>
      </trkpt>
      <trkpt lat="48.28226" lon="5.0935">
        <ele>378.2</ele>
        <time>2019-07-06T17:16:46Z</time>
      </trkpt>
      <trkpt lat="48.28222" lon="5.0936">
        <ele>378.2</ele>
        <time>2019-07-06T17:16:50Z</time>
      </trkpt>
      <trkpt lat="48.28219" lon="5.09378">
        <ele>378.6</ele>
        <time>2019-07-06T17:16:54Z</time>
      </trkpt>
      <trkpt lat="48.28213" lon="5.09397">
        <ele>376.6</ele>
        <time>2019-07-06T17:16:58Z</time>
      </trkpt>
      <trkpt lat="48.28209" lon="5.09425">
        <ele>376.2</ele>
        <time>2019-07-06T17:17:02Z</time>
      </trkpt>
      <trkpt lat="48.28207" lon="5.09448">
        <ele>376</ele>
        <time>2019-07-06T17:17:06Z</time>
      </trkpt>
      <trkpt lat="48.2821" lon="5.09468">
        <ele>377.2</ele>
        <time>2019-07-06T17:17:10Z</time>
      </trkpt>
      <trkpt lat="48.2821" lon="5.09468">
        <ele>377.2</ele>
        <time>2019-07-06T17:17:14Z</time>
      </trkpt>
      <trkpt lat="48.2821" lon="5.09468">
        <ele>377.2</ele>
        <time>2019-07-06T17:17:18Z</time>
      </trkpt>
      <trkpt lat="48.28207" lon="5.09484">
        <ele>378.4</ele>
        <time>2019-07-06T17:17:22Z</time>
      </trkpt>
      <trkpt lat="48.28207" lon="5.09484">
        <ele>378.4</ele>
        <time>2019-07-06T17:17:26Z</time>
      </trkpt>
      <trkpt lat="48.28207" lon="5.09484">
        <ele>378.4</ele>
        <time>2019-07-06T17:17:30Z</time>
      </trkpt>
      <trkpt lat="48.28207" lon="5.09484">
        <ele>378.4</ele>
        <time>2019-07-06T17:17:34Z</time>
      </trkpt>
      <trkpt lat="48.28207" lon="5.09484">
        <ele>378.4</ele>
        <time>2019-07-06T17:17:38Z</time>
      </trkpt>
      <trkpt lat="48.28207" lon="5.09484">
        <ele>378.4</ele>
        <time>2019-07-06T17:17:42Z</time>
      </trkpt>
      <trkpt lat="48.28207" lon="5.09484">
        <ele>378.4</ele>
        <time>2019-07-06T17:17:46Z</time>
      </trkpt>
      <trkpt lat="48.28211" lon="5.09489">
        <ele>378.2</ele>
        <time>2019-07-06T17:17:50Z</time>
      </trkpt>
      <trkpt lat="48.28214" lon="5.09498">
        <ele>379.4</ele>
        <time>2019-07-06T17:17:54Z</time>
      </trkpt>
      <trkpt lat="48.28217" lon="5.09504">
        <ele>380.8</ele>
        <time>2019-07-06T17:17:58Z</time>
      </trkpt>
      <trkpt lat="48.28221" lon="5.09508">
        <ele>381.6</ele>
        <time>2019-07-06T17:18:02Z</time>
      </trkpt>
      <trkpt lat="48.28222" lon="5.09515">
        <ele>382.6</ele>
        <time>2019-07-06T17:18:06Z</time>
      </trkpt>
      <trkpt lat="48.28222" lon="5.09515">
        <ele>382.6</ele>
        <time>2019-07-06T17:18:10Z</time>
      </trkpt>
      <trkpt lat="48.28224" lon="5.09522">
        <ele>382.6</ele>
        <time>2019-07-06T17:18:14Z</time>
      </trkpt>
      <trkpt lat="48.28226" lon="5.09524">
        <ele>383.6</ele>
        <time>2019-07-06T17:18:18Z</time>
      </trkpt>
      <trkpt lat="48.28228" lon="5.09531">
        <ele>383.8</ele>
        <time>2019-07-06T17:18:22Z</time>
      </trkpt>
      <trkpt lat="48.28231" lon="5.0954">
        <ele>385.8</ele>
        <time>2019-07-06T17:18:26Z</time>
      </trkpt>
      <trkpt lat="48.28233" lon="5.09548">
        <ele>385</ele>
        <time>2019-07-06T17:18:30Z</time>
      </trkpt>
      <trkpt lat="48.28236" lon="5.09558">
        <ele>386</ele>
        <time>2019-07-06T17:18:34Z</time>
      </trkpt>
      <trkpt lat="48.28236" lon="5.09567">
        <ele>385.8</ele>
        <time>2019-07-06T17:18:38Z</time>
      </trkpt>
      <trkpt lat="48.28237" lon="5.09576">
        <ele>387.2</ele>
        <time>2019-07-06T17:18:42Z</time>
      </trkpt>
      <trkpt lat="48.28238" lon="5.09587">
        <ele>388.2</ele>
        <time>2019-07-06T17:18:46Z</time>
      </trkpt>
      <trkpt lat="48.28239" lon="5.09599">
        <ele>388.8</ele>
        <time>2019-07-06T17:18:50Z</time>
      </trkpt>
      <trkpt lat="48.2824" lon="5.0961">
        <ele>389.2</ele>
        <time>2019-07-06T17:18:54Z</time>
      </trkpt>
      <trkpt lat="48.2824" lon="5.09622">
        <ele>389.2</ele>
        <time>2019-07-06T17:18:58Z</time>
      </trkpt>
      <trkpt lat="48.28236" lon="5.09637">
        <ele>388.8</ele>
        <time>2019-07-06T17:19:02Z</time>
      </trkpt>
      <trkpt lat="48.28229" lon="5.09653">
        <ele>387</ele>
        <time>2019-07-06T17:19:06Z</time>
      </trkpt>
      <trkpt lat="48.28227" lon="5.0967">
        <ele>386.4</ele>
        <time>2019-07-06T17:19:10Z</time>
      </trkpt>
      <trkpt lat="48.28221" lon="5.09687">
        <ele>385.4</ele>
        <time>2019-07-06T17:19:14Z</time>
      </trkpt>
      <trkpt lat="48.28216" lon="5.09708">
        <ele>385.4</ele>
        <time>2019-07-06T17:19:18Z</time>
      </trkpt>
      <trkpt lat="48.28213" lon="5.09736">
        <ele>387</ele>
        <time>2019-07-06T17:19:22Z</time>
      </trkpt>
      <trkpt lat="48.28215" lon="5.09747">
        <ele>387</ele>
        <time>2019-07-06T17:19:26Z</time>
      </trkpt>
      <trkpt lat="48.28216" lon="5.09758">
        <ele>388.2</ele>
        <time>2019-07-06T17:19:30Z</time>
      </trkpt>
      <trkpt lat="48.28219" lon="5.09768">
        <ele>389.2</ele>
        <time>2019-07-06T17:19:34Z</time>
      </trkpt>
      <trkpt lat="48.28219" lon="5.09777">
        <ele>388.8</ele>
        <time>2019-07-06T17:19:38Z</time>
      </trkpt>
      <trkpt lat="48.2822" lon="5.0979">
        <ele>389.8</ele>
        <time>2019-07-06T17:19:42Z</time>
      </trkpt>
      <trkpt lat="48.28221" lon="5.09802">
        <ele>389.8</ele>
        <time>2019-07-06T17:19:46Z</time>
      </trkpt>
      <trkpt lat="48.28224" lon="5.09815">
        <ele>390</ele>
        <time>2019-07-06T17:19:50Z</time>
      </trkpt>
      <trkpt lat="48.28226" lon="5.09828">
        <ele>390.6</ele>
        <time>2019-07-06T17:19:54Z</time>
      </trkpt>
      <trkpt lat="48.28228" lon="5.09839">
        <ele>390</ele>
        <time>2019-07-06T17:19:58Z</time>
      </trkpt>
      <trkpt lat="48.28229" lon="5.09853">
        <ele>390.4</ele>
        <time>2019-07-06T17:20:02Z</time>
      </trkpt>
      <trkpt lat="48.28233" lon="5.09867">
        <ele>390.2</ele>
        <time>2019-07-06T17:20:06Z</time>
      </trkpt>
      <trkpt lat="48.28235" lon="5.09882">
        <ele>389.6</ele>
        <time>2019-07-06T17:20:10Z</time>
      </trkpt>
      <trkpt lat="48.28235" lon="5.09882">
        <ele>389.6</ele>
        <time>2019-07-06T17:20:14Z</time>
      </trkpt>
      <trkpt lat="48.28239" lon="5.09892">
        <ele>389.4</ele>
        <time>2019-07-06T17:20:18Z</time>
      </trkpt>
      <trkpt lat="48.28241" lon="5.09905">
        <ele>387.6</ele>
        <time>2019-07-06T17:20:22Z</time>
      </trkpt>
      <trkpt lat="48.28244" lon="5.0992">
        <ele>385</ele>
        <time>2019-07-06T17:20:26Z</time>
      </trkpt>
      <trkpt lat="48.28248" lon="5.09933">
        <ele>384.2</ele>
        <time>2019-07-06T17:20:30Z</time>
      </trkpt>
      <trkpt lat="48.28253" lon="5.09942">
        <ele>383.6</ele>
        <time>2019-07-06T17:20:34Z</time>
      </trkpt>
      <trkpt lat="48.28255" lon="5.09944">
        <ele>384.2</ele>
        <time>2019-07-06T17:20:38Z</time>
      </trkpt>
      <trkpt lat="48.28255" lon="5.09944">
        <ele>384.2</ele>
        <time>2019-07-06T17:20:42Z</time>
      </trkpt>
      <trkpt lat="48.2826" lon="5.09952">
        <ele>384.4</ele>
        <time>2019-07-06T17:20:46Z</time>
      </trkpt>
      <trkpt lat="48.28262" lon="5.09964">
        <ele>383</ele>
        <time>2019-07-06T17:20:50Z</time>
      </trkpt>
      <trkpt lat="48.28269" lon="5.09976">
        <ele>383.4</ele>
        <time>2019-07-06T17:20:54Z</time>
      </trkpt>
      <trkpt lat="48.28277" lon="5.09992">
        <ele>382.4</ele>
        <time>2019-07-06T17:20:58Z</time>
      </trkpt>
      <trkpt lat="48.28285" lon="5.10009">
        <ele>382.4</ele>
        <time>2019-07-06T17:21:02Z</time>
      </trkpt>
      <trkpt lat="48.28294" lon="5.10023">
        <ele>383.4</ele>
        <time>2019-07-06T17:21:06Z</time>
      </trkpt>
      <trkpt lat="48.283" lon="5.10032">
        <ele>384.4</ele>
        <time>2019-07-06T17:21:10Z</time>
      </trkpt>
      <trkpt lat="48.28308" lon="5.10039">
        <ele>386</ele>
        <time>2019-07-06T17:21:14Z</time>
      </trkpt>
      <trkpt lat="48.28312" lon="5.10047">
        <ele>386</ele>
        <time>2019-07-06T17:21:18Z</time>
      </trkpt>
      <trkpt lat="48.28318" lon="5.10052">
        <ele>386.6</ele>
        <time>2019-07-06T17:21:22Z</time>
      </trkpt>
      <trkpt lat="48.28323" lon="5.10056">
        <ele>387.4</ele>
        <time>2019-07-06T17:21:26Z</time>
      </trkpt>
      <trkpt lat="48.28328" lon="5.10062">
        <ele>387.4</ele>
        <time>2019-07-06T17:21:30Z</time>
      </trkpt>
      <trkpt lat="48.28335" lon="5.10063">
        <ele>389</ele>
        <time>2019-07-06T17:21:34Z</time>
      </trkpt>
      <trkpt lat="48.2834" lon="5.10066">
        <ele>389.4</ele>
        <time>2019-07-06T17:21:38Z</time>
      </trkpt>
      <trkpt lat="48.28346" lon="5.10069">
        <ele>389.8</ele>
        <time>2019-07-06T17:21:42Z</time>
      </trkpt>
      <trkpt lat="48.28352" lon="5.10072">
        <ele>390.6</ele>
        <time>2019-07-06T17:21:46Z</time>
      </trkpt>
      <trkpt lat="48.28357" lon="5.10073">
        <ele>390.8</ele>
        <time>2019-07-06T17:21:50Z</time>
      </trkpt>
      <trkpt lat="48.28358" lon="5.10085">
        <ele>387.8</ele>
        <time>2019-07-06T17:21:54Z</time>
      </trkpt>
      <trkpt lat="48.28365" lon="5.10101">
        <ele>387.8</ele>
        <time>2019-07-06T17:21:58Z</time>
      </trkpt>
      <trkpt lat="48.28369" lon="5.10109">
        <ele>389.4</ele>
        <time>2019-07-06T17:22:02Z</time>
      </trkpt>
      <trkpt lat="48.28369" lon="5.10109">
        <ele>389.4</ele>
        <time>2019-07-06T17:22:06Z</time>
      </trkpt>
      <trkpt lat="48.28376" lon="5.10112">
        <ele>389.8</ele>
        <time>2019-07-06T17:22:10Z</time>
      </trkpt>
      <trkpt lat="48.28378" lon="5.10116">
        <ele>390</ele>
        <time>2019-07-06T17:22:14Z</time>
      </trkpt>
      <trkpt lat="48.28378" lon="5.10116">
        <ele>390</ele>
        <time>2019-07-06T17:22:18Z</time>
      </trkpt>
      <trkpt lat="48.28378" lon="5.10116">
        <ele>390</ele>
        <time>2019-07-06T17:22:22Z</time>
      </trkpt>
      <trkpt lat="48.28378" lon="5.10116">
        <ele>390</ele>
        <time>2019-07-06T17:22:26Z</time>
      </trkpt>
      <trkpt lat="48.28378" lon="5.10116">
        <ele>390</ele>
        <time>2019-07-06T17:22:30Z</time>
      </trkpt>
      <trkpt lat="48.28378" lon="5.10116">
        <ele>390</ele>
        <time>2019-07-06T17:22:34Z</time>
      </trkpt>
      <trkpt lat="48.28378" lon="5.10116">
        <ele>390</ele>
        <time>2019-07-06T17:22:38Z</time>
      </trkpt>
      <trkpt lat="48.28378" lon="5.10116">
        <ele>390</ele>
        <time>2019-07-06T17:22:42Z</time>
      </trkpt>
      <trkpt lat="48.28378" lon="5.10116">
        <ele>390</ele>
        <time>2019-07-06T17:22:46Z</time>
      </trkpt>
      <trkpt lat="48.28378" lon="5.10116">
        <ele>390</ele>
        <time>2019-07-06T17:22:50Z</time>
      </trkpt>
      <trkpt lat="48.28378" lon="5.10116">
        <ele>390</ele>
        <time>2019-07-06T17:22:54Z</time>
      </trkpt>
      <trkpt lat="48.28378" lon="5.10116">
        <ele>390</ele>
        <time>2019-07-06T17:22:58Z</time>
      </trkpt>
      <trkpt lat="48.28378" lon="5.10116">
        <ele>390</ele>
        <time>2019-07-06T17:23:02Z</time>
      </trkpt>
      <trkpt lat="48.28378" lon="5.10116">
        <ele>390</ele>
        <time>2019-07-06T17:23:06Z</time>
      </trkpt>
      <trkpt lat="48.28378" lon="5.10116">
        <ele>390</ele>
        <time>2019-07-06T17:23:10Z</time>
      </trkpt>
      <trkpt lat="48.28378" lon="5.10116">
        <ele>390</ele>
        <time>2019-07-06T17:23:14Z</time>
      </trkpt>
      <trkpt lat="48.28378" lon="5.10116">
        <ele>390</ele>
        <time>2019-07-06T17:23:18Z</time>
      </trkpt>
      <trkpt lat="48.28378" lon="5.10116">
        <ele>390</ele>
        <time>2019-07-06T17:23:22Z</time>
      </trkpt>
      <trkpt lat="48.28378" lon="5.10116">
        <ele>390</ele>
        <time>2019-07-06T17:23:26Z</time>
      </trkpt>
      <trkpt lat="48.28378" lon="5.10116">
        <ele>390</ele>
        <time>2019-07-06T17:23:30Z</time>
      </trkpt>
      <trkpt lat="48.28378" lon="5.10116">
        <ele>390</ele>
        <time>2019-07-06T17:23:34Z</time>
      </trkpt>
      <trkpt lat="48.28378" lon="5.10116">
        <ele>390</ele>
        <time>2019-07-06T17:23:38Z</time>
      </trkpt>
      <trkpt lat="48.28378" lon="5.10116">
        <ele>390</ele>
        <time>2019-07-06T17:23:42Z</time>
      </trkpt>
      <trkpt lat="48.28378" lon="5.10116">
        <ele>390</ele>
        <time>2019-07-06T17:23:46Z</time>
      </trkpt>
      <trkpt lat="48.28378" lon="5.10116">
        <ele>390</ele>
        <time>2019-07-06T17:23:50Z</time>
      </trkpt>
      <trkpt lat="48.28378" lon="5.10116">
        <ele>390</ele>
        <time>2019-07-06T17:23:54Z</time>
      </trkpt>
      <trkpt lat="48.28378" lon="5.10116">
        <ele>390</ele>
        <time>2019-07-06T17:23:58Z</time>
      </trkpt>
      <trkpt lat="48.28378" lon="5.10116">
        <ele>390</ele>
        <time>2019-07-06T17:24:02Z</time>
      </trkpt>
      <trkpt lat="48.28378" lon="5.10116">
        <ele>390</ele>
        <time>2019-07-06T17:24:06Z</time>
      </trkpt>
      <trkpt lat="48.28378" lon="5.10116">
        <ele>390</ele>
        <time>2019-07-06T17:24:10Z</time>
      </trkpt>
      <trkpt lat="48.28378" lon="5.10116">
        <ele>390</ele>
        <time>2019-07-06T17:24:14Z</time>
      </trkpt>
      <trkpt lat="48.28378" lon="5.10116">
        <ele>390</ele>
        <time>2019-07-06T17:24:18Z</time>
      </trkpt>
      <trkpt lat="48.28378" lon="5.10116">
        <ele>390</ele>
        <time>2019-07-06T17:24:22Z</time>
      </trkpt>
      <trkpt lat="48.28378" lon="5.10116">
        <ele>390</ele>
        <time>2019-07-06T17:24:26Z</time>
      </trkpt>
      <trkpt lat="48.28378" lon="5.10116">
        <ele>390</ele>
        <time>2019-07-06T17:24:30Z</time>
      </trkpt>
      <trkpt lat="48.28378" lon="5.10116">
        <ele>390</ele>
        <time>2019-07-06T17:24:34Z</time>
      </trkpt>
      <trkpt lat="48.28378" lon="5.10116">
        <ele>390</ele>
        <time>2019-07-06T17:24:38Z</time>
      </trkpt>
      <trkpt lat="48.28378" lon="5.10116">
        <ele>390</ele>
        <time>2019-07-06T17:24:42Z</time>
      </trkpt>
      <trkpt lat="48.28378" lon="5.10116">
        <ele>390</ele>
        <time>2019-07-06T17:24:46Z</time>
      </trkpt>
      <trkpt lat="48.28378" lon="5.10116">
        <ele>390</ele>
        <time>2019-07-06T17:24:50Z</time>
      </trkpt>
      <trkpt lat="48.28378" lon="5.10116">
        <ele>390</ele>
        <time>2019-07-06T17:24:54Z</time>
      </trkpt>
      <trkpt lat="48.28378" lon="5.10116">
        <ele>390</ele>
        <time>2019-07-06T17:24:58Z</time>
      </trkpt>
      <trkpt lat="48.28378" lon="5.10116">
        <ele>390</ele>
        <time>2019-07-06T17:25:02Z</time>
      </trkpt>
      <trkpt lat="48.28378" lon="5.10116">
        <ele>390</ele>
        <time>2019-07-06T17:25:06Z</time>
      </trkpt>
      <trkpt lat="48.28378" lon="5.10116">
        <ele>390</ele>
        <time>2019-07-06T17:25:10Z</time>
      </trkpt>
      <trkpt lat="48.28378" lon="5.10116">
        <ele>390</ele>
        <time>2019-07-06T17:25:14Z</time>
      </trkpt>
      <trkpt lat="48.28378" lon="5.10116">
        <ele>390</ele>
        <time>2019-07-06T17:25:18Z</time>
      </trkpt>
      <trkpt lat="48.28378" lon="5.10116">
        <ele>390</ele>
        <time>2019-07-06T17:25:22Z</time>
      </trkpt>
      <trkpt lat="48.28383" lon="5.10125">
        <ele>390.6</ele>
        <time>2019-07-06T17:25:26Z</time>
      </trkpt>
      <trkpt lat="48.28385" lon="5.10126">
        <ele>391.4</ele>
        <time>2019-07-06T17:25:30Z</time>
      </trkpt>
      <trkpt lat="48.28385" lon="5.10126">
        <ele>391.4</ele>
        <time>2019-07-06T17:25:34Z</time>
      </trkpt>
      <trkpt lat="48.28389" lon="5.10127">
        <ele>392.4</ele>
        <time>2019-07-06T17:25:38Z</time>
      </trkpt>
      <trkpt lat="48.28393" lon="5.1013">
        <ele>393.4</ele>
        <time>2019-07-06T17:25:42Z</time>
      </trkpt>
      <trkpt lat="48.28398" lon="5.10135">
        <ele>393.6</ele>
        <time>2019-07-06T17:25:46Z</time>
      </trkpt>
      <trkpt lat="48.284" lon="5.10139">
        <ele>394.6</ele>
        <time>2019-07-06T17:25:50Z</time>
      </trkpt>
      <trkpt lat="48.28402" lon="5.10144">
        <ele>395.2</ele>
        <time>2019-07-06T17:25:54Z</time>
      </trkpt>
      <trkpt lat="48.28404" lon="5.10149">
        <ele>396</ele>
        <time>2019-07-06T17:25:58Z</time>
      </trkpt>
      <trkpt lat="48.28407" lon="5.10154">
        <ele>397</ele>
        <time>2019-07-06T17:26:02Z</time>
      </trkpt>
      <trkpt lat="48.28409" lon="5.1016">
        <ele>397.6</ele>
        <time>2019-07-06T17:26:06Z</time>
      </trkpt>
      <trkpt lat="48.28412" lon="5.10166">
        <ele>397.6</ele>
        <time>2019-07-06T17:26:10Z</time>
      </trkpt>
      <trkpt lat="48.28414" lon="5.10172">
        <ele>398.6</ele>
        <time>2019-07-06T17:26:14Z</time>
      </trkpt>
      <trkpt lat="48.28416" lon="5.10176">
        <ele>399</ele>
        <time>2019-07-06T17:26:18Z</time>
      </trkpt>
      <trkpt lat="48.28419" lon="5.10182">
        <ele>399.8</ele>
        <time>2019-07-06T17:26:22Z</time>
      </trkpt>
      <trkpt lat="48.28419" lon="5.10185">
        <ele>400.8</ele>
        <time>2019-07-06T17:26:26Z</time>
      </trkpt>
      <trkpt lat="48.28422" lon="5.10191">
        <ele>401.4</ele>
        <time>2019-07-06T17:26:30Z</time>
      </trkpt>
      <trkpt lat="48.28422" lon="5.10191">
        <ele>401.4</ele>
        <time>2019-07-06T17:26:34Z</time>
      </trkpt>
      <trkpt lat="48.28422" lon="5.10191">
        <ele>401.4</ele>
        <time>2019-07-06T17:26:38Z</time>
      </trkpt>
      <trkpt lat="48.28424" lon="5.10195">
        <ele>403</ele>
        <time>2019-07-06T17:26:42Z</time>
      </trkpt>
      <trkpt lat="48.28427" lon="5.102">
        <ele>403.4</ele>
        <time>2019-07-06T17:26:46Z</time>
      </trkpt>
      <trkpt lat="48.28429" lon="5.10202">
        <ele>404</ele>
        <time>2019-07-06T17:26:50Z</time>
      </trkpt>
      <trkpt lat="48.28432" lon="5.10207">
        <ele>404.8</ele>
        <time>2019-07-06T17:26:54Z</time>
      </trkpt>
      <trkpt lat="48.28435" lon="5.10211">
        <ele>405.2</ele>
        <time>2019-07-06T17:26:58Z</time>
      </trkpt>
      <trkpt lat="48.28441" lon="5.10215">
        <ele>406.2</ele>
        <time>2019-07-06T17:27:02Z</time>
      </trkpt>
      <trkpt lat="48.28445" lon="5.10218">
        <ele>407.2</ele>
        <time>2019-07-06T17:27:06Z</time>
      </trkpt>
      <trkpt lat="48.28449" lon="5.10222">
        <ele>407.8</ele>
        <time>2019-07-06T17:27:10Z</time>
      </trkpt>
      <trkpt lat="48.28454" lon="5.10224">
        <ele>408.2</ele>
        <time>2019-07-06T17:27:14Z</time>
      </trkpt>
      <trkpt lat="48.28458" lon="5.10229">
        <ele>408.8</ele>
        <time>2019-07-06T17:27:18Z</time>
      </trkpt>
      <trkpt lat="48.28463" lon="5.10235">
        <ele>409.4</ele>
        <time>2019-07-06T17:27:22Z</time>
      </trkpt>
      <trkpt lat="48.28467" lon="5.10235">
        <ele>410</ele>
        <time>2019-07-06T17:27:26Z</time>
      </trkpt>
      <trkpt lat="48.28474" lon="5.10237">
        <ele>410</ele>
        <time>2019-07-06T17:27:30Z</time>
      </trkpt>
      <trkpt lat="48.28478" lon="5.10239">
        <ele>411</ele>
        <time>2019-07-06T17:27:34Z</time>
      </trkpt>
      <trkpt lat="48.28484" lon="5.1024">
        <ele>411</ele>
        <time>2019-07-06T17:27:38Z</time>
      </trkpt>
      <trkpt lat="48.28489" lon="5.10243">
        <ele>411.8</ele>
        <time>2019-07-06T17:27:42Z</time>
      </trkpt>
      <trkpt lat="48.28496" lon="5.10243">
        <ele>411.8</ele>
        <time>2019-07-06T17:27:46Z</time>
      </trkpt>
      <trkpt lat="48.28503" lon="5.10246">
        <ele>411.8</ele>
        <time>2019-07-06T17:27:50Z</time>
      </trkpt>
      <trkpt lat="48.28509" lon="5.1025">
        <ele>412.8</ele>
        <time>2019-07-06T17:27:54Z</time>
      </trkpt>
      <trkpt lat="48.28516" lon="5.10251">
        <ele>414</ele>
        <time>2019-07-06T17:27:58Z</time>
      </trkpt>
      <trkpt lat="48.2852" lon="5.10253">
        <ele>414.6</ele>
        <time>2019-07-06T17:28:02Z</time>
      </trkpt>
      <trkpt lat="48.28525" lon="5.10255">
        <ele>414.8</ele>
        <time>2019-07-06T17:28:06Z</time>
      </trkpt>
      <trkpt lat="48.28532" lon="5.10258">
        <ele>414.8</ele>
        <time>2019-07-06T17:28:10Z</time>
      </trkpt>
      <trkpt lat="48.28538" lon="5.10261">
        <ele>415.4</ele>
        <time>2019-07-06T17:28:14Z</time>
      </trkpt>
      <trkpt lat="48.28545" lon="5.10263">
        <ele>415.4</ele>
        <time>2019-07-06T17:28:18Z</time>
      </trkpt>
      <trkpt lat="48.2855" lon="5.10264">
        <ele>416.2</ele>
        <time>2019-07-06T17:28:22Z</time>
      </trkpt>
      <trkpt lat="48.28557" lon="5.10264">
        <ele>416</ele>
        <time>2019-07-06T17:28:26Z</time>
      </trkpt>
      <trkpt lat="48.28565" lon="5.10264">
        <ele>416.6</ele>
        <time>2019-07-06T17:28:30Z</time>
      </trkpt>
      <trkpt lat="48.28571" lon="5.10265">
        <ele>417</ele>
        <time>2019-07-06T17:28:34Z</time>
      </trkpt>
      <trkpt lat="48.28579" lon="5.10262">
        <ele>417</ele>
        <time>2019-07-06T17:28:38Z</time>
      </trkpt>
      <trkpt lat="48.28589" lon="5.1026">
        <ele>417.6</ele>
        <time>2019-07-06T17:28:42Z</time>
      </trkpt>
      <trkpt lat="48.28595" lon="5.10258">
        <ele>417.6</ele>
        <time>2019-07-06T17:28:46Z</time>
      </trkpt>
      <trkpt lat="48.28603" lon="5.10256">
        <ele>417.6</ele>
        <time>2019-07-06T17:28:50Z</time>
      </trkpt>
      <trkpt lat="48.28611" lon="5.10252">
        <ele>418</ele>
        <time>2019-07-06T17:28:54Z</time>
      </trkpt>
      <trkpt lat="48.28621" lon="5.10249">
        <ele>418</ele>
        <time>2019-07-06T17:28:58Z</time>
      </trkpt>
      <trkpt lat="48.28631" lon="5.10249">
        <ele>418.6</ele>
        <time>2019-07-06T17:29:02Z</time>
      </trkpt>
      <trkpt lat="48.28638" lon="5.1025">
        <ele>418.8</ele>
        <time>2019-07-06T17:29:06Z</time>
      </trkpt>
      <trkpt lat="48.28647" lon="5.10251">
        <ele>418.8</ele>
        <time>2019-07-06T17:29:10Z</time>
      </trkpt>
      <trkpt lat="48.28654" lon="5.1025">
        <ele>418.8</ele>
        <time>2019-07-06T17:29:14Z</time>
      </trkpt>
      <trkpt lat="48.28662" lon="5.10253">
        <ele>418.8</ele>
        <time>2019-07-06T17:29:18Z</time>
      </trkpt>
      <trkpt lat="48.28672" lon="5.10262">
        <ele>418.8</ele>
        <time>2019-07-06T17:29:22Z</time>
      </trkpt>
      <trkpt lat="48.28684" lon="5.10273">
        <ele>418.8</ele>
        <time>2019-07-06T17:29:26Z</time>
      </trkpt>
      <trkpt lat="48.28693" lon="5.10282">
        <ele>419.4</ele>
        <time>2019-07-06T17:29:30Z</time>
      </trkpt>
      <trkpt lat="48.28702" lon="5.10289">
        <ele>418.8</ele>
        <time>2019-07-06T17:29:34Z</time>
      </trkpt>
      <trkpt lat="48.28708" lon="5.10295">
        <ele>418.4</ele>
        <time>2019-07-06T17:29:38Z</time>
      </trkpt>
      <trkpt lat="48.28716" lon="5.10305">
        <ele>418.4</ele>
        <time>2019-07-06T17:29:42Z</time>
      </trkpt>
      <trkpt lat="48.28729" lon="5.10316">
        <ele>418</ele>
        <time>2019-07-06T17:29:46Z</time>
      </trkpt>
      <trkpt lat="48.28744" lon="5.1033">
        <ele>417.4</ele>
        <time>2019-07-06T17:29:50Z</time>
      </trkpt>
      <trkpt lat="48.2876" lon="5.1034">
        <ele>417.4</ele>
        <time>2019-07-06T17:29:54Z</time>
      </trkpt>
      <trkpt lat="48.28778" lon="5.10353">
        <ele>415.8</ele>
        <time>2019-07-06T17:29:58Z</time>
      </trkpt>
      <trkpt lat="48.28797" lon="5.10358">
        <ele>414.8</ele>
        <time>2019-07-06T17:30:02Z</time>
      </trkpt>
      <trkpt lat="48.28817" lon="5.10372">
        <ele>414</ele>
        <time>2019-07-06T17:30:06Z</time>
      </trkpt>
      <trkpt lat="48.28838" lon="5.10376">
        <ele>411.8</ele>
        <time>2019-07-06T17:30:10Z</time>
      </trkpt>
      <trkpt lat="48.2886" lon="5.10371">
        <ele>410.2</ele>
        <time>2019-07-06T17:30:14Z</time>
      </trkpt>
      <trkpt lat="48.28879" lon="5.10367">
        <ele>410.2</ele>
        <time>2019-07-06T17:30:18Z</time>
      </trkpt>
      <trkpt lat="48.28888" lon="5.10354">
        <ele>410.2</ele>
        <time>2019-07-06T17:30:22Z</time>
      </trkpt>
      <trkpt lat="48.28897" lon="5.10348">
        <ele>411.6</ele>
        <time>2019-07-06T17:30:26Z</time>
      </trkpt>
      <trkpt lat="48.28909" lon="5.1034">
        <ele>411.6</ele>
        <time>2019-07-06T17:30:30Z</time>
      </trkpt>
      <trkpt lat="48.28921" lon="5.10328">
        <ele>411.6</ele>
        <time>2019-07-06T17:30:34Z</time>
      </trkpt>
      <trkpt lat="48.28933" lon="5.10318">
        <ele>411.6</ele>
        <time>2019-07-06T17:30:38Z</time>
      </trkpt>
      <trkpt lat="48.28953" lon="5.10303">
        <ele>411.6</ele>
        <time>2019-07-06T17:30:42Z</time>
      </trkpt>
      <trkpt lat="48.28969" lon="5.10287">
        <ele>411.2</ele>
        <time>2019-07-06T17:30:46Z</time>
      </trkpt>
      <trkpt lat="48.28987" lon="5.10274">
        <ele>410.6</ele>
        <time>2019-07-06T17:30:50Z</time>
      </trkpt>
      <trkpt lat="48.29" lon="5.1026">
        <ele>411</ele>
        <time>2019-07-06T17:30:54Z</time>
      </trkpt>
      <trkpt lat="48.29011" lon="5.10247">
        <ele>410.4</ele>
        <time>2019-07-06T17:30:58Z</time>
      </trkpt>
      <trkpt lat="48.29019" lon="5.10237">
        <ele>411.4</ele>
        <time>2019-07-06T17:31:02Z</time>
      </trkpt>
      <trkpt lat="48.29028" lon="5.10228">
        <ele>412.4</ele>
        <time>2019-07-06T17:31:06Z</time>
      </trkpt>
      <trkpt lat="48.29036" lon="5.10219">
        <ele>411.8</ele>
        <time>2019-07-06T17:31:10Z</time>
      </trkpt>
      <trkpt lat="48.29044" lon="5.10209">
        <ele>412.2</ele>
        <time>2019-07-06T17:31:14Z</time>
      </trkpt>
      <trkpt lat="48.29053" lon="5.102">
        <ele>412.2</ele>
        <time>2019-07-06T17:31:18Z</time>
      </trkpt>
      <trkpt lat="48.29065" lon="5.10189">
        <ele>412.2</ele>
        <time>2019-07-06T17:31:22Z</time>
      </trkpt>
      <trkpt lat="48.29075" lon="5.1018">
        <ele>412.2</ele>
        <time>2019-07-06T17:31:26Z</time>
      </trkpt>
      <trkpt lat="48.29085" lon="5.10171">
        <ele>412</ele>
        <time>2019-07-06T17:31:30Z</time>
      </trkpt>
      <trkpt lat="48.29095" lon="5.10161">
        <ele>411.2</ele>
        <time>2019-07-06T17:31:34Z</time>
      </trkpt>
      <trkpt lat="48.29101" lon="5.10148">
        <ele>412</ele>
        <time>2019-07-06T17:31:38Z</time>
      </trkpt>
      <trkpt lat="48.29096" lon="5.10142">
        <ele>411.8</ele>
        <time>2019-07-06T17:31:42Z</time>
      </trkpt>
      <trkpt lat="48.29087" lon="5.10135">
        <ele>412.2</ele>
        <time>2019-07-06T17:31:46Z</time>
      </trkpt>
      <trkpt lat="48.29078" lon="5.10127">
        <ele>412.4</ele>
        <time>2019-07-06T17:31:50Z</time>
      </trkpt>
      <trkpt lat="48.29069" lon="5.10122">
        <ele>412.6</ele>
        <time>2019-07-06T17:31:54Z</time>
      </trkpt>
      <trkpt lat="48.29059" lon="5.10117">
        <ele>413.2</ele>
        <time>2019-07-06T17:31:58Z</time>
      </trkpt>
      <trkpt lat="48.2905" lon="5.10108">
        <ele>413.2</ele>
        <time>2019-07-06T17:32:02Z</time>
      </trkpt>
      <trkpt lat="48.2904" lon="5.10102">
        <ele>414.6</ele>
        <time>2019-07-06T17:32:06Z</time>
      </trkpt>
      <trkpt lat="48.29028" lon="5.10095">
        <ele>413.8</ele>
        <time>2019-07-06T17:32:10Z</time>
      </trkpt>
      <trkpt lat="48.29016" lon="5.10087">
        <ele>414.6</ele>
        <time>2019-07-06T17:32:14Z</time>
      </trkpt>
      <trkpt lat="48.29004" lon="5.10079">
        <ele>414.6</ele>
        <time>2019-07-06T17:32:18Z</time>
      </trkpt>
      <trkpt lat="48.28992" lon="5.10072">
        <ele>415</ele>
        <time>2019-07-06T17:32:22Z</time>
      </trkpt>
      <trkpt lat="48.28981" lon="5.10064">
        <ele>415.4</ele>
        <time>2019-07-06T17:32:26Z</time>
      </trkpt>
      <trkpt lat="48.28971" lon="5.10058">
        <ele>415.8</ele>
        <time>2019-07-06T17:32:30Z</time>
      </trkpt>
      <trkpt lat="48.2896" lon="5.1005">
        <ele>415.8</ele>
        <time>2019-07-06T17:32:34Z</time>
      </trkpt>
      <trkpt lat="48.28948" lon="5.10042">
        <ele>416.8</ele>
        <time>2019-07-06T17:32:38Z</time>
      </trkpt>
      <trkpt lat="48.28939" lon="5.10036">
        <ele>416.8</ele>
        <time>2019-07-06T17:32:42Z</time>
      </trkpt>
      <trkpt lat="48.2893" lon="5.1003">
        <ele>417.2</ele>
        <time>2019-07-06T17:32:46Z</time>
      </trkpt>
      <trkpt lat="48.28923" lon="5.10024">
        <ele>417.4</ele>
        <time>2019-07-06T17:32:50Z</time>
      </trkpt>
      <trkpt lat="48.28915" lon="5.10021">
        <ele>418</ele>
        <time>2019-07-06T17:32:54Z</time>
      </trkpt>
      <trkpt lat="48.28908" lon="5.10018">
        <ele>419</ele>
        <time>2019-07-06T17:32:58Z</time>
      </trkpt>
      <trkpt lat="48.28901" lon="5.10014">
        <ele>419</ele>
        <time>2019-07-06T17:33:02Z</time>
      </trkpt>
      <trkpt lat="48.28894" lon="5.1001">
        <ele>419.6</ele>
        <time>2019-07-06T17:33:06Z</time>
      </trkpt>
      <trkpt lat="48.28886" lon="5.10005">
        <ele>420.6</ele>
        <time>2019-07-06T17:33:10Z</time>
      </trkpt>
      <trkpt lat="48.28879" lon="5.09998">
        <ele>420.2</ele>
        <time>2019-07-06T17:33:14Z</time>
      </trkpt>
      <trkpt lat="48.2887" lon="5.09995">
        <ele>421.2</ele>
        <time>2019-07-06T17:33:18Z</time>
      </trkpt>
      <trkpt lat="48.28863" lon="5.09988">
        <ele>421.4</ele>
        <time>2019-07-06T17:33:22Z</time>
      </trkpt>
      <trkpt lat="48.28854" lon="5.09985">
        <ele>422</ele>
        <time>2019-07-06T17:33:26Z</time>
      </trkpt>
      <trkpt lat="48.28847" lon="5.09979">
        <ele>422.2</ele>
        <time>2019-07-06T17:33:30Z</time>
      </trkpt>
      <trkpt lat="48.28839" lon="5.09975">
        <ele>422.8</ele>
        <time>2019-07-06T17:33:34Z</time>
      </trkpt>
      <trkpt lat="48.2883" lon="5.09971">
        <ele>423.6</ele>
        <time>2019-07-06T17:33:38Z</time>
      </trkpt>
      <trkpt lat="48.2882" lon="5.09966">
        <ele>424.2</ele>
        <time>2019-07-06T17:33:42Z</time>
      </trkpt>
      <trkpt lat="48.28812" lon="5.09961">
        <ele>424.4</ele>
        <time>2019-07-06T17:33:46Z</time>
      </trkpt>
      <trkpt lat="48.28803" lon="5.09955">
        <ele>424.4</ele>
        <time>2019-07-06T17:33:50Z</time>
      </trkpt>
      <trkpt lat="48.28792" lon="5.09946">
        <ele>424.8</ele>
        <time>2019-07-06T17:33:54Z</time>
      </trkpt>
      <trkpt lat="48.28782" lon="5.09939">
        <ele>425.4</ele>
        <time>2019-07-06T17:33:58Z</time>
      </trkpt>
      <trkpt lat="48.28774" lon="5.09933">
        <ele>424.8</ele>
        <time>2019-07-06T17:34:02Z</time>
      </trkpt>
      <trkpt lat="48.28765" lon="5.09928">
        <ele>425.4</ele>
        <time>2019-07-06T17:34:06Z</time>
      </trkpt>
      <trkpt lat="48.28758" lon="5.09921">
        <ele>425.4</ele>
        <time>2019-07-06T17:34:10Z</time>
      </trkpt>
      <trkpt lat="48.28751" lon="5.09919">
        <ele>425.4</ele>
        <time>2019-07-06T17:34:14Z</time>
      </trkpt>
      <trkpt lat="48.28751" lon="5.09919">
        <ele>425.4</ele>
        <time>2019-07-06T17:34:18Z</time>
      </trkpt>
      <trkpt lat="48.28751" lon="5.09919">
        <ele>425.4</ele>
        <time>2019-07-06T17:34:22Z</time>
      </trkpt>
      <trkpt lat="48.28751" lon="5.09919">
        <ele>425.4</ele>
        <time>2019-07-06T17:34:26Z</time>
      </trkpt>
      <trkpt lat="48.28751" lon="5.09919">
        <ele>425.4</ele>
        <time>2019-07-06T17:34:30Z</time>
      </trkpt>
      <trkpt lat="48.28751" lon="5.09919">
        <ele>425.4</ele>
        <time>2019-07-06T17:34:34Z</time>
      </trkpt>
      <trkpt lat="48.28747" lon="5.09915">
        <ele>425</ele>
        <time>2019-07-06T17:34:38Z</time>
      </trkpt>
      <trkpt lat="48.28749" lon="5.09915">
        <ele>425.2</ele>
        <time>2019-07-06T17:34:42Z</time>
      </trkpt>
      <trkpt lat="48.28751" lon="5.09917">
        <ele>425.2</ele>
        <time>2019-07-06T17:34:46Z</time>
      </trkpt>
      <trkpt lat="48.28753" lon="5.09916">
        <ele>425.2</ele>
        <time>2019-07-06T17:34:50Z</time>
      </trkpt>
      <trkpt lat="48.28757" lon="5.09918">
        <ele>425.2</ele>
        <time>2019-07-06T17:34:54Z</time>
      </trkpt>
      <trkpt lat="48.2876" lon="5.0992">
        <ele>424.8</ele>
        <time>2019-07-06T17:34:58Z</time>
      </trkpt>
      <trkpt lat="48.28763" lon="5.0992">
        <ele>425.6</ele>
        <time>2019-07-06T17:35:02Z</time>
      </trkpt>
      <trkpt lat="48.28763" lon="5.0992">
        <ele>425.6</ele>
        <time>2019-07-06T17:35:06Z</time>
      </trkpt>
      <trkpt lat="48.28763" lon="5.0992">
        <ele>425.6</ele>
        <time>2019-07-06T17:35:10Z</time>
      </trkpt>
      <trkpt lat="48.28764" lon="5.09917">
        <ele>425.4</ele>
        <time>2019-07-06T17:35:14Z</time>
      </trkpt>
      <trkpt lat="48.28764" lon="5.09917">
        <ele>425.4</ele>
        <time>2019-07-06T17:35:18Z</time>
      </trkpt>
      <trkpt lat="48.28762" lon="5.09919">
        <ele>425.2</ele>
        <time>2019-07-06T17:35:22Z</time>
      </trkpt>
      <trkpt lat="48.28756" lon="5.09917">
        <ele>425.6</ele>
        <time>2019-07-06T17:35:26Z</time>
      </trkpt>
      <trkpt lat="48.28747" lon="5.09913">
        <ele>425.2</ele>
        <time>2019-07-06T17:35:30Z</time>
      </trkpt>
      <trkpt lat="48.28739" lon="5.09909">
        <ele>425.6</ele>
        <time>2019-07-06T17:35:34Z</time>
      </trkpt>
      <trkpt lat="48.28731" lon="5.09904">
        <ele>425.2</ele>
        <time>2019-07-06T17:35:38Z</time>
      </trkpt>
      <trkpt lat="48.28722" lon="5.099">
        <ele>424.8</ele>
        <time>2019-07-06T17:35:42Z</time>
      </trkpt>
      <trkpt lat="48.28711" lon="5.09894">
        <ele>425</ele>
        <time>2019-07-06T17:35:46Z</time>
      </trkpt>
      <trkpt lat="48.28699" lon="5.09887">
        <ele>424.4</ele>
        <time>2019-07-06T17:35:50Z</time>
      </trkpt>
      <trkpt lat="48.28681" lon="5.09874">
        <ele>424.2</ele>
        <time>2019-07-06T17:35:54Z</time>
      </trkpt>
      <trkpt lat="48.28663" lon="5.09862">
        <ele>424.6</ele>
        <time>2019-07-06T17:35:58Z</time>
      </trkpt>
      <trkpt lat="48.28643" lon="5.0985">
        <ele>423.8</ele>
        <time>2019-07-06T17:36:02Z</time>
      </trkpt>
      <trkpt lat="48.28621" lon="5.09836">
        <ele>423.4</ele>
        <time>2019-07-06T17:36:06Z</time>
      </trkpt>
      <trkpt lat="48.28598" lon="5.09823">
        <ele>422.4</ele>
        <time>2019-07-06T17:36:10Z</time>
      </trkpt>
      <trkpt lat="48.28577" lon="5.09809">
        <ele>422.4</ele>
        <time>2019-07-06T17:36:14Z</time>
      </trkpt>
      <trkpt lat="48.2856" lon="5.0979">
        <ele>422.2</ele>
        <time>2019-07-06T17:36:18Z</time>
      </trkpt>
      <trkpt lat="48.28561" lon="5.0976">
        <ele>422.4</ele>
        <time>2019-07-06T17:36:22Z</time>
      </trkpt>
      <trkpt lat="48.28564" lon="5.09732">
        <ele>423</ele>
        <time>2019-07-06T17:36:26Z</time>
      </trkpt>
      <trkpt lat="48.28567" lon="5.09702">
        <ele>423.4</ele>
        <time>2019-07-06T17:36:30Z</time>
      </trkpt>
      <trkpt lat="48.2857" lon="5.09671">
        <ele>423.4</ele>
        <time>2019-07-06T17:36:34Z</time>
      </trkpt>
      <trkpt lat="48.28574" lon="5.09644">
        <ele>423.6</ele>
        <time>2019-07-06T17:36:38Z</time>
      </trkpt>
      <trkpt lat="48.28577" lon="5.09624">
        <ele>424</ele>
        <time>2019-07-06T17:36:42Z</time>
      </trkpt>
      <trkpt lat="48.2858" lon="5.09598">
        <ele>423.8</ele>
        <time>2019-07-06T17:36:46Z</time>
      </trkpt>
      <trkpt lat="48.28584" lon="5.0957">
        <ele>423.8</ele>
        <time>2019-07-06T17:36:50Z</time>
      </trkpt>
      <trkpt lat="48.28587" lon="5.09543">
        <ele>424.2</ele>
        <time>2019-07-06T17:36:54Z</time>
      </trkpt>
      <trkpt lat="48.28588" lon="5.09517">
        <ele>424</ele>
        <time>2019-07-06T17:36:58Z</time>
      </trkpt>
      <trkpt lat="48.28595" lon="5.09488">
        <ele>424</ele>
        <time>2019-07-06T17:37:02Z</time>
      </trkpt>
      <trkpt lat="48.286" lon="5.09459">
        <ele>423.4</ele>
        <time>2019-07-06T17:37:06Z</time>
      </trkpt>
      <trkpt lat="48.28605" lon="5.0943">
        <ele>423.2</ele>
        <time>2019-07-06T17:37:10Z</time>
      </trkpt>
      <trkpt lat="48.2861" lon="5.09401">
        <ele>423.2</ele>
        <time>2019-07-06T17:37:14Z</time>
      </trkpt>
      <trkpt lat="48.28614" lon="5.09373">
        <ele>422</ele>
        <time>2019-07-06T17:37:18Z</time>
      </trkpt>
      <trkpt lat="48.2861" lon="5.09355">
        <ele>421.6</ele>
        <time>2019-07-06T17:37:22Z</time>
      </trkpt>
      <trkpt lat="48.28607" lon="5.09335">
        <ele>419.8</ele>
        <time>2019-07-06T17:37:26Z</time>
      </trkpt>
      <trkpt lat="48.28601" lon="5.09318">
        <ele>418.8</ele>
        <time>2019-07-06T17:37:30Z</time>
      </trkpt>
      <trkpt lat="48.28596" lon="5.09311">
        <ele>416.6</ele>
        <time>2019-07-06T17:37:34Z</time>
      </trkpt>
      <trkpt lat="48.28585" lon="5.09307">
        <ele>417</ele>
        <time>2019-07-06T17:37:38Z</time>
      </trkpt>
      <trkpt lat="48.28582" lon="5.09308">
        <ele>417</ele>
        <time>2019-07-06T17:37:42Z</time>
      </trkpt>
      <trkpt lat="48.28573" lon="5.09312">
        <ele>415.8</ele>
        <time>2019-07-06T17:37:46Z</time>
      </trkpt>
      <trkpt lat="48.28558" lon="5.09315">
        <ele>414.8</ele>
        <time>2019-07-06T17:37:50Z</time>
      </trkpt>
      <trkpt lat="48.28544" lon="5.09311">
        <ele>412.8</ele>
        <time>2019-07-06T17:37:54Z</time>
      </trkpt>
      <trkpt lat="48.28537" lon="5.09306">
        <ele>409.2</ele>
        <time>2019-07-06T17:37:58Z</time>
      </trkpt>
      <trkpt lat="48.28525" lon="5.09287">
        <ele>406.4</ele>
        <time>2019-07-06T17:38:02Z</time>
      </trkpt>
      <trkpt lat="48.28524" lon="5.0927">
        <ele>408</ele>
        <time>2019-07-06T17:38:06Z</time>
      </trkpt>
      <trkpt lat="48.2853" lon="5.0927">
        <ele>409</ele>
        <time>2019-07-06T17:38:10Z</time>
      </trkpt>
      <trkpt lat="48.28534" lon="5.09268">
        <ele>409.8</ele>
        <time>2019-07-06T17:38:14Z</time>
      </trkpt>
      <trkpt lat="48.2854" lon="5.09265">
        <ele>411.8</ele>
        <time>2019-07-06T17:38:18Z</time>
      </trkpt>
      <trkpt lat="48.28544" lon="5.0926">
        <ele>412.2</ele>
        <time>2019-07-06T17:38:22Z</time>
      </trkpt>
      <trkpt lat="48.28547" lon="5.09253">
        <ele>413.8</ele>
        <time>2019-07-06T17:38:26Z</time>
      </trkpt>
      <trkpt lat="48.28552" lon="5.09249">
        <ele>414.4</ele>
        <time>2019-07-06T17:38:30Z</time>
      </trkpt>
      <trkpt lat="48.28557" lon="5.0925">
        <ele>414.4</ele>
        <time>2019-07-06T17:38:34Z</time>
      </trkpt>
      <trkpt lat="48.28563" lon="5.0925">
        <ele>415</ele>
        <time>2019-07-06T17:38:38Z</time>
      </trkpt>
      <trkpt lat="48.28568" lon="5.09249">
        <ele>415.6</ele>
        <time>2019-07-06T17:38:42Z</time>
      </trkpt>
      <trkpt lat="48.28576" lon="5.09255">
        <ele>416.4</ele>
        <time>2019-07-06T17:38:46Z</time>
      </trkpt>
      <trkpt lat="48.28581" lon="5.0925">
        <ele>417</ele>
        <time>2019-07-06T17:38:50Z</time>
      </trkpt>
      <trkpt lat="48.28577" lon="5.09245">
        <ele>416.6</ele>
        <time>2019-07-06T17:38:54Z</time>
      </trkpt>
      <trkpt lat="48.28571" lon="5.09243">
        <ele>416.6</ele>
        <time>2019-07-06T17:38:58Z</time>
      </trkpt>
      <trkpt lat="48.28564" lon="5.09239">
        <ele>416.4</ele>
        <time>2019-07-06T17:39:02Z</time>
      </trkpt>
      <trkpt lat="48.28556" lon="5.09236">
        <ele>416.8</ele>
        <time>2019-07-06T17:39:06Z</time>
      </trkpt>
      <trkpt lat="48.28548" lon="5.0923">
        <ele>416.2</ele>
        <time>2019-07-06T17:39:10Z</time>
      </trkpt>
      <trkpt lat="48.2854" lon="5.09222">
        <ele>416.2</ele>
        <time>2019-07-06T17:39:14Z</time>
      </trkpt>
      <trkpt lat="48.28534" lon="5.09209">
        <ele>416.2</ele>
        <time>2019-07-06T17:39:18Z</time>
      </trkpt>
      <trkpt lat="48.28531" lon="5.09196">
        <ele>417.4</ele>
        <time>2019-07-06T17:39:22Z</time>
      </trkpt>
      <trkpt lat="48.28527" lon="5.09189">
        <ele>416.4</ele>
        <time>2019-07-06T17:39:26Z</time>
      </trkpt>
      <trkpt lat="48.28522" lon="5.09181">
        <ele>417.4</ele>
        <time>2019-07-06T17:39:30Z</time>
      </trkpt>
      <trkpt lat="48.28521" lon="5.09172">
        <ele>418.4</ele>
        <time>2019-07-06T17:39:34Z</time>
      </trkpt>
      <trkpt lat="48.28521" lon="5.09159">
        <ele>419.4</ele>
        <time>2019-07-06T17:39:38Z</time>
      </trkpt>
      <trkpt lat="48.28525" lon="5.09154">
        <ele>419.2</ele>
        <time>2019-07-06T17:39:42Z</time>
      </trkpt>
      <trkpt lat="48.2853" lon="5.09149">
        <ele>420.2</ele>
        <time>2019-07-06T17:39:46Z</time>
      </trkpt>
      <trkpt lat="48.28539" lon="5.09142">
        <ele>420.4</ele>
        <time>2019-07-06T17:39:50Z</time>
      </trkpt>
      <trkpt lat="48.28537" lon="5.09133">
        <ele>420.6</ele>
        <time>2019-07-06T17:39:54Z</time>
      </trkpt>
      <trkpt lat="48.28531" lon="5.09126">
        <ele>420.6</ele>
        <time>2019-07-06T17:39:58Z</time>
      </trkpt>
      <trkpt lat="48.28527" lon="5.09117">
        <ele>419.8</ele>
        <time>2019-07-06T17:40:02Z</time>
      </trkpt>
      <trkpt lat="48.2852" lon="5.0912">
        <ele>420.8</ele>
        <time>2019-07-06T17:40:06Z</time>
      </trkpt>
      <trkpt lat="48.28514" lon="5.09123">
        <ele>420.2</ele>
        <time>2019-07-06T17:40:10Z</time>
      </trkpt>
      <trkpt lat="48.28499" lon="5.0912">
        <ele>419.4</ele>
        <time>2019-07-06T17:40:14Z</time>
      </trkpt>
      <trkpt lat="48.28492" lon="5.0911">
        <ele>419.4</ele>
        <time>2019-07-06T17:40:18Z</time>
      </trkpt>
      <trkpt lat="48.2849" lon="5.09096">
        <ele>420</ele>
        <time>2019-07-06T17:40:22Z</time>
      </trkpt>
      <trkpt lat="48.28489" lon="5.09087">
        <ele>420</ele>
        <time>2019-07-06T17:40:26Z</time>
      </trkpt>
      <trkpt lat="48.28486" lon="5.09081">
        <ele>420.4</ele>
        <time>2019-07-06T17:40:30Z</time>
      </trkpt>
      <trkpt lat="48.28477" lon="5.09076">
        <ele>419.4</ele>
        <time>2019-07-06T17:40:34Z</time>
      </trkpt>
      <trkpt lat="48.28472" lon="5.09069">
        <ele>419</ele>
        <time>2019-07-06T17:40:38Z</time>
      </trkpt>
      <trkpt lat="48.28466" lon="5.09063">
        <ele>419.4</ele>
        <time>2019-07-06T17:40:42Z</time>
      </trkpt>
      <trkpt lat="48.28462" lon="5.09053">
        <ele>419.4</ele>
        <time>2019-07-06T17:40:46Z</time>
      </trkpt>
      <trkpt lat="48.28457" lon="5.0904">
        <ele>418.8</ele>
        <time>2019-07-06T17:40:50Z</time>
      </trkpt>
      <trkpt lat="48.28452" lon="5.09024">
        <ele>418.8</ele>
        <time>2019-07-06T17:40:54Z</time>
      </trkpt>
      <trkpt lat="48.28447" lon="5.09008">
        <ele>418.2</ele>
        <time>2019-07-06T17:40:58Z</time>
      </trkpt>
      <trkpt lat="48.28445" lon="5.08993">
        <ele>419.2</ele>
        <time>2019-07-06T17:41:02Z</time>
      </trkpt>
      <trkpt lat="48.28444" lon="5.08982">
        <ele>419</ele>
        <time>2019-07-06T17:41:06Z</time>
      </trkpt>
      <trkpt lat="48.28441" lon="5.08969">
        <ele>418.4</ele>
        <time>2019-07-06T17:41:10Z</time>
      </trkpt>
      <trkpt lat="48.28438" lon="5.08953">
        <ele>418</ele>
        <time>2019-07-06T17:41:14Z</time>
      </trkpt>
      <trkpt lat="48.28438" lon="5.08935">
        <ele>418.8</ele>
        <time>2019-07-06T17:41:18Z</time>
      </trkpt>
      <trkpt lat="48.28439" lon="5.08921">
        <ele>418.8</ele>
        <time>2019-07-06T17:41:22Z</time>
      </trkpt>
      <trkpt lat="48.28442" lon="5.08904">
        <ele>418.8</ele>
        <time>2019-07-06T17:41:26Z</time>
      </trkpt>
      <trkpt lat="48.28444" lon="5.08891">
        <ele>418.8</ele>
        <time>2019-07-06T17:41:30Z</time>
      </trkpt>
      <trkpt lat="48.28442" lon="5.08874">
        <ele>418.8</ele>
        <time>2019-07-06T17:41:34Z</time>
      </trkpt>
      <trkpt lat="48.28442" lon="5.08874">
        <ele>418.8</ele>
        <time>2019-07-06T17:41:38Z</time>
      </trkpt>
      <trkpt lat="48.2844" lon="5.08868">
        <ele>420</ele>
        <time>2019-07-06T17:41:42Z</time>
      </trkpt>
      <trkpt lat="48.28443" lon="5.08861">
        <ele>419.6</ele>
        <time>2019-07-06T17:41:46Z</time>
      </trkpt>
      <trkpt lat="48.28447" lon="5.08846">
        <ele>418.2</ele>
        <time>2019-07-06T17:41:50Z</time>
      </trkpt>
      <trkpt lat="48.28444" lon="5.08834">
        <ele>417.4</ele>
        <time>2019-07-06T17:41:54Z</time>
      </trkpt>
      <trkpt lat="48.28437" lon="5.0883">
        <ele>416.4</ele>
        <time>2019-07-06T17:41:58Z</time>
      </trkpt>
      <trkpt lat="48.28425" lon="5.0883">
        <ele>417</ele>
        <time>2019-07-06T17:42:02Z</time>
      </trkpt>
      <trkpt lat="48.28415" lon="5.08831">
        <ele>417.4</ele>
        <time>2019-07-06T17:42:06Z</time>
      </trkpt>
      <trkpt lat="48.28413" lon="5.08829">
        <ele>417.6</ele>
        <time>2019-07-06T17:42:10Z</time>
      </trkpt>
      <trkpt lat="48.28415" lon="5.08825">
        <ele>418.2</ele>
        <time>2019-07-06T17:42:14Z</time>
      </trkpt>
      <trkpt lat="48.28417" lon="5.08821">
        <ele>418.8</ele>
        <time>2019-07-06T17:42:18Z</time>
      </trkpt>
      <trkpt lat="48.2842" lon="5.08821">
        <ele>418.8</ele>
        <time>2019-07-06T17:42:22Z</time>
      </trkpt>
      <trkpt lat="48.28423" lon="5.08819">
        <ele>420</ele>
        <time>2019-07-06T17:42:26Z</time>
      </trkpt>
      <trkpt lat="48.28423" lon="5.08819">
        <ele>420</ele>
        <time>2019-07-06T17:42:30Z</time>
      </trkpt>
      <trkpt lat="48.28423" lon="5.08819">
        <ele>420</ele>
        <time>2019-07-06T17:42:34Z</time>
      </trkpt>
      <trkpt lat="48.28423" lon="5.08819">
        <ele>420</ele>
        <time>2019-07-06T17:42:38Z</time>
      </trkpt>
      <trkpt lat="48.28424" lon="5.08816">
        <ele>420.2</ele>
        <time>2019-07-06T17:42:42Z</time>
      </trkpt>
      <trkpt lat="48.28431" lon="5.08806">
        <ele>418.2</ele>
        <time>2019-07-06T17:42:46Z</time>
      </trkpt>
      <trkpt lat="48.28438" lon="5.08799">
        <ele>419.6</ele>
        <time>2019-07-06T17:42:50Z</time>
      </trkpt>
      <trkpt lat="48.28437" lon="5.08786">
        <ele>419.6</ele>
        <time>2019-07-06T17:42:54Z</time>
      </trkpt>
      <trkpt lat="48.28429" lon="5.08776">
        <ele>419.6</ele>
        <time>2019-07-06T17:42:58Z</time>
      </trkpt>
      <trkpt lat="48.28429" lon="5.08763">
        <ele>418.8</ele>
        <time>2019-07-06T17:43:02Z</time>
      </trkpt>
      <trkpt lat="48.28439" lon="5.08751">
        <ele>419.2</ele>
        <time>2019-07-06T17:43:06Z</time>
      </trkpt>
      <trkpt lat="48.2845" lon="5.08735">
        <ele>419.2</ele>
        <time>2019-07-06T17:43:10Z</time>
      </trkpt>
      <trkpt lat="48.28459" lon="5.08721">
        <ele>418.2</ele>
        <time>2019-07-06T17:43:14Z</time>
      </trkpt>
      <trkpt lat="48.28457" lon="5.08707">
        <ele>418.2</ele>
        <time>2019-07-06T17:43:18Z</time>
      </trkpt>
      <trkpt lat="48.28454" lon="5.08686">
        <ele>416.2</ele>
        <time>2019-07-06T17:43:22Z</time>
      </trkpt>
      <trkpt lat="48.2846" lon="5.08655">
        <ele>415.2</ele>
        <time>2019-07-06T17:43:26Z</time>
      </trkpt>
      <trkpt lat="48.28468" lon="5.0862">
        <ele>411.6</ele>
        <time>2019-07-06T17:43:30Z</time>
      </trkpt>
      <trkpt lat="48.28476" lon="5.08594">
        <ele>412.6</ele>
        <time>2019-07-06T17:43:34Z</time>
      </trkpt>
      <trkpt lat="48.28482" lon="5.08575">
        <ele>415.2</ele>
        <time>2019-07-06T17:43:38Z</time>
      </trkpt>
      <trkpt lat="48.28484" lon="5.08562">
        <ele>415.8</ele>
        <time>2019-07-06T17:43:42Z</time>
      </trkpt>
      <trkpt lat="48.28485" lon="5.08547">
        <ele>415.8</ele>
        <time>2019-07-06T17:43:46Z</time>
      </trkpt>
      <trkpt lat="48.28484" lon="5.08527">
        <ele>415.8</ele>
        <time>2019-07-06T17:43:50Z</time>
      </trkpt>
      <trkpt lat="48.28479" lon="5.08507">
        <ele>414.8</ele>
        <time>2019-07-06T17:43:54Z</time>
      </trkpt>
      <trkpt lat="48.28482" lon="5.08489">
        <ele>414.8</ele>
        <time>2019-07-06T17:43:58Z</time>
      </trkpt>
      <trkpt lat="48.28486" lon="5.08472">
        <ele>414.8</ele>
        <time>2019-07-06T17:44:02Z</time>
      </trkpt>
      <trkpt lat="48.28482" lon="5.08461">
        <ele>415.2</ele>
        <time>2019-07-06T17:44:06Z</time>
      </trkpt>
      <trkpt lat="48.28481" lon="5.08445">
        <ele>414.6</ele>
        <time>2019-07-06T17:44:10Z</time>
      </trkpt>
      <trkpt lat="48.28483" lon="5.08428">
        <ele>414.6</ele>
        <time>2019-07-06T17:44:14Z</time>
      </trkpt>
      <trkpt lat="48.28485" lon="5.08414">
        <ele>414</ele>
        <time>2019-07-06T17:44:18Z</time>
      </trkpt>
      <trkpt lat="48.28484" lon="5.08413">
        <ele>413.6</ele>
        <time>2019-07-06T17:44:22Z</time>
      </trkpt>
      <trkpt lat="48.28488" lon="5.08404">
        <ele>414.6</ele>
        <time>2019-07-06T17:44:26Z</time>
      </trkpt>
      <trkpt lat="48.28491" lon="5.08392">
        <ele>413.6</ele>
        <time>2019-07-06T17:44:30Z</time>
      </trkpt>
      <trkpt lat="48.28495" lon="5.08376">
        <ele>413</ele>
        <time>2019-07-06T17:44:34Z</time>
      </trkpt>
      <trkpt lat="48.28499" lon="5.08362">
        <ele>414</ele>
        <time>2019-07-06T17:44:38Z</time>
      </trkpt>
      <trkpt lat="48.28496" lon="5.08348">
        <ele>413.8</ele>
        <time>2019-07-06T17:44:42Z</time>
      </trkpt>
      <trkpt lat="48.2849" lon="5.08337">
        <ele>414</ele>
        <time>2019-07-06T17:44:46Z</time>
      </trkpt>
      <trkpt lat="48.28482" lon="5.08326">
        <ele>414</ele>
        <time>2019-07-06T17:44:50Z</time>
      </trkpt>
      <trkpt lat="48.28476" lon="5.08316">
        <ele>414</ele>
        <time>2019-07-06T17:44:54Z</time>
      </trkpt>
      <trkpt lat="48.28473" lon="5.08308">
        <ele>415.8</ele>
        <time>2019-07-06T17:44:58Z</time>
      </trkpt>
      <trkpt lat="48.28464" lon="5.08302">
        <ele>415.8</ele>
        <time>2019-07-06T17:45:02Z</time>
      </trkpt>
      <trkpt lat="48.28457" lon="5.08287">
        <ele>415.8</ele>
        <time>2019-07-06T17:45:06Z</time>
      </trkpt>
      <trkpt lat="48.28456" lon="5.08276">
        <ele>415.8</ele>
        <time>2019-07-06T17:45:10Z</time>
      </trkpt>
      <trkpt lat="48.2845" lon="5.08263">
        <ele>414.2</ele>
        <time>2019-07-06T17:45:14Z</time>
      </trkpt>
      <trkpt lat="48.28441" lon="5.08253">
        <ele>415.2</ele>
        <time>2019-07-06T17:45:18Z</time>
      </trkpt>
      <trkpt lat="48.28438" lon="5.08236">
        <ele>414.8</ele>
        <time>2019-07-06T17:45:22Z</time>
      </trkpt>
      <trkpt lat="48.28434" lon="5.08226">
        <ele>415.2</ele>
        <time>2019-07-06T17:45:26Z</time>
      </trkpt>
      <trkpt lat="48.28425" lon="5.08219">
        <ele>414.2</ele>
        <time>2019-07-06T17:45:30Z</time>
      </trkpt>
      <trkpt lat="48.28417" lon="5.08202">
        <ele>413.4</ele>
        <time>2019-07-06T17:45:34Z</time>
      </trkpt>
      <trkpt lat="48.28412" lon="5.08183">
        <ele>414.4</ele>
        <time>2019-07-06T17:45:38Z</time>
      </trkpt>
      <trkpt lat="48.2841" lon="5.08166">
        <ele>413.4</ele>
        <time>2019-07-06T17:45:42Z</time>
      </trkpt>
      <trkpt lat="48.28403" lon="5.08152">
        <ele>414.2</ele>
        <time>2019-07-06T17:45:46Z</time>
      </trkpt>
      <trkpt lat="48.28395" lon="5.08139">
        <ele>412.6</ele>
        <time>2019-07-06T17:45:50Z</time>
      </trkpt>
      <trkpt lat="48.28392" lon="5.08121">
        <ele>413.2</ele>
        <time>2019-07-06T17:45:54Z</time>
      </trkpt>
      <trkpt lat="48.28388" lon="5.08102">
        <ele>412.2</ele>
        <time>2019-07-06T17:45:58Z</time>
      </trkpt>
      <trkpt lat="48.28387" lon="5.08082">
        <ele>411.6</ele>
        <time>2019-07-06T17:46:02Z</time>
      </trkpt>
      <trkpt lat="48.28391" lon="5.08061">
        <ele>411.2</ele>
        <time>2019-07-06T17:46:06Z</time>
      </trkpt>
      <trkpt lat="48.28397" lon="5.08047">
        <ele>410.2</ele>
        <time>2019-07-06T17:46:10Z</time>
      </trkpt>
      <trkpt lat="48.28398" lon="5.0803">
        <ele>411.4</ele>
        <time>2019-07-06T17:46:14Z</time>
      </trkpt>
      <trkpt lat="48.28401" lon="5.08012">
        <ele>410.8</ele>
        <time>2019-07-06T17:46:18Z</time>
      </trkpt>
      <trkpt lat="48.28402" lon="5.07997">
        <ele>412.2</ele>
        <time>2019-07-06T17:46:22Z</time>
      </trkpt>
      <trkpt lat="48.284" lon="5.07984">
        <ele>412.2</ele>
        <time>2019-07-06T17:46:26Z</time>
      </trkpt>
      <trkpt lat="48.28396" lon="5.07971">
        <ele>412.2</ele>
        <time>2019-07-06T17:46:30Z</time>
      </trkpt>
      <trkpt lat="48.28396" lon="5.07971">
        <ele>412.2</ele>
        <time>2019-07-06T17:46:34Z</time>
      </trkpt>
      <trkpt lat="48.28396" lon="5.07971">
        <ele>412.2</ele>
        <time>2019-07-06T17:46:38Z</time>
      </trkpt>
      <trkpt lat="48.28396" lon="5.07971">
        <ele>412.2</ele>
        <time>2019-07-06T17:46:42Z</time>
      </trkpt>
      <trkpt lat="48.28396" lon="5.07971">
        <ele>412.2</ele>
        <time>2019-07-06T17:46:46Z</time>
      </trkpt>
      <trkpt lat="48.28396" lon="5.07971">
        <ele>412.2</ele>
        <time>2019-07-06T17:46:50Z</time>
      </trkpt>
      <trkpt lat="48.28396" lon="5.07971">
        <ele>412.2</ele>
        <time>2019-07-06T17:46:54Z</time>
      </trkpt>
      <trkpt lat="48.28396" lon="5.07971">
        <ele>412.2</ele>
        <time>2019-07-06T17:46:58Z</time>
      </trkpt>
      <trkpt lat="48.28396" lon="5.07971">
        <ele>412.2</ele>
        <time>2019-07-06T17:47:02Z</time>
      </trkpt>
      <trkpt lat="48.28396" lon="5.07971">
        <ele>412.2</ele>
        <time>2019-07-06T17:47:06Z</time>
      </trkpt>
      <trkpt lat="48.28396" lon="5.07971">
        <ele>412.2</ele>
        <time>2019-07-06T17:47:10Z</time>
      </trkpt>
      <trkpt lat="48.28393" lon="5.07965">
        <ele>411.6</ele>
        <time>2019-07-06T17:47:14Z</time>
      </trkpt>
      <trkpt lat="48.2838" lon="5.07964">
        <ele>410</ele>
        <time>2019-07-06T17:47:18Z</time>
      </trkpt>
      <trkpt lat="48.28363" lon="5.07962">
        <ele>410</ele>
        <time>2019-07-06T17:47:22Z</time>
      </trkpt>
      <trkpt lat="48.2835" lon="5.07953">
        <ele>409.6</ele>
        <time>2019-07-06T17:47:26Z</time>
      </trkpt>
      <trkpt lat="48.28344" lon="5.07955">
        <ele>408.4</ele>
        <time>2019-07-06T17:47:30Z</time>
      </trkpt>
      <trkpt lat="48.28338" lon="5.07947">
        <ele>408.4</ele>
        <time>2019-07-06T17:47:34Z</time>
      </trkpt>
      <trkpt lat="48.28333" lon="5.07941">
        <ele>409.4</ele>
        <time>2019-07-06T17:47:38Z</time>
      </trkpt>
      <trkpt lat="48.28324" lon="5.07937">
        <ele>408.8</ele>
        <time>2019-07-06T17:47:42Z</time>
      </trkpt>
      <trkpt lat="48.28316" lon="5.07919">
        <ele>409.6</ele>
        <time>2019-07-06T17:47:46Z</time>
      </trkpt>
      <trkpt lat="48.28307" lon="5.07907">
        <ele>408.6</ele>
        <time>2019-07-06T17:47:50Z</time>
      </trkpt>
      <trkpt lat="48.28297" lon="5.07888">
        <ele>409.6</ele>
        <time>2019-07-06T17:47:54Z</time>
      </trkpt>
      <trkpt lat="48.28291" lon="5.07869">
        <ele>409.8</ele>
        <time>2019-07-06T17:47:58Z</time>
      </trkpt>
      <trkpt lat="48.28286" lon="5.07855">
        <ele>409.2</ele>
        <time>2019-07-06T17:48:02Z</time>
      </trkpt>
      <trkpt lat="48.2828" lon="5.07839">
        <ele>409.2</ele>
        <time>2019-07-06T17:48:06Z</time>
      </trkpt>
      <trkpt lat="48.28273" lon="5.07819">
        <ele>408.6</ele>
        <time>2019-07-06T17:48:10Z</time>
      </trkpt>
      <trkpt lat="48.28265" lon="5.07793">
        <ele>407.6</ele>
        <time>2019-07-06T17:48:14Z</time>
      </trkpt>
      <trkpt lat="48.2826" lon="5.07769">
        <ele>408.6</ele>
        <time>2019-07-06T17:48:18Z</time>
      </trkpt>
      <trkpt lat="48.28254" lon="5.07748">
        <ele>409</ele>
        <time>2019-07-06T17:48:22Z</time>
      </trkpt>
      <trkpt lat="48.28249" lon="5.07732">
        <ele>409</ele>
        <time>2019-07-06T17:48:26Z</time>
      </trkpt>
      <trkpt lat="48.28242" lon="5.07716">
        <ele>409.4</ele>
        <time>2019-07-06T17:48:30Z</time>
      </trkpt>
      <trkpt lat="48.28235" lon="5.07701">
        <ele>408.8</ele>
        <time>2019-07-06T17:48:34Z</time>
      </trkpt>
      <trkpt lat="48.28229" lon="5.07682">
        <ele>407.8</ele>
        <time>2019-07-06T17:48:38Z</time>
      </trkpt>
      <trkpt lat="48.28221" lon="5.07671">
        <ele>408.4</ele>
        <time>2019-07-06T17:48:42Z</time>
      </trkpt>
      <trkpt lat="48.28216" lon="5.07654">
        <ele>408.4</ele>
        <time>2019-07-06T17:48:46Z</time>
      </trkpt>
      <trkpt lat="48.28212" lon="5.07631">
        <ele>407</ele>
        <time>2019-07-06T17:48:50Z</time>
      </trkpt>
      <trkpt lat="48.28205" lon="5.07612">
        <ele>407</ele>
        <time>2019-07-06T17:48:54Z</time>
      </trkpt>
      <trkpt lat="48.28201" lon="5.07592">
        <ele>408.2</ele>
        <time>2019-07-06T17:48:58Z</time>
      </trkpt>
      <trkpt lat="48.28194" lon="5.0758">
        <ele>408.2</ele>
        <time>2019-07-06T17:49:02Z</time>
      </trkpt>
      <trkpt lat="48.28189" lon="5.07562">
        <ele>408.2</ele>
        <time>2019-07-06T17:49:06Z</time>
      </trkpt>
      <trkpt lat="48.28187" lon="5.07546">
        <ele>409.2</ele>
        <time>2019-07-06T17:49:10Z</time>
      </trkpt>
      <trkpt lat="48.28184" lon="5.07532">
        <ele>407</ele>
        <time>2019-07-06T17:49:14Z</time>
      </trkpt>
      <trkpt lat="48.28185" lon="5.07514">
        <ele>407</ele>
        <time>2019-07-06T17:49:18Z</time>
      </trkpt>
      <trkpt lat="48.28189" lon="5.07501">
        <ele>407</ele>
        <time>2019-07-06T17:49:22Z</time>
      </trkpt>
      <trkpt lat="48.28192" lon="5.0749">
        <ele>407.8</ele>
        <time>2019-07-06T17:49:26Z</time>
      </trkpt>
      <trkpt lat="48.28194" lon="5.07476">
        <ele>408.8</ele>
        <time>2019-07-06T17:49:30Z</time>
      </trkpt>
      <trkpt lat="48.28199" lon="5.07468">
        <ele>409.2</ele>
        <time>2019-07-06T17:49:34Z</time>
      </trkpt>
      <trkpt lat="48.28202" lon="5.07461">
        <ele>410</ele>
        <time>2019-07-06T17:49:38Z</time>
      </trkpt>
      <trkpt lat="48.28206" lon="5.07457">
        <ele>410.4</ele>
        <time>2019-07-06T17:49:42Z</time>
      </trkpt>
      <trkpt lat="48.28206" lon="5.07451">
        <ele>409.8</ele>
        <time>2019-07-06T17:49:46Z</time>
      </trkpt>
      <trkpt lat="48.28206" lon="5.0744">
        <ele>410</ele>
        <time>2019-07-06T17:49:50Z</time>
      </trkpt>
      <trkpt lat="48.28204" lon="5.07428">
        <ele>410.4</ele>
        <time>2019-07-06T17:49:54Z</time>
      </trkpt>
      <trkpt lat="48.28199" lon="5.07415">
        <ele>410.2</ele>
        <time>2019-07-06T17:49:58Z</time>
      </trkpt>
      <trkpt lat="48.28199" lon="5.07404">
        <ele>411</ele>
        <time>2019-07-06T17:50:02Z</time>
      </trkpt>
      <trkpt lat="48.28195" lon="5.07393">
        <ele>411.2</ele>
        <time>2019-07-06T17:50:06Z</time>
      </trkpt>
      <trkpt lat="48.28193" lon="5.07382">
        <ele>411.8</ele>
        <time>2019-07-06T17:50:10Z</time>
      </trkpt>
      <trkpt lat="48.28187" lon="5.07372">
        <ele>411.6</ele>
        <time>2019-07-06T17:50:14Z</time>
      </trkpt>
      <trkpt lat="48.28179" lon="5.07364">
        <ele>412</ele>
        <time>2019-07-06T17:50:18Z</time>
      </trkpt>
      <trkpt lat="48.2817" lon="5.07356">
        <ele>412</ele>
        <time>2019-07-06T17:50:22Z</time>
      </trkpt>
      <trkpt lat="48.28163" lon="5.07344">
        <ele>413</ele>
        <time>2019-07-06T17:50:26Z</time>
      </trkpt>
      <trkpt lat="48.28156" lon="5.07333">
        <ele>412.8</ele>
        <time>2019-07-06T17:50:30Z</time>
      </trkpt>
      <trkpt lat="48.28152" lon="5.0732">
        <ele>412.4</ele>
        <time>2019-07-06T17:50:34Z</time>
      </trkpt>
      <trkpt lat="48.28147" lon="5.07308">
        <ele>413</ele>
        <time>2019-07-06T17:50:38Z</time>
      </trkpt>
      <trkpt lat="48.28137" lon="5.073">
        <ele>413</ele>
        <time>2019-07-06T17:50:42Z</time>
      </trkpt>
      <trkpt lat="48.28127" lon="5.07287">
        <ele>413.8</ele>
        <time>2019-07-06T17:50:46Z</time>
      </trkpt>
      <trkpt lat="48.28117" lon="5.07296">
        <ele>411.8</ele>
        <time>2019-07-06T17:50:50Z</time>
      </trkpt>
      <trkpt lat="48.28115" lon="5.07315">
        <ele>411.4</ele>
        <time>2019-07-06T17:50:54Z</time>
      </trkpt>
      <trkpt lat="48.28111" lon="5.07329">
        <ele>410.6</ele>
        <time>2019-07-06T17:50:58Z</time>
      </trkpt>
      <trkpt lat="48.28103" lon="5.07343">
        <ele>409.6</ele>
        <time>2019-07-06T17:51:02Z</time>
      </trkpt>
      <trkpt lat="48.28103" lon="5.07354">
        <ele>408.4</ele>
        <time>2019-07-06T17:51:06Z</time>
      </trkpt>
      <trkpt lat="48.28098" lon="5.07358">
        <ele>408.4</ele>
        <time>2019-07-06T17:51:10Z</time>
      </trkpt>
      <trkpt lat="48.2809" lon="5.07357">
        <ele>408.4</ele>
        <time>2019-07-06T17:51:14Z</time>
      </trkpt>
      <trkpt lat="48.28087" lon="5.07346">
        <ele>409.2</ele>
        <time>2019-07-06T17:51:18Z</time>
      </trkpt>
      <trkpt lat="48.2808" lon="5.07335">
        <ele>409.2</ele>
        <time>2019-07-06T17:51:22Z</time>
      </trkpt>
      <trkpt lat="48.28073" lon="5.07339">
        <ele>408.4</ele>
        <time>2019-07-06T17:51:26Z</time>
      </trkpt>
      <trkpt lat="48.28073" lon="5.07343">
        <ele>409.2</ele>
        <time>2019-07-06T17:51:30Z</time>
      </trkpt>
      <trkpt lat="48.28078" lon="5.0735">
        <ele>408.4</ele>
        <time>2019-07-06T17:51:34Z</time>
      </trkpt>
      <trkpt lat="48.2808" lon="5.0736">
        <ele>407.4</ele>
        <time>2019-07-06T17:51:38Z</time>
      </trkpt>
      <trkpt lat="48.28073" lon="5.07377">
        <ele>406.4</ele>
        <time>2019-07-06T17:51:42Z</time>
      </trkpt>
      <trkpt lat="48.28074" lon="5.07392">
        <ele>403.4</ele>
        <time>2019-07-06T17:51:46Z</time>
      </trkpt>
      <trkpt lat="48.28072" lon="5.07412">
        <ele>402.6</ele>
        <time>2019-07-06T17:51:50Z</time>
      </trkpt>
      <trkpt lat="48.28074" lon="5.07438">
        <ele>401.8</ele>
        <time>2019-07-06T17:51:54Z</time>
      </trkpt>
      <trkpt lat="48.2808" lon="5.07457">
        <ele>400.6</ele>
        <time>2019-07-06T17:51:58Z</time>
      </trkpt>
      <trkpt lat="48.28086" lon="5.07484">
        <ele>399.6</ele>
        <time>2019-07-06T17:52:02Z</time>
      </trkpt>
      <trkpt lat="48.28084" lon="5.07515">
        <ele>398.2</ele>
        <time>2019-07-06T17:52:06Z</time>
      </trkpt>
      <trkpt lat="48.28083" lon="5.07523">
        <ele>397.8</ele>
        <time>2019-07-06T17:52:10Z</time>
      </trkpt>
      <trkpt lat="48.28083" lon="5.07523">
        <ele>397.8</ele>
        <time>2019-07-06T17:52:14Z</time>
      </trkpt>
      <trkpt lat="48.28083" lon="5.07523">
        <ele>397.8</ele>
        <time>2019-07-06T17:52:18Z</time>
      </trkpt>
      <trkpt lat="48.28083" lon="5.07523">
        <ele>397.8</ele>
        <time>2019-07-06T17:52:22Z</time>
      </trkpt>
      <trkpt lat="48.28083" lon="5.07523">
        <ele>397.8</ele>
        <time>2019-07-06T17:52:26Z</time>
      </trkpt>
      <trkpt lat="48.28083" lon="5.07523">
        <ele>397.8</ele>
        <time>2019-07-06T17:52:30Z</time>
      </trkpt>
      <trkpt lat="48.28083" lon="5.07523">
        <ele>397.8</ele>
        <time>2019-07-06T17:52:34Z</time>
      </trkpt>
      <trkpt lat="48.28083" lon="5.07523">
        <ele>397.8</ele>
        <time>2019-07-06T17:52:38Z</time>
      </trkpt>
      <trkpt lat="48.28083" lon="5.07523">
        <ele>397.8</ele>
        <time>2019-07-06T17:52:42Z</time>
      </trkpt>
      <trkpt lat="48.28083" lon="5.07523">
        <ele>397.8</ele>
        <time>2019-07-06T17:52:46Z</time>
      </trkpt>
      <trkpt lat="48.28083" lon="5.07523">
        <ele>397.8</ele>
        <time>2019-07-06T17:52:50Z</time>
      </trkpt>
      <trkpt lat="48.28083" lon="5.07523">
        <ele>397.8</ele>
        <time>2019-07-06T17:52:54Z</time>
      </trkpt>
      <trkpt lat="48.28083" lon="5.07523">
        <ele>397.8</ele>
        <time>2019-07-06T17:52:58Z</time>
      </trkpt>
      <trkpt lat="48.28083" lon="5.07523">
        <ele>397.8</ele>
        <time>2019-07-06T17:53:02Z</time>
      </trkpt>
      <trkpt lat="48.28083" lon="5.07523">
        <ele>397.8</ele>
        <time>2019-07-06T17:53:06Z</time>
      </trkpt>
      <trkpt lat="48.28083" lon="5.07523">
        <ele>397.8</ele>
        <time>2019-07-06T17:53:10Z</time>
      </trkpt>
      <trkpt lat="48.28083" lon="5.07523">
        <ele>397.8</ele>
        <time>2019-07-06T17:53:14Z</time>
      </trkpt>
      <trkpt lat="48.28083" lon="5.07523">
        <ele>397.8</ele>
        <time>2019-07-06T17:53:18Z</time>
      </trkpt>
      <trkpt lat="48.28083" lon="5.07523">
        <ele>397.8</ele>
        <time>2019-07-06T17:53:22Z</time>
      </trkpt>
      <trkpt lat="48.28078" lon="5.07518">
        <ele>398</ele>
        <time>2019-07-06T17:53:26Z</time>
      </trkpt>
      <trkpt lat="48.28078" lon="5.07518">
        <ele>398</ele>
        <time>2019-07-06T17:53:30Z</time>
      </trkpt>
      <trkpt lat="48.28079" lon="5.07524">
        <ele>397.6</ele>
        <time>2019-07-06T17:53:34Z</time>
      </trkpt>
      <trkpt lat="48.28076" lon="5.07528">
        <ele>397.6</ele>
        <time>2019-07-06T17:53:38Z</time>
      </trkpt>
      <trkpt lat="48.28075" lon="5.07517">
        <ele>397.8</ele>
        <time>2019-07-06T17:53:42Z</time>
      </trkpt>
      <trkpt lat="48.28073" lon="5.07505">
        <ele>399.2</ele>
        <time>2019-07-06T17:53:46Z</time>
      </trkpt>
      <trkpt lat="48.28071" lon="5.07495">
        <ele>399.2</ele>
        <time>2019-07-06T17:53:50Z</time>
      </trkpt>
      <trkpt lat="48.28069" lon="5.07486">
        <ele>400</ele>
        <time>2019-07-06T17:53:54Z</time>
      </trkpt>
      <trkpt lat="48.28067" lon="5.07477">
        <ele>400</ele>
        <time>2019-07-06T17:53:58Z</time>
      </trkpt>
      <trkpt lat="48.28065" lon="5.07469">
        <ele>400.8</ele>
        <time>2019-07-06T17:54:02Z</time>
      </trkpt>
      <trkpt lat="48.28062" lon="5.07457">
        <ele>400.8</ele>
        <time>2019-07-06T17:54:06Z</time>
      </trkpt>
      <trkpt lat="48.28061" lon="5.07446">
        <ele>402</ele>
        <time>2019-07-06T17:54:10Z</time>
      </trkpt>
      <trkpt lat="48.28058" lon="5.07438">
        <ele>402.4</ele>
        <time>2019-07-06T17:54:14Z</time>
      </trkpt>
      <trkpt lat="48.28056" lon="5.07427">
        <ele>402.8</ele>
        <time>2019-07-06T17:54:18Z</time>
      </trkpt>
      <trkpt lat="48.28055" lon="5.07418">
        <ele>403.8</ele>
        <time>2019-07-06T17:54:22Z</time>
      </trkpt>
      <trkpt lat="48.28053" lon="5.07409">
        <ele>404.2</ele>
        <time>2019-07-06T17:54:26Z</time>
      </trkpt>
      <trkpt lat="48.28052" lon="5.07398">
        <ele>404.2</ele>
        <time>2019-07-06T17:54:30Z</time>
      </trkpt>
      <trkpt lat="48.28052" lon="5.07387">
        <ele>404.8</ele>
        <time>2019-07-06T17:54:34Z</time>
      </trkpt>
      <trkpt lat="48.28051" lon="5.07376">
        <ele>405.2</ele>
        <time>2019-07-06T17:54:38Z</time>
      </trkpt>
      <trkpt lat="48.28051" lon="5.07365">
        <ele>406</ele>
        <time>2019-07-06T17:54:42Z</time>
      </trkpt>
      <trkpt lat="48.28051" lon="5.07355">
        <ele>406.8</ele>
        <time>2019-07-06T17:54:46Z</time>
      </trkpt>
      <trkpt lat="48.28051" lon="5.07344">
        <ele>407.2</ele>
        <time>2019-07-06T17:54:50Z</time>
      </trkpt>
      <trkpt lat="48.28052" lon="5.07332">
        <ele>407.8</ele>
        <time>2019-07-06T17:54:54Z</time>
      </trkpt>
      <trkpt lat="48.28052" lon="5.0732">
        <ele>408.4</ele>
        <time>2019-07-06T17:54:58Z</time>
      </trkpt>
      <trkpt lat="48.28053" lon="5.0731">
        <ele>408.4</ele>
        <time>2019-07-06T17:55:02Z</time>
      </trkpt>
      <trkpt lat="48.28053" lon="5.073">
        <ele>409.4</ele>
        <time>2019-07-06T17:55:06Z</time>
      </trkpt>
      <trkpt lat="48.28054" lon="5.07291">
        <ele>409.8</ele>
        <time>2019-07-06T17:55:10Z</time>
      </trkpt>
      <trkpt lat="48.28054" lon="5.0728">
        <ele>411</ele>
        <time>2019-07-06T17:55:14Z</time>
      </trkpt>
      <trkpt lat="48.28055" lon="5.0727">
        <ele>410.6</ele>
        <time>2019-07-06T17:55:18Z</time>
      </trkpt>
      <trkpt lat="48.28055" lon="5.0726">
        <ele>411.6</ele>
        <time>2019-07-06T17:55:22Z</time>
      </trkpt>
      <trkpt lat="48.28055" lon="5.07249">
        <ele>412.2</ele>
        <time>2019-07-06T17:55:26Z</time>
      </trkpt>
      <trkpt lat="48.28056" lon="5.07238">
        <ele>412.2</ele>
        <time>2019-07-06T17:55:30Z</time>
      </trkpt>
      <trkpt lat="48.28057" lon="5.07227">
        <ele>413.2</ele>
        <time>2019-07-06T17:55:34Z</time>
      </trkpt>
      <trkpt lat="48.28058" lon="5.07216">
        <ele>413.4</ele>
        <time>2019-07-06T17:55:38Z</time>
      </trkpt>
      <trkpt lat="48.28059" lon="5.07206">
        <ele>414.2</ele>
        <time>2019-07-06T17:55:42Z</time>
      </trkpt>
      <trkpt lat="48.28059" lon="5.07195">
        <ele>414.4</ele>
        <time>2019-07-06T17:55:46Z</time>
      </trkpt>
      <trkpt lat="48.28059" lon="5.07185">
        <ele>415</ele>
        <time>2019-07-06T17:55:50Z</time>
      </trkpt>
      <trkpt lat="48.28062" lon="5.07175">
        <ele>415.8</ele>
        <time>2019-07-06T17:55:54Z</time>
      </trkpt>
      <trkpt lat="48.28063" lon="5.07165">
        <ele>415.8</ele>
        <time>2019-07-06T17:55:58Z</time>
      </trkpt>
      <trkpt lat="48.28064" lon="5.07154">
        <ele>416.4</ele>
        <time>2019-07-06T17:56:02Z</time>
      </trkpt>
      <trkpt lat="48.28065" lon="5.07144">
        <ele>417</ele>
        <time>2019-07-06T17:56:06Z</time>
      </trkpt>
      <trkpt lat="48.28066" lon="5.07134">
        <ele>417</ele>
        <time>2019-07-06T17:56:10Z</time>
      </trkpt>
      <trkpt lat="48.28066" lon="5.07124">
        <ele>417.4</ele>
        <time>2019-07-06T17:56:14Z</time>
      </trkpt>
      <trkpt lat="48.28067" lon="5.07113">
        <ele>418.4</ele>
        <time>2019-07-06T17:56:18Z</time>
      </trkpt>
      <trkpt lat="48.28067" lon="5.07102">
        <ele>418.4</ele>
        <time>2019-07-06T17:56:22Z</time>
      </trkpt>
      <trkpt lat="48.28068" lon="5.07091">
        <ele>419</ele>
        <time>2019-07-06T17:56:26Z</time>
      </trkpt>
      <trkpt lat="48.28068" lon="5.07081">
        <ele>419.2</ele>
        <time>2019-07-06T17:56:30Z</time>
      </trkpt>
      <trkpt lat="48.28069" lon="5.0707">
        <ele>419.6</ele>
        <time>2019-07-06T17:56:34Z</time>
      </trkpt>
      <trkpt lat="48.28069" lon="5.07059">
        <ele>420.6</ele>
        <time>2019-07-06T17:56:38Z</time>
      </trkpt>
      <trkpt lat="48.28069" lon="5.07048">
        <ele>421.2</ele>
        <time>2019-07-06T17:56:42Z</time>
      </trkpt>
      <trkpt lat="48.28069" lon="5.07037">
        <ele>421.2</ele>
        <time>2019-07-06T17:56:46Z</time>
      </trkpt>
      <trkpt lat="48.28069" lon="5.07026">
        <ele>421.8</ele>
        <time>2019-07-06T17:56:50Z</time>
      </trkpt>
      <trkpt lat="48.28068" lon="5.07015">
        <ele>421.8</ele>
        <time>2019-07-06T17:56:54Z</time>
      </trkpt>
      <trkpt lat="48.28068" lon="5.07005">
        <ele>422</ele>
        <time>2019-07-06T17:56:58Z</time>
      </trkpt>
      <trkpt lat="48.28069" lon="5.06995">
        <ele>422</ele>
        <time>2019-07-06T17:57:02Z</time>
      </trkpt>
      <trkpt lat="48.28068" lon="5.06984">
        <ele>422</ele>
        <time>2019-07-06T17:57:06Z</time>
      </trkpt>
      <trkpt lat="48.2807" lon="5.06971">
        <ele>422.4</ele>
        <time>2019-07-06T17:57:10Z</time>
      </trkpt>
      <trkpt lat="48.28074" lon="5.0696">
        <ele>422.8</ele>
        <time>2019-07-06T17:57:14Z</time>
      </trkpt>
      <trkpt lat="48.28072" lon="5.06945">
        <ele>422.4</ele>
        <time>2019-07-06T17:57:18Z</time>
      </trkpt>
      <trkpt lat="48.28069" lon="5.06927">
        <ele>422.4</ele>
        <time>2019-07-06T17:57:22Z</time>
      </trkpt>
      <trkpt lat="48.28067" lon="5.06911">
        <ele>422.4</ele>
        <time>2019-07-06T17:57:26Z</time>
      </trkpt>
      <trkpt lat="48.28066" lon="5.06893">
        <ele>421.8</ele>
        <time>2019-07-06T17:57:30Z</time>
      </trkpt>
      <trkpt lat="48.28065" lon="5.06874">
        <ele>422.2</ele>
        <time>2019-07-06T17:57:34Z</time>
      </trkpt>
      <trkpt lat="48.28064" lon="5.06854">
        <ele>421.8</ele>
        <time>2019-07-06T17:57:38Z</time>
      </trkpt>
      <trkpt lat="48.28063" lon="5.06829">
        <ele>421.4</ele>
        <time>2019-07-06T17:57:42Z</time>
      </trkpt>
      <trkpt lat="48.28061" lon="5.06801">
        <ele>421.2</ele>
        <time>2019-07-06T17:57:46Z</time>
      </trkpt>
      <trkpt lat="48.2806" lon="5.06769">
        <ele>421.2</ele>
        <time>2019-07-06T17:57:50Z</time>
      </trkpt>
      <trkpt lat="48.28058" lon="5.06735">
        <ele>420.2</ele>
        <time>2019-07-06T17:57:54Z</time>
      </trkpt>
      <trkpt lat="48.28056" lon="5.06699">
        <ele>419</ele>
        <time>2019-07-06T17:57:58Z</time>
      </trkpt>
      <trkpt lat="48.28053" lon="5.06662">
        <ele>418.8</ele>
        <time>2019-07-06T17:58:02Z</time>
      </trkpt>
      <trkpt lat="48.28051" lon="5.06623">
        <ele>417.4</ele>
        <time>2019-07-06T17:58:06Z</time>
      </trkpt>
      <trkpt lat="48.28049" lon="5.06583">
        <ele>416.4</ele>
        <time>2019-07-06T17:58:10Z</time>
      </trkpt>
      <trkpt lat="48.28046" lon="5.06539">
        <ele>415.6</ele>
        <time>2019-07-06T17:58:14Z</time>
      </trkpt>
      <trkpt lat="48.28044" lon="5.06496">
        <ele>414.6</ele>
        <time>2019-07-06T17:58:18Z</time>
      </trkpt>
      <trkpt lat="48.28045" lon="5.06453">
        <ele>414.2</ele>
        <time>2019-07-06T17:58:22Z</time>
      </trkpt>
      <trkpt lat="48.28049" lon="5.06415">
        <ele>414.6</ele>
        <time>2019-07-06T17:58:26Z</time>
      </trkpt>
      <trkpt lat="48.28053" lon="5.06382">
        <ele>415.6</ele>
        <time>2019-07-06T17:58:30Z</time>
      </trkpt>
      <trkpt lat="48.28057" lon="5.06354">
        <ele>415.2</ele>
        <time>2019-07-06T17:58:34Z</time>
      </trkpt>
      <trkpt lat="48.28061" lon="5.06327">
        <ele>416.2</ele>
        <time>2019-07-06T17:58:38Z</time>
      </trkpt>
      <trkpt lat="48.28064" lon="5.06301">
        <ele>415.8</ele>
        <time>2019-07-06T17:58:42Z</time>
      </trkpt>
      <trkpt lat="48.28067" lon="5.06277">
        <ele>416</ele>
        <time>2019-07-06T17:58:46Z</time>
      </trkpt>
      <trkpt lat="48.2807" lon="5.06252">
        <ele>415.8</ele>
        <time>2019-07-06T17:58:50Z</time>
      </trkpt>
      <trkpt lat="48.28073" lon="5.06226">
        <ele>413.6</ele>
        <time>2019-07-06T17:58:54Z</time>
      </trkpt>
      <trkpt lat="48.28076" lon="5.06204">
        <ele>415.2</ele>
        <time>2019-07-06T17:58:58Z</time>
      </trkpt>
      <trkpt lat="48.28079" lon="5.06184">
        <ele>415.2</ele>
        <time>2019-07-06T17:59:02Z</time>
      </trkpt>
      <trkpt lat="48.28083" lon="5.06161">
        <ele>415.2</ele>
        <time>2019-07-06T17:59:06Z</time>
      </trkpt>
      <trkpt lat="48.28086" lon="5.06136">
        <ele>414.6</ele>
        <time>2019-07-06T17:59:10Z</time>
      </trkpt>
      <trkpt lat="48.28089" lon="5.0611">
        <ele>414.6</ele>
        <time>2019-07-06T17:59:14Z</time>
      </trkpt>
      <trkpt lat="48.28093" lon="5.06082">
        <ele>412.8</ele>
        <time>2019-07-06T17:59:18Z</time>
      </trkpt>
      <trkpt lat="48.28097" lon="5.06051">
        <ele>412.2</ele>
        <time>2019-07-06T17:59:22Z</time>
      </trkpt>
      <trkpt lat="48.28101" lon="5.06019">
        <ele>412.4</ele>
        <time>2019-07-06T17:59:26Z</time>
      </trkpt>
      <trkpt lat="48.28105" lon="5.05989">
        <ele>413.2</ele>
        <time>2019-07-06T17:59:30Z</time>
      </trkpt>
      <trkpt lat="48.28107" lon="5.05962">
        <ele>413.4</ele>
        <time>2019-07-06T17:59:34Z</time>
      </trkpt>
      <trkpt lat="48.28108" lon="5.05938">
        <ele>413.8</ele>
        <time>2019-07-06T17:59:38Z</time>
      </trkpt>
      <trkpt lat="48.28107" lon="5.05915">
        <ele>413.8</ele>
        <time>2019-07-06T17:59:42Z</time>
      </trkpt>
      <trkpt lat="48.28104" lon="5.05892">
        <ele>413.8</ele>
        <time>2019-07-06T17:59:46Z</time>
      </trkpt>
      <trkpt lat="48.281" lon="5.0587">
        <ele>414.4</ele>
        <time>2019-07-06T17:59:50Z</time>
      </trkpt>
      <trkpt lat="48.28096" lon="5.05848">
        <ele>414.4</ele>
        <time>2019-07-06T17:59:54Z</time>
      </trkpt>
      <trkpt lat="48.28092" lon="5.05827">
        <ele>414.6</ele>
        <time>2019-07-06T17:59:58Z</time>
      </trkpt>
      <trkpt lat="48.28087" lon="5.05806">
        <ele>414.8</ele>
        <time>2019-07-06T18:00:02Z</time>
      </trkpt>
      <trkpt lat="48.28083" lon="5.05784">
        <ele>414.8</ele>
        <time>2019-07-06T18:00:06Z</time>
      </trkpt>
      <trkpt lat="48.28078" lon="5.05763">
        <ele>414.8</ele>
        <time>2019-07-06T18:00:10Z</time>
      </trkpt>
      <trkpt lat="48.28074" lon="5.0574">
        <ele>412.8</ele>
        <time>2019-07-06T18:00:14Z</time>
      </trkpt>
      <trkpt lat="48.28069" lon="5.05715">
        <ele>413.8</ele>
        <time>2019-07-06T18:00:18Z</time>
      </trkpt>
      <trkpt lat="48.28063" lon="5.05692">
        <ele>413.8</ele>
        <time>2019-07-06T18:00:22Z</time>
      </trkpt>
      <trkpt lat="48.28058" lon="5.05668">
        <ele>413.4</ele>
        <time>2019-07-06T18:00:26Z</time>
      </trkpt>
      <trkpt lat="48.28052" lon="5.05643">
        <ele>413.4</ele>
        <time>2019-07-06T18:00:30Z</time>
      </trkpt>
      <trkpt lat="48.28047" lon="5.05618">
        <ele>413.4</ele>
        <time>2019-07-06T18:00:34Z</time>
      </trkpt>
      <trkpt lat="48.28042" lon="5.05593">
        <ele>413</ele>
        <time>2019-07-06T18:00:38Z</time>
      </trkpt>
      <trkpt lat="48.28036" lon="5.05568">
        <ele>413</ele>
        <time>2019-07-06T18:00:42Z</time>
      </trkpt>
      <trkpt lat="48.28031" lon="5.05544">
        <ele>413.2</ele>
        <time>2019-07-06T18:00:46Z</time>
      </trkpt>
      <trkpt lat="48.28026" lon="5.0552">
        <ele>413</ele>
        <time>2019-07-06T18:00:50Z</time>
      </trkpt>
      <trkpt lat="48.28021" lon="5.05495">
        <ele>413.4</ele>
        <time>2019-07-06T18:00:54Z</time>
      </trkpt>
      <trkpt lat="48.28015" lon="5.0547">
        <ele>413</ele>
        <time>2019-07-06T18:00:58Z</time>
      </trkpt>
      <trkpt lat="48.28011" lon="5.05445">
        <ele>412.8</ele>
        <time>2019-07-06T18:01:02Z</time>
      </trkpt>
      <trkpt lat="48.28007" lon="5.05419">
        <ele>412.8</ele>
        <time>2019-07-06T18:01:06Z</time>
      </trkpt>
      <trkpt lat="48.28004" lon="5.05392">
        <ele>412.6</ele>
        <time>2019-07-06T18:01:10Z</time>
      </trkpt>
      <trkpt lat="48.27996" lon="5.05369">
        <ele>412.8</ele>
        <time>2019-07-06T18:01:14Z</time>
      </trkpt>
      <trkpt lat="48.27979" lon="5.05358">
        <ele>413</ele>
        <time>2019-07-06T18:01:18Z</time>
      </trkpt>
      <trkpt lat="48.27962" lon="5.05352">
        <ele>413</ele>
        <time>2019-07-06T18:01:22Z</time>
      </trkpt>
      <trkpt lat="48.27946" lon="5.05349">
        <ele>413.6</ele>
        <time>2019-07-06T18:01:26Z</time>
      </trkpt>
      <trkpt lat="48.27932" lon="5.05343">
        <ele>413</ele>
        <time>2019-07-06T18:01:30Z</time>
      </trkpt>
      <trkpt lat="48.27917" lon="5.0534">
        <ele>412.8</ele>
        <time>2019-07-06T18:01:34Z</time>
      </trkpt>
      <trkpt lat="48.27901" lon="5.05347">
        <ele>413.4</ele>
        <time>2019-07-06T18:01:38Z</time>
      </trkpt>
      <trkpt lat="48.27885" lon="5.05354">
        <ele>413.4</ele>
        <time>2019-07-06T18:01:42Z</time>
      </trkpt>
      <trkpt lat="48.2787" lon="5.05363">
        <ele>413.6</ele>
        <time>2019-07-06T18:01:46Z</time>
      </trkpt>
      <trkpt lat="48.27855" lon="5.05373">
        <ele>414.4</ele>
        <time>2019-07-06T18:01:50Z</time>
      </trkpt>
      <trkpt lat="48.2784" lon="5.05381">
        <ele>414.4</ele>
        <time>2019-07-06T18:01:54Z</time>
      </trkpt>
      <trkpt lat="48.27825" lon="5.05387">
        <ele>414.4</ele>
        <time>2019-07-06T18:01:58Z</time>
      </trkpt>
      <trkpt lat="48.27818" lon="5.0539">
        <ele>414.6</ele>
        <time>2019-07-06T18:02:02Z</time>
      </trkpt>
      <trkpt lat="48.27824" lon="5.05393">
        <ele>414.6</ele>
        <time>2019-07-06T18:02:06Z</time>
      </trkpt>
      <trkpt lat="48.27832" lon="5.05384">
        <ele>414.6</ele>
        <time>2019-07-06T18:02:10Z</time>
      </trkpt>
      <trkpt lat="48.27836" lon="5.05394">
        <ele>414.6</ele>
        <time>2019-07-06T18:02:14Z</time>
      </trkpt>
      <trkpt lat="48.27829" lon="5.05408">
        <ele>415</ele>
        <time>2019-07-06T18:02:18Z</time>
      </trkpt>
      <trkpt lat="48.27823" lon="5.05424">
        <ele>415.4</ele>
        <time>2019-07-06T18:02:22Z</time>
      </trkpt>
      <trkpt lat="48.27822" lon="5.05443">
        <ele>415.8</ele>
        <time>2019-07-06T18:02:26Z</time>
      </trkpt>
      <trkpt lat="48.27824" lon="5.05462">
        <ele>416.2</ele>
        <time>2019-07-06T18:02:30Z</time>
      </trkpt>
      <trkpt lat="48.27824" lon="5.0548">
        <ele>416.2</ele>
        <time>2019-07-06T18:02:34Z</time>
      </trkpt>
      <trkpt lat="48.27821" lon="5.05497">
        <ele>417</ele>
        <time>2019-07-06T18:02:38Z</time>
      </trkpt>
      <trkpt lat="48.27821" lon="5.05513">
        <ele>417.6</ele>
        <time>2019-07-06T18:02:42Z</time>
      </trkpt>
      <trkpt lat="48.27823" lon="5.05527">
        <ele>418</ele>
        <time>2019-07-06T18:02:46Z</time>
      </trkpt>
      <trkpt lat="48.27825" lon="5.05541">
        <ele>418</ele>
        <time>2019-07-06T18:02:50Z</time>
      </trkpt>
      <trkpt lat="48.27827" lon="5.05555">
        <ele>418.2</ele>
        <time>2019-07-06T18:02:54Z</time>
      </trkpt>
      <trkpt lat="48.27824" lon="5.05565">
        <ele>419.2</ele>
        <time>2019-07-06T18:02:58Z</time>
      </trkpt>
      <trkpt lat="48.27823" lon="5.05569">
        <ele>419.2</ele>
        <time>2019-07-06T18:03:02Z</time>
      </trkpt>
      <trkpt lat="48.27821" lon="5.05574">
        <ele>420</ele>
        <time>2019-07-06T18:03:06Z</time>
      </trkpt>
      <trkpt lat="48.27821" lon="5.05574">
        <ele>420</ele>
        <time>2019-07-06T18:03:10Z</time>
      </trkpt>
      <trkpt lat="48.27821" lon="5.05574">
        <ele>420</ele>
        <time>2019-07-06T18:03:14Z</time>
      </trkpt>
      <trkpt lat="48.27821" lon="5.05581">
        <ele>420</ele>
        <time>2019-07-06T18:03:18Z</time>
      </trkpt>
      <trkpt lat="48.27822" lon="5.05585">
        <ele>420.2</ele>
        <time>2019-07-06T18:03:22Z</time>
      </trkpt>
      <trkpt lat="48.27822" lon="5.05585">
        <ele>420.2</ele>
        <time>2019-07-06T18:03:26Z</time>
      </trkpt>
      <trkpt lat="48.27823" lon="5.05589">
        <ele>421</ele>
        <time>2019-07-06T18:03:30Z</time>
      </trkpt>
      <trkpt lat="48.27824" lon="5.05593">
        <ele>421</ele>
        <time>2019-07-06T18:03:34Z</time>
      </trkpt>
      <trkpt lat="48.27826" lon="5.05598">
        <ele>421</ele>
        <time>2019-07-06T18:03:38Z</time>
      </trkpt>
      <trkpt lat="48.27827" lon="5.05603">
        <ele>422</ele>
        <time>2019-07-06T18:03:42Z</time>
      </trkpt>
      <trkpt lat="48.27825" lon="5.05609">
        <ele>421.8</ele>
        <time>2019-07-06T18:03:46Z</time>
      </trkpt>
      <trkpt lat="48.27825" lon="5.05616">
        <ele>422.4</ele>
        <time>2019-07-06T18:03:50Z</time>
      </trkpt>
      <trkpt lat="48.27823" lon="5.05621">
        <ele>422.2</ele>
        <time>2019-07-06T18:03:54Z</time>
      </trkpt>
      <trkpt lat="48.27822" lon="5.05624">
        <ele>422.4</ele>
        <time>2019-07-06T18:03:58Z</time>
      </trkpt>
      <trkpt lat="48.27822" lon="5.05621">
        <ele>422.4</ele>
        <time>2019-07-06T18:04:02Z</time>
      </trkpt>
      <trkpt lat="48.27825" lon="5.05614">
        <ele>422.4</ele>
        <time>2019-07-06T18:04:06Z</time>
      </trkpt>
      <trkpt lat="48.27822" lon="5.05599">
        <ele>420.6</ele>
        <time>2019-07-06T18:04:10Z</time>
      </trkpt>
      <trkpt lat="48.27812" lon="5.0559">
        <ele>420.8</ele>
        <time>2019-07-06T18:04:14Z</time>
      </trkpt>
      <trkpt lat="48.27804" lon="5.05587">
        <ele>421.6</ele>
        <time>2019-07-06T18:04:18Z</time>
      </trkpt>
      <trkpt lat="48.27798" lon="5.05585">
        <ele>422.6</ele>
        <time>2019-07-06T18:04:22Z</time>
      </trkpt>
      <trkpt lat="48.2779" lon="5.05587">
        <ele>422.8</ele>
        <time>2019-07-06T18:04:26Z</time>
      </trkpt>
      <trkpt lat="48.27782" lon="5.05587">
        <ele>423.6</ele>
        <time>2019-07-06T18:04:30Z</time>
      </trkpt>
      <trkpt lat="48.27775" lon="5.0559">
        <ele>424.6</ele>
        <time>2019-07-06T18:04:34Z</time>
      </trkpt>
      <trkpt lat="48.27766" lon="5.05585">
        <ele>424</ele>
        <time>2019-07-06T18:04:38Z</time>
      </trkpt>
      <trkpt lat="48.27756" lon="5.05576">
        <ele>423.4</ele>
        <time>2019-07-06T18:04:42Z</time>
      </trkpt>
      <trkpt lat="48.27748" lon="5.05574">
        <ele>423.4</ele>
        <time>2019-07-06T18:04:46Z</time>
      </trkpt>
      <trkpt lat="48.27744" lon="5.05573">
        <ele>423.6</ele>
        <time>2019-07-06T18:04:50Z</time>
      </trkpt>
      <trkpt lat="48.27737" lon="5.05565">
        <ele>423.6</ele>
        <time>2019-07-06T18:04:54Z</time>
      </trkpt>
      <trkpt lat="48.27729" lon="5.05561">
        <ele>422.4</ele>
        <time>2019-07-06T18:04:58Z</time>
      </trkpt>
      <trkpt lat="48.27711" lon="5.05554">
        <ele>420.8</ele>
        <time>2019-07-06T18:05:02Z</time>
      </trkpt>
      <trkpt lat="48.277" lon="5.05558">
        <ele>421.8</ele>
        <time>2019-07-06T18:05:06Z</time>
      </trkpt>
      <trkpt lat="48.27689" lon="5.0556">
        <ele>422</ele>
        <time>2019-07-06T18:05:10Z</time>
      </trkpt>
      <trkpt lat="48.27681" lon="5.05564">
        <ele>422.4</ele>
        <time>2019-07-06T18:05:14Z</time>
      </trkpt>
      <trkpt lat="48.27679" lon="5.05575">
        <ele>423.4</ele>
        <time>2019-07-06T18:05:18Z</time>
      </trkpt>
      <trkpt lat="48.27672" lon="5.0558">
        <ele>424</ele>
        <time>2019-07-06T18:05:22Z</time>
      </trkpt>
      <trkpt lat="48.27661" lon="5.05578">
        <ele>423</ele>
        <time>2019-07-06T18:05:26Z</time>
      </trkpt>
      <trkpt lat="48.27646" lon="5.05577">
        <ele>422.4</ele>
        <time>2019-07-06T18:05:30Z</time>
      </trkpt>
      <trkpt lat="48.27632" lon="5.05583">
        <ele>422.4</ele>
        <time>2019-07-06T18:05:34Z</time>
      </trkpt>
      <trkpt lat="48.27616" lon="5.05587">
        <ele>422.4</ele>
        <time>2019-07-06T18:05:38Z</time>
      </trkpt>
      <trkpt lat="48.27605" lon="5.0559">
        <ele>421.4</ele>
        <time>2019-07-06T18:05:42Z</time>
      </trkpt>
      <trkpt lat="48.27594" lon="5.05597">
        <ele>421.8</ele>
        <time>2019-07-06T18:05:46Z</time>
      </trkpt>
      <trkpt lat="48.27583" lon="5.05608">
        <ele>421.8</ele>
        <time>2019-07-06T18:05:50Z</time>
      </trkpt>
      <trkpt lat="48.27574" lon="5.05621">
        <ele>422.2</ele>
        <time>2019-07-06T18:05:54Z</time>
      </trkpt>
      <trkpt lat="48.27564" lon="5.05635">
        <ele>422.2</ele>
        <time>2019-07-06T18:05:58Z</time>
      </trkpt>
      <trkpt lat="48.27552" lon="5.05652">
        <ele>422.2</ele>
        <time>2019-07-06T18:06:02Z</time>
      </trkpt>
      <trkpt lat="48.27541" lon="5.05669">
        <ele>422.2</ele>
        <time>2019-07-06T18:06:06Z</time>
      </trkpt>
      <trkpt lat="48.2753" lon="5.05683">
        <ele>421.8</ele>
        <time>2019-07-06T18:06:10Z</time>
      </trkpt>
      <trkpt lat="48.2752" lon="5.05695">
        <ele>421.8</ele>
        <time>2019-07-06T18:06:14Z</time>
      </trkpt>
      <trkpt lat="48.27508" lon="5.05706">
        <ele>421.8</ele>
        <time>2019-07-06T18:06:18Z</time>
      </trkpt>
      <trkpt lat="48.27495" lon="5.05717">
        <ele>421.8</ele>
        <time>2019-07-06T18:06:22Z</time>
      </trkpt>
      <trkpt lat="48.27484" lon="5.05729">
        <ele>421.8</ele>
        <time>2019-07-06T18:06:26Z</time>
      </trkpt>
      <trkpt lat="48.27473" lon="5.05742">
        <ele>422.4</ele>
        <time>2019-07-06T18:06:30Z</time>
      </trkpt>
      <trkpt lat="48.27461" lon="5.05756">
        <ele>422.4</ele>
        <time>2019-07-06T18:06:34Z</time>
      </trkpt>
      <trkpt lat="48.27451" lon="5.05769">
        <ele>422.4</ele>
        <time>2019-07-06T18:06:38Z</time>
      </trkpt>
      <trkpt lat="48.27441" lon="5.05782">
        <ele>423</ele>
        <time>2019-07-06T18:06:42Z</time>
      </trkpt>
      <trkpt lat="48.27431" lon="5.05795">
        <ele>423</ele>
        <time>2019-07-06T18:06:46Z</time>
      </trkpt>
      <trkpt lat="48.2742" lon="5.05809">
        <ele>423</ele>
        <time>2019-07-06T18:06:50Z</time>
      </trkpt>
      <trkpt lat="48.2741" lon="5.05822">
        <ele>423.4</ele>
        <time>2019-07-06T18:06:54Z</time>
      </trkpt>
      <trkpt lat="48.27399" lon="5.05838">
        <ele>423.6</ele>
        <time>2019-07-06T18:06:58Z</time>
      </trkpt>
      <trkpt lat="48.27387" lon="5.05855">
        <ele>423.2</ele>
        <time>2019-07-06T18:07:02Z</time>
      </trkpt>
      <trkpt lat="48.27372" lon="5.05872">
        <ele>422.6</ele>
        <time>2019-07-06T18:07:06Z</time>
      </trkpt>
      <trkpt lat="48.27355" lon="5.05889">
        <ele>422.6</ele>
        <time>2019-07-06T18:07:10Z</time>
      </trkpt>
      <trkpt lat="48.27334" lon="5.05904">
        <ele>420</ele>
        <time>2019-07-06T18:07:14Z</time>
      </trkpt>
      <trkpt lat="48.27308" lon="5.0592">
        <ele>418</ele>
        <time>2019-07-06T18:07:18Z</time>
      </trkpt>
      <trkpt lat="48.27282" lon="5.05938">
        <ele>417.8</ele>
        <time>2019-07-06T18:07:22Z</time>
      </trkpt>
      <trkpt lat="48.27261" lon="5.05955">
        <ele>418.6</ele>
        <time>2019-07-06T18:07:26Z</time>
      </trkpt>
      <trkpt lat="48.27243" lon="5.05969">
        <ele>418.6</ele>
        <time>2019-07-06T18:07:30Z</time>
      </trkpt>
      <trkpt lat="48.27226" lon="5.05983">
        <ele>418</ele>
        <time>2019-07-06T18:07:34Z</time>
      </trkpt>
      <trkpt lat="48.2721" lon="5.05995">
        <ele>418</ele>
        <time>2019-07-06T18:07:38Z</time>
      </trkpt>
      <trkpt lat="48.27197" lon="5.06006">
        <ele>419.2</ele>
        <time>2019-07-06T18:07:42Z</time>
      </trkpt>
      <trkpt lat="48.27185" lon="5.06016">
        <ele>420.6</ele>
        <time>2019-07-06T18:07:46Z</time>
      </trkpt>
      <trkpt lat="48.27173" lon="5.06026">
        <ele>419.6</ele>
        <time>2019-07-06T18:07:50Z</time>
      </trkpt>
      <trkpt lat="48.27161" lon="5.06037">
        <ele>420.4</ele>
        <time>2019-07-06T18:07:54Z</time>
      </trkpt>
      <trkpt lat="48.27147" lon="5.06049">
        <ele>420.4</ele>
        <time>2019-07-06T18:07:58Z</time>
      </trkpt>
      <trkpt lat="48.2713" lon="5.06061">
        <ele>419.6</ele>
        <time>2019-07-06T18:08:02Z</time>
      </trkpt>
      <trkpt lat="48.27114" lon="5.06074">
        <ele>419.6</ele>
        <time>2019-07-06T18:08:06Z</time>
      </trkpt>
      <trkpt lat="48.27099" lon="5.06085">
        <ele>421</ele>
        <time>2019-07-06T18:08:10Z</time>
      </trkpt>
      <trkpt lat="48.27087" lon="5.06094">
        <ele>421</ele>
        <time>2019-07-06T18:08:14Z</time>
      </trkpt>
      <trkpt lat="48.27077" lon="5.06095">
        <ele>422.4</ele>
        <time>2019-07-06T18:08:18Z</time>
      </trkpt>
      <trkpt lat="48.27069" lon="5.06081">
        <ele>421</ele>
        <time>2019-07-06T18:08:22Z</time>
      </trkpt>
      <trkpt lat="48.27065" lon="5.06077">
        <ele>421.6</ele>
        <time>2019-07-06T18:08:26Z</time>
      </trkpt>
      <trkpt lat="48.27063" lon="5.06069">
        <ele>422.4</ele>
        <time>2019-07-06T18:08:30Z</time>
      </trkpt>
      <trkpt lat="48.2706" lon="5.06062">
        <ele>421.8</ele>
        <time>2019-07-06T18:08:34Z</time>
      </trkpt>
      <trkpt lat="48.27055" lon="5.06058">
        <ele>421.8</ele>
        <time>2019-07-06T18:08:38Z</time>
      </trkpt>
      <trkpt lat="48.2705" lon="5.06046">
        <ele>422.2</ele>
        <time>2019-07-06T18:08:42Z</time>
      </trkpt>
      <trkpt lat="48.27047" lon="5.06033">
        <ele>421.2</ele>
        <time>2019-07-06T18:08:46Z</time>
      </trkpt>
      <trkpt lat="48.27036" lon="5.06018">
        <ele>421.2</ele>
        <time>2019-07-06T18:08:50Z</time>
      </trkpt>
      <trkpt lat="48.27032" lon="5.06002">
        <ele>420.8</ele>
        <time>2019-07-06T18:08:54Z</time>
      </trkpt>
      <trkpt lat="48.27025" lon="5.05986">
        <ele>420.4</ele>
        <time>2019-07-06T18:08:58Z</time>
      </trkpt>
      <trkpt lat="48.27017" lon="5.0597">
        <ele>420</ele>
        <time>2019-07-06T18:09:02Z</time>
      </trkpt>
      <trkpt lat="48.27009" lon="5.05953">
        <ele>419.2</ele>
        <time>2019-07-06T18:09:06Z</time>
      </trkpt>
      <trkpt lat="48.27003" lon="5.05937">
        <ele>420.2</ele>
        <time>2019-07-06T18:09:10Z</time>
      </trkpt>
      <trkpt lat="48.26995" lon="5.05929">
        <ele>421.2</ele>
        <time>2019-07-06T18:09:14Z</time>
      </trkpt>
      <trkpt lat="48.26992" lon="5.05917">
        <ele>420.6</ele>
        <time>2019-07-06T18:09:18Z</time>
      </trkpt>
      <trkpt lat="48.26988" lon="5.05906">
        <ele>420.6</ele>
        <time>2019-07-06T18:09:22Z</time>
      </trkpt>
      <trkpt lat="48.26993" lon="5.05894">
        <ele>420.6</ele>
        <time>2019-07-06T18:09:26Z</time>
      </trkpt>
      <trkpt lat="48.27001" lon="5.05891">
        <ele>419.8</ele>
        <time>2019-07-06T18:09:30Z</time>
      </trkpt>
      <trkpt lat="48.27009" lon="5.05884">
        <ele>419.8</ele>
        <time>2019-07-06T18:09:34Z</time>
      </trkpt>
      <trkpt lat="48.27017" lon="5.05875">
        <ele>418.8</ele>
        <time>2019-07-06T18:09:38Z</time>
      </trkpt>
      <trkpt lat="48.27026" lon="5.0587">
        <ele>418.4</ele>
        <time>2019-07-06T18:09:42Z</time>
      </trkpt>
      <trkpt lat="48.27039" lon="5.05859">
        <ele>417.6</ele>
        <time>2019-07-06T18:09:46Z</time>
      </trkpt>
      <trkpt lat="48.27049" lon="5.05853">
        <ele>416.6</ele>
        <time>2019-07-06T18:09:50Z</time>
      </trkpt>
      <trkpt lat="48.27063" lon="5.05845">
        <ele>415.6</ele>
        <time>2019-07-06T18:09:54Z</time>
      </trkpt>
      <trkpt lat="48.27072" lon="5.05837">
        <ele>416.4</ele>
        <time>2019-07-06T18:09:58Z</time>
      </trkpt>
      <trkpt lat="48.27083" lon="5.05831">
        <ele>415.8</ele>
        <time>2019-07-06T18:10:02Z</time>
      </trkpt>
      <trkpt lat="48.27093" lon="5.05821">
        <ele>413.8</ele>
        <time>2019-07-06T18:10:06Z</time>
      </trkpt>
      <trkpt lat="48.27111" lon="5.05811">
        <ele>413.8</ele>
        <time>2019-07-06T18:10:10Z</time>
      </trkpt>
      <trkpt lat="48.27116" lon="5.05809">
        <ele>412.6</ele>
        <time>2019-07-06T18:10:14Z</time>
      </trkpt>
      <trkpt lat="48.27116" lon="5.05809">
        <ele>412.6</ele>
        <time>2019-07-06T18:10:18Z</time>
      </trkpt>
      <trkpt lat="48.27123" lon="5.0581">
        <ele>412.2</ele>
        <time>2019-07-06T18:10:22Z</time>
      </trkpt>
      <trkpt lat="48.27131" lon="5.05805">
        <ele>413.2</ele>
        <time>2019-07-06T18:10:26Z</time>
      </trkpt>
      <trkpt lat="48.27131" lon="5.05799">
        <ele>412</ele>
        <time>2019-07-06T18:10:30Z</time>
      </trkpt>
      <trkpt lat="48.27126" lon="5.05792">
        <ele>412.2</ele>
        <time>2019-07-06T18:10:34Z</time>
      </trkpt>
      <trkpt lat="48.27125" lon="5.05783">
        <ele>412.2</ele>
        <time>2019-07-06T18:10:38Z</time>
      </trkpt>
      <trkpt lat="48.27126" lon="5.05774">
        <ele>412.8</ele>
        <time>2019-07-06T18:10:42Z</time>
      </trkpt>
      <trkpt lat="48.27127" lon="5.05758">
        <ele>413.2</ele>
        <time>2019-07-06T18:10:46Z</time>
      </trkpt>
      <trkpt lat="48.27128" lon="5.05741">
        <ele>412.2</ele>
        <time>2019-07-06T18:10:50Z</time>
      </trkpt>
      <trkpt lat="48.2713" lon="5.05724">
        <ele>411.2</ele>
        <time>2019-07-06T18:10:54Z</time>
      </trkpt>
      <trkpt lat="48.27126" lon="5.05714">
        <ele>412.8</ele>
        <time>2019-07-06T18:10:58Z</time>
      </trkpt>
      <trkpt lat="48.27126" lon="5.05702">
        <ele>413.4</ele>
        <time>2019-07-06T18:11:02Z</time>
      </trkpt>
      <trkpt lat="48.27127" lon="5.05691">
        <ele>411.6</ele>
        <time>2019-07-06T18:11:06Z</time>
      </trkpt>
      <trkpt lat="48.27127" lon="5.05674">
        <ele>411.6</ele>
        <time>2019-07-06T18:11:10Z</time>
      </trkpt>
      <trkpt lat="48.27126" lon="5.05652">
        <ele>411</ele>
        <time>2019-07-06T18:11:14Z</time>
      </trkpt>
      <trkpt lat="48.2712" lon="5.0563">
        <ele>411</ele>
        <time>2019-07-06T18:11:18Z</time>
      </trkpt>
      <trkpt lat="48.27116" lon="5.05609">
        <ele>410.4</ele>
        <time>2019-07-06T18:11:22Z</time>
      </trkpt>
      <trkpt lat="48.27112" lon="5.05591">
        <ele>409.4</ele>
        <time>2019-07-06T18:11:26Z</time>
      </trkpt>
      <trkpt lat="48.27111" lon="5.05567">
        <ele>406.2</ele>
        <time>2019-07-06T18:11:30Z</time>
      </trkpt>
      <trkpt lat="48.27107" lon="5.05548">
        <ele>405.2</ele>
        <time>2019-07-06T18:11:34Z</time>
      </trkpt>
      <trkpt lat="48.27099" lon="5.05529">
        <ele>406.2</ele>
        <time>2019-07-06T18:11:38Z</time>
      </trkpt>
      <trkpt lat="48.2709" lon="5.05509">
        <ele>405.8</ele>
        <time>2019-07-06T18:11:42Z</time>
      </trkpt>
      <trkpt lat="48.27086" lon="5.0549">
        <ele>405.6</ele>
        <time>2019-07-06T18:11:46Z</time>
      </trkpt>
      <trkpt lat="48.27087" lon="5.05465">
        <ele>405.2</ele>
        <time>2019-07-06T18:11:50Z</time>
      </trkpt>
      <trkpt lat="48.27094" lon="5.05452">
        <ele>407.2</ele>
        <time>2019-07-06T18:11:54Z</time>
      </trkpt>
      <trkpt lat="48.27099" lon="5.05437">
        <ele>409.4</ele>
        <time>2019-07-06T18:11:58Z</time>
      </trkpt>
      <trkpt lat="48.27106" lon="5.05421">
        <ele>409.4</ele>
        <time>2019-07-06T18:12:02Z</time>
      </trkpt>
      <trkpt lat="48.2711" lon="5.0541">
        <ele>410</ele>
        <time>2019-07-06T18:12:06Z</time>
      </trkpt>
      <trkpt lat="48.27113" lon="5.05398">
        <ele>409.6</ele>
        <time>2019-07-06T18:12:10Z</time>
      </trkpt>
      <trkpt lat="48.27114" lon="5.05385">
        <ele>409.6</ele>
        <time>2019-07-06T18:12:14Z</time>
      </trkpt>
      <trkpt lat="48.27112" lon="5.05372">
        <ele>409</ele>
        <time>2019-07-06T18:12:18Z</time>
      </trkpt>
      <trkpt lat="48.27114" lon="5.05355">
        <ele>408.8</ele>
        <time>2019-07-06T18:12:22Z</time>
      </trkpt>
      <trkpt lat="48.27113" lon="5.05338">
        <ele>406.6</ele>
        <time>2019-07-06T18:12:26Z</time>
      </trkpt>
      <trkpt lat="48.27112" lon="5.05317">
        <ele>404.6</ele>
        <time>2019-07-06T18:12:30Z</time>
      </trkpt>
      <trkpt lat="48.27112" lon="5.05298">
        <ele>405.4</ele>
        <time>2019-07-06T18:12:34Z</time>
      </trkpt>
      <trkpt lat="48.27113" lon="5.05283">
        <ele>404.4</ele>
        <time>2019-07-06T18:12:38Z</time>
      </trkpt>
      <trkpt lat="48.27111" lon="5.05268">
        <ele>406.2</ele>
        <time>2019-07-06T18:12:42Z</time>
      </trkpt>
      <trkpt lat="48.27111" lon="5.05257">
        <ele>406.2</ele>
        <time>2019-07-06T18:12:46Z</time>
      </trkpt>
      <trkpt lat="48.27108" lon="5.05245">
        <ele>406.2</ele>
        <time>2019-07-06T18:12:50Z</time>
      </trkpt>
      <trkpt lat="48.27106" lon="5.05235">
        <ele>406.6</ele>
        <time>2019-07-06T18:12:54Z</time>
      </trkpt>
      <trkpt lat="48.27102" lon="5.05223">
        <ele>407</ele>
        <time>2019-07-06T18:12:58Z</time>
      </trkpt>
      <trkpt lat="48.27099" lon="5.05207">
        <ele>406.2</ele>
        <time>2019-07-06T18:13:02Z</time>
      </trkpt>
      <trkpt lat="48.27095" lon="5.05198">
        <ele>406.4</ele>
        <time>2019-07-06T18:13:06Z</time>
      </trkpt>
      <trkpt lat="48.2709" lon="5.05185">
        <ele>406.2</ele>
        <time>2019-07-06T18:13:10Z</time>
      </trkpt>
      <trkpt lat="48.2709" lon="5.05172">
        <ele>406.2</ele>
        <time>2019-07-06T18:13:14Z</time>
      </trkpt>
      <trkpt lat="48.27088" lon="5.05157">
        <ele>405.4</ele>
        <time>2019-07-06T18:13:18Z</time>
      </trkpt>
      <trkpt lat="48.27086" lon="5.05143">
        <ele>406.8</ele>
        <time>2019-07-06T18:13:22Z</time>
      </trkpt>
      <trkpt lat="48.27082" lon="5.05127">
        <ele>406.8</ele>
        <time>2019-07-06T18:13:26Z</time>
      </trkpt>
      <trkpt lat="48.27083" lon="5.05111">
        <ele>406.2</ele>
        <time>2019-07-06T18:13:30Z</time>
      </trkpt>
      <trkpt lat="48.27085" lon="5.05093">
        <ele>406.2</ele>
        <time>2019-07-06T18:13:34Z</time>
      </trkpt>
      <trkpt lat="48.27083" lon="5.05071">
        <ele>406.2</ele>
        <time>2019-07-06T18:13:38Z</time>
      </trkpt>
      <trkpt lat="48.2708" lon="5.05055">
        <ele>406.2</ele>
        <time>2019-07-06T18:13:42Z</time>
      </trkpt>
      <trkpt lat="48.2708" lon="5.05038">
        <ele>405.2</ele>
        <time>2019-07-06T18:13:46Z</time>
      </trkpt>
      <trkpt lat="48.2708" lon="5.05022">
        <ele>405.8</ele>
        <time>2019-07-06T18:13:50Z</time>
      </trkpt>
      <trkpt lat="48.27075" lon="5.05004">
        <ele>404.8</ele>
        <time>2019-07-06T18:13:54Z</time>
      </trkpt>
      <trkpt lat="48.27078" lon="5.04985">
        <ele>404.2</ele>
        <time>2019-07-06T18:13:58Z</time>
      </trkpt>
      <trkpt lat="48.27086" lon="5.04964">
        <ele>403.2</ele>
        <time>2019-07-06T18:14:02Z</time>
      </trkpt>
      <trkpt lat="48.27095" lon="5.04947">
        <ele>402.2</ele>
        <time>2019-07-06T18:14:06Z</time>
      </trkpt>
      <trkpt lat="48.27103" lon="5.04928">
        <ele>402.8</ele>
        <time>2019-07-06T18:14:10Z</time>
      </trkpt>
      <trkpt lat="48.27109" lon="5.04906">
        <ele>402.8</ele>
        <time>2019-07-06T18:14:14Z</time>
      </trkpt>
      <trkpt lat="48.27114" lon="5.04888">
        <ele>402.8</ele>
        <time>2019-07-06T18:14:18Z</time>
      </trkpt>
      <trkpt lat="48.27123" lon="5.04862">
        <ele>403.2</ele>
        <time>2019-07-06T18:14:22Z</time>
      </trkpt>
      <trkpt lat="48.27128" lon="5.04841">
        <ele>402.2</ele>
        <time>2019-07-06T18:14:26Z</time>
      </trkpt>
      <trkpt lat="48.27134" lon="5.04821">
        <ele>400.2</ele>
        <time>2019-07-06T18:14:30Z</time>
      </trkpt>
      <trkpt lat="48.27143" lon="5.04809">
        <ele>400.4</ele>
        <time>2019-07-06T18:14:34Z</time>
      </trkpt>
      <trkpt lat="48.27156" lon="5.04795">
        <ele>400</ele>
        <time>2019-07-06T18:14:38Z</time>
      </trkpt>
      <trkpt lat="48.27168" lon="5.04779">
        <ele>400</ele>
        <time>2019-07-06T18:14:42Z</time>
      </trkpt>
      <trkpt lat="48.27177" lon="5.0477">
        <ele>401.2</ele>
        <time>2019-07-06T18:14:46Z</time>
      </trkpt>
      <trkpt lat="48.27187" lon="5.04762">
        <ele>400</ele>
        <time>2019-07-06T18:14:50Z</time>
      </trkpt>
      <trkpt lat="48.27203" lon="5.04751">
        <ele>397.6</ele>
        <time>2019-07-06T18:14:54Z</time>
      </trkpt>
      <trkpt lat="48.27211" lon="5.04743">
        <ele>400.6</ele>
        <time>2019-07-06T18:14:58Z</time>
      </trkpt>
      <trkpt lat="48.27217" lon="5.04735">
        <ele>400.4</ele>
        <time>2019-07-06T18:15:02Z</time>
      </trkpt>
      <trkpt lat="48.27226" lon="5.04732">
        <ele>401.4</ele>
        <time>2019-07-06T18:15:06Z</time>
      </trkpt>
      <trkpt lat="48.27232" lon="5.04721">
        <ele>401.4</ele>
        <time>2019-07-06T18:15:10Z</time>
      </trkpt>
      <trkpt lat="48.27232" lon="5.04707">
        <ele>400.4</ele>
        <time>2019-07-06T18:15:14Z</time>
      </trkpt>
      <trkpt lat="48.27239" lon="5.04691">
        <ele>399.4</ele>
        <time>2019-07-06T18:15:18Z</time>
      </trkpt>
      <trkpt lat="48.27249" lon="5.04674">
        <ele>400.4</ele>
        <time>2019-07-06T18:15:22Z</time>
      </trkpt>
      <trkpt lat="48.27257" lon="5.04667">
        <ele>400.4</ele>
        <time>2019-07-06T18:15:26Z</time>
      </trkpt>
      <trkpt lat="48.27261" lon="5.04669">
        <ele>401.2</ele>
        <time>2019-07-06T18:15:30Z</time>
      </trkpt>
      <trkpt lat="48.27258" lon="5.04678">
        <ele>401.8</ele>
        <time>2019-07-06T18:15:34Z</time>
      </trkpt>
      <trkpt lat="48.27255" lon="5.04687">
        <ele>401.8</ele>
        <time>2019-07-06T18:15:38Z</time>
      </trkpt>
      <trkpt lat="48.27252" lon="5.04697">
        <ele>401.8</ele>
        <time>2019-07-06T18:15:42Z</time>
      </trkpt>
      <trkpt lat="48.2725" lon="5.04706">
        <ele>402.6</ele>
        <time>2019-07-06T18:15:46Z</time>
      </trkpt>
      <trkpt lat="48.27246" lon="5.04713">
        <ele>401.4</ele>
        <time>2019-07-06T18:15:50Z</time>
      </trkpt>
      <trkpt lat="48.27249" lon="5.04717">
        <ele>402.4</ele>
        <time>2019-07-06T18:15:54Z</time>
      </trkpt>
      <trkpt lat="48.27253" lon="5.04712">
        <ele>402.6</ele>
        <time>2019-07-06T18:15:58Z</time>
      </trkpt>
      <trkpt lat="48.27259" lon="5.04702">
        <ele>402.4</ele>
        <time>2019-07-06T18:16:02Z</time>
      </trkpt>
      <trkpt lat="48.27264" lon="5.04694">
        <ele>402.4</ele>
        <time>2019-07-06T18:16:06Z</time>
      </trkpt>
      <trkpt lat="48.27271" lon="5.04684">
        <ele>402.2</ele>
        <time>2019-07-06T18:16:10Z</time>
      </trkpt>
      <trkpt lat="48.27276" lon="5.04677">
        <ele>402</ele>
        <time>2019-07-06T18:16:14Z</time>
      </trkpt>
      <trkpt lat="48.27283" lon="5.04663">
        <ele>402</ele>
        <time>2019-07-06T18:16:18Z</time>
      </trkpt>
      <trkpt lat="48.27294" lon="5.04645">
        <ele>401</ele>
        <time>2019-07-06T18:16:22Z</time>
      </trkpt>
      <trkpt lat="48.273" lon="5.0463">
        <ele>400</ele>
        <time>2019-07-06T18:16:26Z</time>
      </trkpt>
      <trkpt lat="48.27309" lon="5.04624">
        <ele>400.8</ele>
        <time>2019-07-06T18:16:30Z</time>
      </trkpt>
      <trkpt lat="48.2732" lon="5.04612">
        <ele>399.8</ele>
        <time>2019-07-06T18:16:34Z</time>
      </trkpt>
      <trkpt lat="48.2733" lon="5.04618">
        <ele>398.8</ele>
        <time>2019-07-06T18:16:38Z</time>
      </trkpt>
      <trkpt lat="48.27339" lon="5.04628">
        <ele>399.4</ele>
        <time>2019-07-06T18:16:42Z</time>
      </trkpt>
      <trkpt lat="48.27347" lon="5.04637">
        <ele>399.4</ele>
        <time>2019-07-06T18:16:46Z</time>
      </trkpt>
      <trkpt lat="48.27356" lon="5.0464">
        <ele>398.4</ele>
        <time>2019-07-06T18:16:50Z</time>
      </trkpt>
      <trkpt lat="48.27366" lon="5.04656">
        <ele>396.8</ele>
        <time>2019-07-06T18:16:54Z</time>
      </trkpt>
      <trkpt lat="48.27372" lon="5.04673">
        <ele>397.6</ele>
        <time>2019-07-06T18:16:58Z</time>
      </trkpt>
      <trkpt lat="48.27378" lon="5.04687">
        <ele>400</ele>
        <time>2019-07-06T18:17:02Z</time>
      </trkpt>
      <trkpt lat="48.27386" lon="5.04705">
        <ele>400</ele>
        <time>2019-07-06T18:17:06Z</time>
      </trkpt>
      <trkpt lat="48.27396" lon="5.04723">
        <ele>401</ele>
        <time>2019-07-06T18:17:10Z</time>
      </trkpt>
      <trkpt lat="48.27401" lon="5.04736">
        <ele>401</ele>
        <time>2019-07-06T18:17:14Z</time>
      </trkpt>
      <trkpt lat="48.27407" lon="5.0475">
        <ele>401</ele>
        <time>2019-07-06T18:17:18Z</time>
      </trkpt>
      <trkpt lat="48.27421" lon="5.04754">
        <ele>399.2</ele>
        <time>2019-07-06T18:17:22Z</time>
      </trkpt>
      <trkpt lat="48.27431" lon="5.04749">
        <ele>399.2</ele>
        <time>2019-07-06T18:17:26Z</time>
      </trkpt>
      <trkpt lat="48.27433" lon="5.04742">
        <ele>400.2</ele>
        <time>2019-07-06T18:17:30Z</time>
      </trkpt>
      <trkpt lat="48.27427" lon="5.04732">
        <ele>398.2</ele>
        <time>2019-07-06T18:17:34Z</time>
      </trkpt>
      <trkpt lat="48.27426" lon="5.04718">
        <ele>398.2</ele>
        <time>2019-07-06T18:17:38Z</time>
      </trkpt>
      <trkpt lat="48.27425" lon="5.04709">
        <ele>399.8</ele>
        <time>2019-07-06T18:17:42Z</time>
      </trkpt>
      <trkpt lat="48.27422" lon="5.04701">
        <ele>399.8</ele>
        <time>2019-07-06T18:17:46Z</time>
      </trkpt>
      <trkpt lat="48.27416" lon="5.04693">
        <ele>397.8</ele>
        <time>2019-07-06T18:17:50Z</time>
      </trkpt>
      <trkpt lat="48.27413" lon="5.04686">
        <ele>397.4</ele>
        <time>2019-07-06T18:17:54Z</time>
      </trkpt>
      <trkpt lat="48.27409" lon="5.04672">
        <ele>396.6</ele>
        <time>2019-07-06T18:17:58Z</time>
      </trkpt>
      <trkpt lat="48.27409" lon="5.04672">
        <ele>396.6</ele>
        <time>2019-07-06T18:18:02Z</time>
      </trkpt>
      <trkpt lat="48.27409" lon="5.04672">
        <ele>396.6</ele>
        <time>2019-07-06T18:18:06Z</time>
      </trkpt>
      <trkpt lat="48.27409" lon="5.04672">
        <ele>396.6</ele>
        <time>2019-07-06T18:18:10Z</time>
      </trkpt>
      <trkpt lat="48.27407" lon="5.04653">
        <ele>399.4</ele>
        <time>2019-07-06T18:18:14Z</time>
      </trkpt>
      <trkpt lat="48.27404" lon="5.04646">
        <ele>399.6</ele>
        <time>2019-07-06T18:18:18Z</time>
      </trkpt>
      <trkpt lat="48.27401" lon="5.04636">
        <ele>399</ele>
        <time>2019-07-06T18:18:22Z</time>
      </trkpt>
      <trkpt lat="48.27399" lon="5.04623">
        <ele>399</ele>
        <time>2019-07-06T18:18:26Z</time>
      </trkpt>
      <trkpt lat="48.27392" lon="5.04615">
        <ele>396.2</ele>
        <time>2019-07-06T18:18:30Z</time>
      </trkpt>
      <trkpt lat="48.27385" lon="5.046">
        <ele>396.6</ele>
        <time>2019-07-06T18:18:34Z</time>
      </trkpt>
      <trkpt lat="48.27381" lon="5.04582">
        <ele>396.6</ele>
        <time>2019-07-06T18:18:38Z</time>
      </trkpt>
      <trkpt lat="48.27379" lon="5.04568">
        <ele>397.2</ele>
        <time>2019-07-06T18:18:42Z</time>
      </trkpt>
      <trkpt lat="48.27382" lon="5.04548">
        <ele>398.2</ele>
        <time>2019-07-06T18:18:46Z</time>
      </trkpt>
      <trkpt lat="48.27386" lon="5.04537">
        <ele>399.4</ele>
        <time>2019-07-06T18:18:50Z</time>
      </trkpt>
      <trkpt lat="48.27392" lon="5.04526">
        <ele>399</ele>
        <time>2019-07-06T18:18:54Z</time>
      </trkpt>
      <trkpt lat="48.27397" lon="5.04518">
        <ele>399</ele>
        <time>2019-07-06T18:18:58Z</time>
      </trkpt>
      <trkpt lat="48.27403" lon="5.04509">
        <ele>399.4</ele>
        <time>2019-07-06T18:19:02Z</time>
      </trkpt>
      <trkpt lat="48.2741" lon="5.045">
        <ele>399</ele>
        <time>2019-07-06T18:19:06Z</time>
      </trkpt>
      <trkpt lat="48.27421" lon="5.04492">
        <ele>399</ele>
        <time>2019-07-06T18:19:10Z</time>
      </trkpt>
      <trkpt lat="48.2743" lon="5.04486">
        <ele>399.2</ele>
        <time>2019-07-06T18:19:14Z</time>
      </trkpt>
      <trkpt lat="48.27439" lon="5.04483">
        <ele>399.2</ele>
        <time>2019-07-06T18:19:18Z</time>
      </trkpt>
      <trkpt lat="48.27448" lon="5.04482">
        <ele>399.6</ele>
        <time>2019-07-06T18:19:22Z</time>
      </trkpt>
      <trkpt lat="48.27457" lon="5.0448">
        <ele>399</ele>
        <time>2019-07-06T18:19:26Z</time>
      </trkpt>
      <trkpt lat="48.27467" lon="5.04476">
        <ele>398.6</ele>
        <time>2019-07-06T18:19:30Z</time>
      </trkpt>
      <trkpt lat="48.27479" lon="5.04473">
        <ele>398.2</ele>
        <time>2019-07-06T18:19:34Z</time>
      </trkpt>
      <trkpt lat="48.27487" lon="5.04473">
        <ele>396.8</ele>
        <time>2019-07-06T18:19:38Z</time>
      </trkpt>
      <trkpt lat="48.27497" lon="5.04467">
        <ele>393.8</ele>
        <time>2019-07-06T18:19:42Z</time>
      </trkpt>
      <trkpt lat="48.27507" lon="5.04454">
        <ele>392.8</ele>
        <time>2019-07-06T18:19:46Z</time>
      </trkpt>
      <trkpt lat="48.27507" lon="5.04437">
        <ele>390.2</ele>
        <time>2019-07-06T18:19:50Z</time>
      </trkpt>
      <trkpt lat="48.27504" lon="5.04405">
        <ele>388.4</ele>
        <time>2019-07-06T18:19:54Z</time>
      </trkpt>
      <trkpt lat="48.27506" lon="5.04377">
        <ele>385.8</ele>
        <time>2019-07-06T18:19:58Z</time>
      </trkpt>
      <trkpt lat="48.27507" lon="5.04357">
        <ele>385.8</ele>
        <time>2019-07-06T18:20:02Z</time>
      </trkpt>
      <trkpt lat="48.27515" lon="5.04341">
        <ele>385.2</ele>
        <time>2019-07-06T18:20:06Z</time>
      </trkpt>
      <trkpt lat="48.27524" lon="5.04324">
        <ele>385.2</ele>
        <time>2019-07-06T18:20:10Z</time>
      </trkpt>
      <trkpt lat="48.27537" lon="5.04306">
        <ele>384.6</ele>
        <time>2019-07-06T18:20:14Z</time>
      </trkpt>
      <trkpt lat="48.27549" lon="5.04286">
        <ele>384.6</ele>
        <time>2019-07-06T18:20:18Z</time>
      </trkpt>
      <trkpt lat="48.27566" lon="5.04267">
        <ele>384.2</ele>
        <time>2019-07-06T18:20:22Z</time>
      </trkpt>
      <trkpt lat="48.27582" lon="5.04249">
        <ele>384.8</ele>
        <time>2019-07-06T18:20:26Z</time>
      </trkpt>
      <trkpt lat="48.27593" lon="5.04232">
        <ele>384.8</ele>
        <time>2019-07-06T18:20:30Z</time>
      </trkpt>
      <trkpt lat="48.27596" lon="5.04223">
        <ele>384.4</ele>
        <time>2019-07-06T18:20:34Z</time>
      </trkpt>
      <trkpt lat="48.27596" lon="5.04223">
        <ele>384.4</ele>
        <time>2019-07-06T18:20:38Z</time>
      </trkpt>
      <trkpt lat="48.27596" lon="5.04223">
        <ele>384.4</ele>
        <time>2019-07-06T18:20:42Z</time>
      </trkpt>
      <trkpt lat="48.27596" lon="5.04223">
        <ele>384.4</ele>
        <time>2019-07-06T18:20:46Z</time>
      </trkpt>
      <trkpt lat="48.27596" lon="5.04223">
        <ele>384.4</ele>
        <time>2019-07-06T18:20:50Z</time>
      </trkpt>
      <trkpt lat="48.27596" lon="5.04223">
        <ele>384.4</ele>
        <time>2019-07-06T18:20:54Z</time>
      </trkpt>
      <trkpt lat="48.27596" lon="5.04223">
        <ele>384.4</ele>
        <time>2019-07-06T18:20:58Z</time>
      </trkpt>
      <trkpt lat="48.27596" lon="5.04223">
        <ele>384.4</ele>
        <time>2019-07-06T18:21:02Z</time>
      </trkpt>
      <trkpt lat="48.27596" lon="5.04223">
        <ele>384.4</ele>
        <time>2019-07-06T18:21:06Z</time>
      </trkpt>
      <trkpt lat="48.27596" lon="5.04223">
        <ele>384.4</ele>
        <time>2019-07-06T18:21:10Z</time>
      </trkpt>
      <trkpt lat="48.27596" lon="5.04223">
        <ele>384.4</ele>
        <time>2019-07-06T18:21:14Z</time>
      </trkpt>
      <trkpt lat="48.27596" lon="5.04223">
        <ele>384.4</ele>
        <time>2019-07-06T18:21:18Z</time>
      </trkpt>
      <trkpt lat="48.27596" lon="5.04223">
        <ele>384.4</ele>
        <time>2019-07-06T18:21:22Z</time>
      </trkpt>
      <trkpt lat="48.27596" lon="5.04223">
        <ele>384.4</ele>
        <time>2019-07-06T18:21:26Z</time>
      </trkpt>
      <trkpt lat="48.27596" lon="5.04223">
        <ele>384.4</ele>
        <time>2019-07-06T18:21:30Z</time>
      </trkpt>
      <trkpt lat="48.27596" lon="5.04223">
        <ele>384.4</ele>
        <time>2019-07-06T18:21:34Z</time>
      </trkpt>
      <trkpt lat="48.27596" lon="5.04223">
        <ele>384.4</ele>
        <time>2019-07-06T18:21:38Z</time>
      </trkpt>
      <trkpt lat="48.27596" lon="5.04223">
        <ele>384.4</ele>
        <time>2019-07-06T18:21:42Z</time>
      </trkpt>
      <trkpt lat="48.27596" lon="5.04223">
        <ele>384.4</ele>
        <time>2019-07-06T18:21:46Z</time>
      </trkpt>
      <trkpt lat="48.27596" lon="5.04223">
        <ele>384.4</ele>
        <time>2019-07-06T18:21:50Z</time>
      </trkpt>
      <trkpt lat="48.27596" lon="5.04223">
        <ele>384.4</ele>
        <time>2019-07-06T18:21:54Z</time>
      </trkpt>
      <trkpt lat="48.27596" lon="5.04223">
        <ele>384.4</ele>
        <time>2019-07-06T18:21:58Z</time>
      </trkpt>
      <trkpt lat="48.27596" lon="5.04223">
        <ele>384.4</ele>
        <time>2019-07-06T18:22:02Z</time>
      </trkpt>
      <trkpt lat="48.27596" lon="5.04223">
        <ele>384.4</ele>
        <time>2019-07-06T18:22:06Z</time>
      </trkpt>
      <trkpt lat="48.27596" lon="5.04223">
        <ele>384.4</ele>
        <time>2019-07-06T18:22:10Z</time>
      </trkpt>
      <trkpt lat="48.27596" lon="5.04223">
        <ele>384.4</ele>
        <time>2019-07-06T18:22:14Z</time>
      </trkpt>
      <trkpt lat="48.27596" lon="5.04223">
        <ele>384.4</ele>
        <time>2019-07-06T18:22:18Z</time>
      </trkpt>
      <trkpt lat="48.27596" lon="5.04223">
        <ele>384.4</ele>
        <time>2019-07-06T18:22:22Z</time>
      </trkpt>
      <trkpt lat="48.27596" lon="5.04223">
        <ele>384.4</ele>
        <time>2019-07-06T18:22:26Z</time>
      </trkpt>
      <trkpt lat="48.27596" lon="5.04223">
        <ele>384.4</ele>
        <time>2019-07-06T18:22:30Z</time>
      </trkpt>
      <trkpt lat="48.27596" lon="5.04223">
        <ele>384.4</ele>
        <time>2019-07-06T18:22:34Z</time>
      </trkpt>
      <trkpt lat="48.27596" lon="5.04223">
        <ele>384.4</ele>
        <time>2019-07-06T18:22:38Z</time>
      </trkpt>
      <trkpt lat="48.27596" lon="5.04223">
        <ele>384.4</ele>
        <time>2019-07-06T18:22:42Z</time>
      </trkpt>
      <trkpt lat="48.27596" lon="5.04223">
        <ele>384.4</ele>
        <time>2019-07-06T18:22:46Z</time>
      </trkpt>
      <trkpt lat="48.27596" lon="5.04223">
        <ele>384.4</ele>
        <time>2019-07-06T18:22:50Z</time>
      </trkpt>
      <trkpt lat="48.27596" lon="5.04223">
        <ele>384.4</ele>
        <time>2019-07-06T18:22:54Z</time>
      </trkpt>
      <trkpt lat="48.27596" lon="5.04223">
        <ele>384.4</ele>
        <time>2019-07-06T18:22:58Z</time>
      </trkpt>
      <trkpt lat="48.27596" lon="5.04223">
        <ele>384.4</ele>
        <time>2019-07-06T18:23:02Z</time>
      </trkpt>
      <trkpt lat="48.27596" lon="5.04223">
        <ele>384.4</ele>
        <time>2019-07-06T18:23:06Z</time>
      </trkpt>
      <trkpt lat="48.27596" lon="5.04223">
        <ele>384.4</ele>
        <time>2019-07-06T18:23:10Z</time>
      </trkpt>
      <trkpt lat="48.27596" lon="5.04223">
        <ele>384.4</ele>
        <time>2019-07-06T18:23:14Z</time>
      </trkpt>
      <trkpt lat="48.27596" lon="5.04223">
        <ele>384.4</ele>
        <time>2019-07-06T18:23:18Z</time>
      </trkpt>
      <trkpt lat="48.27596" lon="5.04223">
        <ele>384.4</ele>
        <time>2019-07-06T18:23:22Z</time>
      </trkpt>
      <trkpt lat="48.27596" lon="5.04223">
        <ele>384.4</ele>
        <time>2019-07-06T18:23:26Z</time>
      </trkpt>
      <trkpt lat="48.27596" lon="5.04223">
        <ele>384.4</ele>
        <time>2019-07-06T18:23:30Z</time>
      </trkpt>
      <trkpt lat="48.27596" lon="5.04223">
        <ele>384.4</ele>
        <time>2019-07-06T18:23:34Z</time>
      </trkpt>
      <trkpt lat="48.27596" lon="5.04223">
        <ele>384.4</ele>
        <time>2019-07-06T18:23:38Z</time>
      </trkpt>
      <trkpt lat="48.27596" lon="5.04223">
        <ele>384.4</ele>
        <time>2019-07-06T18:23:42Z</time>
      </trkpt>
      <trkpt lat="48.27596" lon="5.04223">
        <ele>384.4</ele>
        <time>2019-07-06T18:23:46Z</time>
      </trkpt>
      <trkpt lat="48.27596" lon="5.04223">
        <ele>384.4</ele>
        <time>2019-07-06T18:23:50Z</time>
      </trkpt>
      <trkpt lat="48.27596" lon="5.04223">
        <ele>384.4</ele>
        <time>2019-07-06T18:23:54Z</time>
      </trkpt>
      <trkpt lat="48.27596" lon="5.04223">
        <ele>384.4</ele>
        <time>2019-07-06T18:23:58Z</time>
      </trkpt>
      <trkpt lat="48.27596" lon="5.04223">
        <ele>384.4</ele>
        <time>2019-07-06T18:24:02Z</time>
      </trkpt>
      <trkpt lat="48.27596" lon="5.04223">
        <ele>384.4</ele>
        <time>2019-07-06T18:24:06Z</time>
      </trkpt>
      <trkpt lat="48.27596" lon="5.04223">
        <ele>384.4</ele>
        <time>2019-07-06T18:24:10Z</time>
      </trkpt>
      <trkpt lat="48.27596" lon="5.04223">
        <ele>384.4</ele>
        <time>2019-07-06T18:24:14Z</time>
      </trkpt>
      <trkpt lat="48.27596" lon="5.04223">
        <ele>384.4</ele>
        <time>2019-07-06T18:24:18Z</time>
      </trkpt>
      <trkpt lat="48.27596" lon="5.04223">
        <ele>384.4</ele>
        <time>2019-07-06T18:24:22Z</time>
      </trkpt>
      <trkpt lat="48.27596" lon="5.04223">
        <ele>384.4</ele>
        <time>2019-07-06T18:24:26Z</time>
      </trkpt>
      <trkpt lat="48.27596" lon="5.04223">
        <ele>384.4</ele>
        <time>2019-07-06T18:24:30Z</time>
      </trkpt>
      <trkpt lat="48.27596" lon="5.04223">
        <ele>384.4</ele>
        <time>2019-07-06T18:24:34Z</time>
      </trkpt>
      <trkpt lat="48.27596" lon="5.04223">
        <ele>384.4</ele>
        <time>2019-07-06T18:24:38Z</time>
      </trkpt>
      <trkpt lat="48.27596" lon="5.04223">
        <ele>384.4</ele>
        <time>2019-07-06T18:24:42Z</time>
      </trkpt>
      <trkpt lat="48.27596" lon="5.04223">
        <ele>384.4</ele>
        <time>2019-07-06T18:24:46Z</time>
      </trkpt>
      <trkpt lat="48.27596" lon="5.04223">
        <ele>384.4</ele>
        <time>2019-07-06T18:24:50Z</time>
      </trkpt>
      <trkpt lat="48.27596" lon="5.04223">
        <ele>384.4</ele>
        <time>2019-07-06T18:24:54Z</time>
      </trkpt>
      <trkpt lat="48.27596" lon="5.04223">
        <ele>384.4</ele>
        <time>2019-07-06T18:24:58Z</time>
      </trkpt>
      <trkpt lat="48.27596" lon="5.04223">
        <ele>384.4</ele>
        <time>2019-07-06T18:25:02Z</time>
      </trkpt>
      <trkpt lat="48.27596" lon="5.04223">
        <ele>384.4</ele>
        <time>2019-07-06T18:25:06Z</time>
      </trkpt>
      <trkpt lat="48.27596" lon="5.04223">
        <ele>384.4</ele>
        <time>2019-07-06T18:25:10Z</time>
      </trkpt>
      <trkpt lat="48.27596" lon="5.04223">
        <ele>384.4</ele>
        <time>2019-07-06T18:25:14Z</time>
      </trkpt>
      <trkpt lat="48.27596" lon="5.04223">
        <ele>384.4</ele>
        <time>2019-07-06T18:25:18Z</time>
      </trkpt>
      <trkpt lat="48.27596" lon="5.04223">
        <ele>384.4</ele>
        <time>2019-07-06T18:25:22Z</time>
      </trkpt>
      <trkpt lat="48.27596" lon="5.04223">
        <ele>384.4</ele>
        <time>2019-07-06T18:25:26Z</time>
      </trkpt>
      <trkpt lat="48.27596" lon="5.04223">
        <ele>384.4</ele>
        <time>2019-07-06T18:25:30Z</time>
      </trkpt>
      <trkpt lat="48.27596" lon="5.04223">
        <ele>384.4</ele>
        <time>2019-07-06T18:25:34Z</time>
      </trkpt>
      <trkpt lat="48.27596" lon="5.04223">
        <ele>384.4</ele>
        <time>2019-07-06T18:25:38Z</time>
      </trkpt>
      <trkpt lat="48.27596" lon="5.04223">
        <ele>384.4</ele>
        <time>2019-07-06T18:25:42Z</time>
      </trkpt>
      <trkpt lat="48.27596" lon="5.04223">
        <ele>384.4</ele>
        <time>2019-07-06T18:25:46Z</time>
      </trkpt>
      <trkpt lat="48.27596" lon="5.04223">
        <ele>384.4</ele>
        <time>2019-07-06T18:25:50Z</time>
      </trkpt>
      <trkpt lat="48.27596" lon="5.04223">
        <ele>384.4</ele>
        <time>2019-07-06T18:25:54Z</time>
      </trkpt>
      <trkpt lat="48.27596" lon="5.04223">
        <ele>384.4</ele>
        <time>2019-07-06T18:25:58Z</time>
      </trkpt>
      <trkpt lat="48.27596" lon="5.04223">
        <ele>384.4</ele>
        <time>2019-07-06T18:26:02Z</time>
      </trkpt>
      <trkpt lat="48.27596" lon="5.04223">
        <ele>384.4</ele>
        <time>2019-07-06T18:26:06Z</time>
      </trkpt>
      <trkpt lat="48.27596" lon="5.04223">
        <ele>384.4</ele>
        <time>2019-07-06T18:26:10Z</time>
      </trkpt>
      <trkpt lat="48.27596" lon="5.04223">
        <ele>384.4</ele>
        <time>2019-07-06T18:26:14Z</time>
      </trkpt>
      <trkpt lat="48.27596" lon="5.04223">
        <ele>384.4</ele>
        <time>2019-07-06T18:26:18Z</time>
      </trkpt>
      <trkpt lat="48.27596" lon="5.04223">
        <ele>384.4</ele>
        <time>2019-07-06T18:26:22Z</time>
      </trkpt>
      <trkpt lat="48.27596" lon="5.04223">
        <ele>384.4</ele>
        <time>2019-07-06T18:26:26Z</time>
      </trkpt>
      <trkpt lat="48.27596" lon="5.04223">
        <ele>384.4</ele>
        <time>2019-07-06T18:26:30Z</time>
      </trkpt>
      <trkpt lat="48.27596" lon="5.04223">
        <ele>384.4</ele>
        <time>2019-07-06T18:26:34Z</time>
      </trkpt>
      <trkpt lat="48.27596" lon="5.04223">
        <ele>384.4</ele>
        <time>2019-07-06T18:26:38Z</time>
      </trkpt>
      <trkpt lat="48.27598" lon="5.04202">
        <ele>383.6</ele>
        <time>2019-07-06T18:26:42Z</time>
      </trkpt>
      <trkpt lat="48.27596" lon="5.04203">
        <ele>384</ele>
        <time>2019-07-06T18:26:46Z</time>
      </trkpt>
      <trkpt lat="48.27591" lon="5.04202">
        <ele>384.4</ele>
        <time>2019-07-06T18:26:50Z</time>
      </trkpt>
      <trkpt lat="48.27585" lon="5.042">
        <ele>384.8</ele>
        <time>2019-07-06T18:26:54Z</time>
      </trkpt>
      <trkpt lat="48.27577" lon="5.04195">
        <ele>385</ele>
        <time>2019-07-06T18:26:58Z</time>
      </trkpt>
      <trkpt lat="48.27569" lon="5.04193">
        <ele>386</ele>
        <time>2019-07-06T18:27:02Z</time>
      </trkpt>
      <trkpt lat="48.27563" lon="5.04192">
        <ele>387.2</ele>
        <time>2019-07-06T18:27:06Z</time>
      </trkpt>
      <trkpt lat="48.27556" lon="5.04189">
        <ele>387.6</ele>
        <time>2019-07-06T18:27:10Z</time>
      </trkpt>
      <trkpt lat="48.2755" lon="5.04187">
        <ele>388</ele>
        <time>2019-07-06T18:27:14Z</time>
      </trkpt>
      <trkpt lat="48.27543" lon="5.04185">
        <ele>389.4</ele>
        <time>2019-07-06T18:27:18Z</time>
      </trkpt>
      <trkpt lat="48.27536" lon="5.04182">
        <ele>389.8</ele>
        <time>2019-07-06T18:27:22Z</time>
      </trkpt>
      <trkpt lat="48.27528" lon="5.04178">
        <ele>390.4</ele>
        <time>2019-07-06T18:27:26Z</time>
      </trkpt>
      <trkpt lat="48.27521" lon="5.04177">
        <ele>390.4</ele>
        <time>2019-07-06T18:27:30Z</time>
      </trkpt>
      <trkpt lat="48.27514" lon="5.04173">
        <ele>390.8</ele>
        <time>2019-07-06T18:27:34Z</time>
      </trkpt>
      <trkpt lat="48.27508" lon="5.04171">
        <ele>391.8</ele>
        <time>2019-07-06T18:27:38Z</time>
      </trkpt>
      <trkpt lat="48.27501" lon="5.04169">
        <ele>391.8</ele>
        <time>2019-07-06T18:27:42Z</time>
      </trkpt>
      <trkpt lat="48.27494" lon="5.04168">
        <ele>392.2</ele>
        <time>2019-07-06T18:27:46Z</time>
      </trkpt>
      <trkpt lat="48.27489" lon="5.04167">
        <ele>393</ele>
        <time>2019-07-06T18:27:50Z</time>
      </trkpt>
      <trkpt lat="48.27482" lon="5.04166">
        <ele>393</ele>
        <time>2019-07-06T18:27:54Z</time>
      </trkpt>
      <trkpt lat="48.27475" lon="5.04165">
        <ele>393.6</ele>
        <time>2019-07-06T18:27:58Z</time>
      </trkpt>
      <trkpt lat="48.27469" lon="5.04163">
        <ele>393.8</ele>
        <time>2019-07-06T18:28:02Z</time>
      </trkpt>
      <trkpt lat="48.27464" lon="5.04165">
        <ele>394.6</ele>
        <time>2019-07-06T18:28:06Z</time>
      </trkpt>
      <trkpt lat="48.27458" lon="5.04165">
        <ele>395.2</ele>
        <time>2019-07-06T18:28:10Z</time>
      </trkpt>
      <trkpt lat="48.27451" lon="5.04165">
        <ele>395.2</ele>
        <time>2019-07-06T18:28:14Z</time>
      </trkpt>
      <trkpt lat="48.27442" lon="5.04167">
        <ele>396.6</ele>
        <time>2019-07-06T18:28:18Z</time>
      </trkpt>
      <trkpt lat="48.27436" lon="5.04169">
        <ele>396.6</ele>
        <time>2019-07-06T18:28:22Z</time>
      </trkpt>
      <trkpt lat="48.2743" lon="5.04172">
        <ele>397.2</ele>
        <time>2019-07-06T18:28:26Z</time>
      </trkpt>
      <trkpt lat="48.27424" lon="5.04175">
        <ele>397.2</ele>
        <time>2019-07-06T18:28:30Z</time>
      </trkpt>
      <trkpt lat="48.27416" lon="5.04175">
        <ele>398</ele>
        <time>2019-07-06T18:28:34Z</time>
      </trkpt>
      <trkpt lat="48.27408" lon="5.04175">
        <ele>398</ele>
        <time>2019-07-06T18:28:38Z</time>
      </trkpt>
      <trkpt lat="48.274" lon="5.04178">
        <ele>398.4</ele>
        <time>2019-07-06T18:28:42Z</time>
      </trkpt>
      <trkpt lat="48.27394" lon="5.0418">
        <ele>398.8</ele>
        <time>2019-07-06T18:28:46Z</time>
      </trkpt>
      <trkpt lat="48.27387" lon="5.04182">
        <ele>399.4</ele>
        <time>2019-07-06T18:28:50Z</time>
      </trkpt>
      <trkpt lat="48.27379" lon="5.04184">
        <ele>399.8</ele>
        <time>2019-07-06T18:28:54Z</time>
      </trkpt>
      <trkpt lat="48.27371" lon="5.04186">
        <ele>399.8</ele>
        <time>2019-07-06T18:28:58Z</time>
      </trkpt>
      <trkpt lat="48.27364" lon="5.04189">
        <ele>400</ele>
        <time>2019-07-06T18:29:02Z</time>
      </trkpt>
      <trkpt lat="48.27356" lon="5.04192">
        <ele>400.6</ele>
        <time>2019-07-06T18:29:06Z</time>
      </trkpt>
      <trkpt lat="48.2735" lon="5.04195">
        <ele>400.6</ele>
        <time>2019-07-06T18:29:10Z</time>
      </trkpt>
      <trkpt lat="48.27342" lon="5.04199">
        <ele>400.6</ele>
        <time>2019-07-06T18:29:14Z</time>
      </trkpt>
      <trkpt lat="48.27332" lon="5.04204">
        <ele>401.2</ele>
        <time>2019-07-06T18:29:18Z</time>
      </trkpt>
      <trkpt lat="48.27322" lon="5.04208">
        <ele>401.2</ele>
        <time>2019-07-06T18:29:22Z</time>
      </trkpt>
      <trkpt lat="48.27315" lon="5.0421">
        <ele>401.2</ele>
        <time>2019-07-06T18:29:26Z</time>
      </trkpt>
      <trkpt lat="48.27306" lon="5.04211">
        <ele>401.4</ele>
        <time>2019-07-06T18:29:30Z</time>
      </trkpt>
      <trkpt lat="48.27292" lon="5.04213">
        <ele>401.4</ele>
        <time>2019-07-06T18:29:34Z</time>
      </trkpt>
      <trkpt lat="48.27277" lon="5.04216">
        <ele>401.4</ele>
        <time>2019-07-06T18:29:38Z</time>
      </trkpt>
      <trkpt lat="48.27262" lon="5.04217">
        <ele>400.6</ele>
        <time>2019-07-06T18:29:42Z</time>
      </trkpt>
      <trkpt lat="48.27247" lon="5.0422">
        <ele>400.6</ele>
        <time>2019-07-06T18:29:46Z</time>
      </trkpt>
      <trkpt lat="48.27227" lon="5.04226">
        <ele>398.6</ele>
        <time>2019-07-06T18:29:50Z</time>
      </trkpt>
      <trkpt lat="48.27205" lon="5.04237">
        <ele>397.8</ele>
        <time>2019-07-06T18:29:54Z</time>
      </trkpt>
      <trkpt lat="48.27183" lon="5.04253">
        <ele>397.6</ele>
        <time>2019-07-06T18:29:58Z</time>
      </trkpt>
      <trkpt lat="48.27167" lon="5.04269">
        <ele>397</ele>
        <time>2019-07-06T18:30:02Z</time>
      </trkpt>
      <trkpt lat="48.27156" lon="5.04286">
        <ele>398.4</ele>
        <time>2019-07-06T18:30:06Z</time>
      </trkpt>
      <trkpt lat="48.27146" lon="5.04302">
        <ele>399.2</ele>
        <time>2019-07-06T18:30:10Z</time>
      </trkpt>
      <trkpt lat="48.27141" lon="5.04317">
        <ele>400</ele>
        <time>2019-07-06T18:30:14Z</time>
      </trkpt>
      <trkpt lat="48.27135" lon="5.04329">
        <ele>400.8</ele>
        <time>2019-07-06T18:30:18Z</time>
      </trkpt>
      <trkpt lat="48.27127" lon="5.04342">
        <ele>400.6</ele>
        <time>2019-07-06T18:30:22Z</time>
      </trkpt>
      <trkpt lat="48.27121" lon="5.04355">
        <ele>401.4</ele>
        <time>2019-07-06T18:30:26Z</time>
      </trkpt>
      <trkpt lat="48.27116" lon="5.04367">
        <ele>401.4</ele>
        <time>2019-07-06T18:30:30Z</time>
      </trkpt>
      <trkpt lat="48.27108" lon="5.04381">
        <ele>402</ele>
        <time>2019-07-06T18:30:34Z</time>
      </trkpt>
      <trkpt lat="48.271" lon="5.04393">
        <ele>402</ele>
        <time>2019-07-06T18:30:38Z</time>
      </trkpt>
      <trkpt lat="48.27089" lon="5.04406">
        <ele>401.6</ele>
        <time>2019-07-06T18:30:42Z</time>
      </trkpt>
      <trkpt lat="48.2708" lon="5.04418">
        <ele>401.4</ele>
        <time>2019-07-06T18:30:46Z</time>
      </trkpt>
      <trkpt lat="48.27065" lon="5.04432">
        <ele>401.2</ele>
        <time>2019-07-06T18:30:50Z</time>
      </trkpt>
      <trkpt lat="48.27046" lon="5.04442">
        <ele>401.2</ele>
        <time>2019-07-06T18:30:54Z</time>
      </trkpt>
      <trkpt lat="48.27033" lon="5.04452">
        <ele>402.2</ele>
        <time>2019-07-06T18:30:58Z</time>
      </trkpt>
      <trkpt lat="48.2702" lon="5.0446">
        <ele>402.6</ele>
        <time>2019-07-06T18:31:02Z</time>
      </trkpt>
      <trkpt lat="48.27011" lon="5.0447">
        <ele>403.4</ele>
        <time>2019-07-06T18:31:06Z</time>
      </trkpt>
      <trkpt lat="48.27003" lon="5.04481">
        <ele>404.2</ele>
        <time>2019-07-06T18:31:10Z</time>
      </trkpt>
      <trkpt lat="48.26993" lon="5.04494">
        <ele>404</ele>
        <time>2019-07-06T18:31:14Z</time>
      </trkpt>
      <trkpt lat="48.2699" lon="5.04506">
        <ele>404.4</ele>
        <time>2019-07-06T18:31:18Z</time>
      </trkpt>
      <trkpt lat="48.26984" lon="5.0452">
        <ele>404.4</ele>
        <time>2019-07-06T18:31:22Z</time>
      </trkpt>
      <trkpt lat="48.26974" lon="5.04537">
        <ele>404.4</ele>
        <time>2019-07-06T18:31:26Z</time>
      </trkpt>
      <trkpt lat="48.26967" lon="5.04555">
        <ele>403.8</ele>
        <time>2019-07-06T18:31:30Z</time>
      </trkpt>
      <trkpt lat="48.26955" lon="5.04572">
        <ele>403.2</ele>
        <time>2019-07-06T18:31:34Z</time>
      </trkpt>
      <trkpt lat="48.26939" lon="5.04581">
        <ele>403.6</ele>
        <time>2019-07-06T18:31:38Z</time>
      </trkpt>
      <trkpt lat="48.26922" lon="5.04584">
        <ele>404.4</ele>
        <time>2019-07-06T18:31:42Z</time>
      </trkpt>
      <trkpt lat="48.26912" lon="5.04594">
        <ele>404.4</ele>
        <time>2019-07-06T18:31:46Z</time>
      </trkpt>
      <trkpt lat="48.26903" lon="5.04606">
        <ele>405.4</ele>
        <time>2019-07-06T18:31:50Z</time>
      </trkpt>
      <trkpt lat="48.26893" lon="5.04618">
        <ele>406</ele>
        <time>2019-07-06T18:31:54Z</time>
      </trkpt>
      <trkpt lat="48.26882" lon="5.04629">
        <ele>406.8</ele>
        <time>2019-07-06T18:31:58Z</time>
      </trkpt>
      <trkpt lat="48.26872" lon="5.04639">
        <ele>406.8</ele>
        <time>2019-07-06T18:32:02Z</time>
      </trkpt>
      <trkpt lat="48.26867" lon="5.04648">
        <ele>406.8</ele>
        <time>2019-07-06T18:32:06Z</time>
      </trkpt>
      <trkpt lat="48.26858" lon="5.04658">
        <ele>407.2</ele>
        <time>2019-07-06T18:32:10Z</time>
      </trkpt>
      <trkpt lat="48.26849" lon="5.04668">
        <ele>407.8</ele>
        <time>2019-07-06T18:32:14Z</time>
      </trkpt>
      <trkpt lat="48.26836" lon="5.04683">
        <ele>407.8</ele>
        <time>2019-07-06T18:32:18Z</time>
      </trkpt>
      <trkpt lat="48.26825" lon="5.04696">
        <ele>406.8</ele>
        <time>2019-07-06T18:32:22Z</time>
      </trkpt>
      <trkpt lat="48.26813" lon="5.04712">
        <ele>406.8</ele>
        <time>2019-07-06T18:32:26Z</time>
      </trkpt>
      <trkpt lat="48.26798" lon="5.0473">
        <ele>404.4</ele>
        <time>2019-07-06T18:32:30Z</time>
      </trkpt>
      <trkpt lat="48.26782" lon="5.04754">
        <ele>404.2</ele>
        <time>2019-07-06T18:32:34Z</time>
      </trkpt>
      <trkpt lat="48.26769" lon="5.04771">
        <ele>406</ele>
        <time>2019-07-06T18:32:38Z</time>
      </trkpt>
      <trkpt lat="48.26755" lon="5.04786">
        <ele>407</ele>
        <time>2019-07-06T18:32:42Z</time>
      </trkpt>
      <trkpt lat="48.26745" lon="5.04797">
        <ele>407</ele>
        <time>2019-07-06T18:32:46Z</time>
      </trkpt>
      <trkpt lat="48.26737" lon="5.04809">
        <ele>407.4</ele>
        <time>2019-07-06T18:32:50Z</time>
      </trkpt>
      <trkpt lat="48.26726" lon="5.0482">
        <ele>408.6</ele>
        <time>2019-07-06T18:32:54Z</time>
      </trkpt>
      <trkpt lat="48.26715" lon="5.04832">
        <ele>408.6</ele>
        <time>2019-07-06T18:32:58Z</time>
      </trkpt>
      <trkpt lat="48.26706" lon="5.04839">
        <ele>409</ele>
        <time>2019-07-06T18:33:02Z</time>
      </trkpt>
      <trkpt lat="48.26696" lon="5.04851">
        <ele>409.8</ele>
        <time>2019-07-06T18:33:06Z</time>
      </trkpt>
      <trkpt lat="48.26687" lon="5.04861">
        <ele>410.6</ele>
        <time>2019-07-06T18:33:10Z</time>
      </trkpt>
      <trkpt lat="48.2668" lon="5.0487">
        <ele>410</ele>
        <time>2019-07-06T18:33:14Z</time>
      </trkpt>
      <trkpt lat="48.26672" lon="5.0488">
        <ele>411.4</ele>
        <time>2019-07-06T18:33:18Z</time>
      </trkpt>
      <trkpt lat="48.26661" lon="5.04891">
        <ele>411.4</ele>
        <time>2019-07-06T18:33:22Z</time>
      </trkpt>
      <trkpt lat="48.26656" lon="5.04898">
        <ele>411.4</ele>
        <time>2019-07-06T18:33:26Z</time>
      </trkpt>
      <trkpt lat="48.26647" lon="5.04909">
        <ele>412</ele>
        <time>2019-07-06T18:33:30Z</time>
      </trkpt>
      <trkpt lat="48.2664" lon="5.0492">
        <ele>412.4</ele>
        <time>2019-07-06T18:33:34Z</time>
      </trkpt>
      <trkpt lat="48.26632" lon="5.04932">
        <ele>412.2</ele>
        <time>2019-07-06T18:33:38Z</time>
      </trkpt>
      <trkpt lat="48.26624" lon="5.04944">
        <ele>412.2</ele>
        <time>2019-07-06T18:33:42Z</time>
      </trkpt>
      <trkpt lat="48.26616" lon="5.04956">
        <ele>412</ele>
        <time>2019-07-06T18:33:46Z</time>
      </trkpt>
      <trkpt lat="48.26604" lon="5.04954">
        <ele>412.2</ele>
        <time>2019-07-06T18:33:50Z</time>
      </trkpt>
      <trkpt lat="48.26585" lon="5.0495">
        <ele>411</ele>
        <time>2019-07-06T18:33:54Z</time>
      </trkpt>
      <trkpt lat="48.26568" lon="5.0496">
        <ele>410</ele>
        <time>2019-07-06T18:33:58Z</time>
      </trkpt>
      <trkpt lat="48.26548" lon="5.04969">
        <ele>410.2</ele>
        <time>2019-07-06T18:34:02Z</time>
      </trkpt>
      <trkpt lat="48.26536" lon="5.04976">
        <ele>411.2</ele>
        <time>2019-07-06T18:34:06Z</time>
      </trkpt>
      <trkpt lat="48.26521" lon="5.04981">
        <ele>411.6</ele>
        <time>2019-07-06T18:34:10Z</time>
      </trkpt>
      <trkpt lat="48.26509" lon="5.04986">
        <ele>412.6</ele>
        <time>2019-07-06T18:34:14Z</time>
      </trkpt>
      <trkpt lat="48.26498" lon="5.04992">
        <ele>413.4</ele>
        <time>2019-07-06T18:34:18Z</time>
      </trkpt>
      <trkpt lat="48.26484" lon="5.04998">
        <ele>413.4</ele>
        <time>2019-07-06T18:34:22Z</time>
      </trkpt>
      <trkpt lat="48.26475" lon="5.05005">
        <ele>414.2</ele>
        <time>2019-07-06T18:34:26Z</time>
      </trkpt>
      <trkpt lat="48.26461" lon="5.0501">
        <ele>415</ele>
        <time>2019-07-06T18:34:30Z</time>
      </trkpt>
      <trkpt lat="48.26452" lon="5.05017">
        <ele>414.8</ele>
        <time>2019-07-06T18:34:34Z</time>
      </trkpt>
      <trkpt lat="48.26442" lon="5.05022">
        <ele>415.2</ele>
        <time>2019-07-06T18:34:38Z</time>
      </trkpt>
      <trkpt lat="48.26431" lon="5.05029">
        <ele>415.2</ele>
        <time>2019-07-06T18:34:42Z</time>
      </trkpt>
      <trkpt lat="48.26416" lon="5.05037">
        <ele>415.2</ele>
        <time>2019-07-06T18:34:46Z</time>
      </trkpt>
      <trkpt lat="48.26398" lon="5.05043">
        <ele>414.8</ele>
        <time>2019-07-06T18:34:50Z</time>
      </trkpt>
      <trkpt lat="48.26378" lon="5.0505">
        <ele>414.8</ele>
        <time>2019-07-06T18:34:54Z</time>
      </trkpt>
      <trkpt lat="48.26355" lon="5.05062">
        <ele>410.8</ele>
        <time>2019-07-06T18:34:58Z</time>
      </trkpt>
      <trkpt lat="48.26334" lon="5.0507">
        <ele>409.4</ele>
        <time>2019-07-06T18:35:02Z</time>
      </trkpt>
      <trkpt lat="48.26324" lon="5.05077">
        <ele>413</ele>
        <time>2019-07-06T18:35:06Z</time>
      </trkpt>
      <trkpt lat="48.26313" lon="5.05082">
        <ele>414</ele>
        <time>2019-07-06T18:35:10Z</time>
      </trkpt>
      <trkpt lat="48.26301" lon="5.05087">
        <ele>414.4</ele>
        <time>2019-07-06T18:35:14Z</time>
      </trkpt>
      <trkpt lat="48.26289" lon="5.05092">
        <ele>414.8</ele>
        <time>2019-07-06T18:35:18Z</time>
      </trkpt>
      <trkpt lat="48.2628" lon="5.05097">
        <ele>415.2</ele>
        <time>2019-07-06T18:35:22Z</time>
      </trkpt>
      <trkpt lat="48.26273" lon="5.05102">
        <ele>415.8</ele>
        <time>2019-07-06T18:35:26Z</time>
      </trkpt>
      <trkpt lat="48.26263" lon="5.05107">
        <ele>415.8</ele>
        <time>2019-07-06T18:35:30Z</time>
      </trkpt>
      <trkpt lat="48.26254" lon="5.0511">
        <ele>416.4</ele>
        <time>2019-07-06T18:35:34Z</time>
      </trkpt>
      <trkpt lat="48.26246" lon="5.05115">
        <ele>416.4</ele>
        <time>2019-07-06T18:35:38Z</time>
      </trkpt>
      <trkpt lat="48.26238" lon="5.05118">
        <ele>417</ele>
        <time>2019-07-06T18:35:42Z</time>
      </trkpt>
      <trkpt lat="48.2623" lon="5.05122">
        <ele>417.4</ele>
        <time>2019-07-06T18:35:46Z</time>
      </trkpt>
      <trkpt lat="48.26221" lon="5.05125">
        <ele>417.4</ele>
        <time>2019-07-06T18:35:50Z</time>
      </trkpt>
      <trkpt lat="48.26211" lon="5.0513">
        <ele>418.2</ele>
        <time>2019-07-06T18:35:54Z</time>
      </trkpt>
      <trkpt lat="48.26202" lon="5.05134">
        <ele>418.2</ele>
        <time>2019-07-06T18:35:58Z</time>
      </trkpt>
      <trkpt lat="48.26195" lon="5.0514">
        <ele>417.6</ele>
        <time>2019-07-06T18:36:02Z</time>
      </trkpt>
      <trkpt lat="48.26186" lon="5.05146">
        <ele>418.4</ele>
        <time>2019-07-06T18:36:06Z</time>
      </trkpt>
      <trkpt lat="48.26174" lon="5.05151">
        <ele>418</ele>
        <time>2019-07-06T18:36:10Z</time>
      </trkpt>
      <trkpt lat="48.2616" lon="5.05156">
        <ele>418.8</ele>
        <time>2019-07-06T18:36:14Z</time>
      </trkpt>
      <trkpt lat="48.26149" lon="5.0516">
        <ele>418.4</ele>
        <time>2019-07-06T18:36:18Z</time>
      </trkpt>
      <trkpt lat="48.26135" lon="5.05164">
        <ele>419.2</ele>
        <time>2019-07-06T18:36:22Z</time>
      </trkpt>
      <trkpt lat="48.26124" lon="5.05168">
        <ele>419.2</ele>
        <time>2019-07-06T18:36:26Z</time>
      </trkpt>
      <trkpt lat="48.26113" lon="5.05172">
        <ele>419.2</ele>
        <time>2019-07-06T18:36:30Z</time>
      </trkpt>
      <trkpt lat="48.26101" lon="5.05176">
        <ele>420.4</ele>
        <time>2019-07-06T18:36:34Z</time>
      </trkpt>
      <trkpt lat="48.2609" lon="5.05182">
        <ele>421</ele>
        <time>2019-07-06T18:36:38Z</time>
      </trkpt>
      <trkpt lat="48.26081" lon="5.05188">
        <ele>421.6</ele>
        <time>2019-07-06T18:36:42Z</time>
      </trkpt>
      <trkpt lat="48.26066" lon="5.05194">
        <ele>421.6</ele>
        <time>2019-07-06T18:36:46Z</time>
      </trkpt>
      <trkpt lat="48.26055" lon="5.05198">
        <ele>421.8</ele>
        <time>2019-07-06T18:36:50Z</time>
      </trkpt>
      <trkpt lat="48.26045" lon="5.05202">
        <ele>421.6</ele>
        <time>2019-07-06T18:36:54Z</time>
      </trkpt>
      <trkpt lat="48.26034" lon="5.05209">
        <ele>421.8</ele>
        <time>2019-07-06T18:36:58Z</time>
      </trkpt>
      <trkpt lat="48.26022" lon="5.05216">
        <ele>421</ele>
        <time>2019-07-06T18:37:02Z</time>
      </trkpt>
      <trkpt lat="48.26003" lon="5.05223">
        <ele>420.2</ele>
        <time>2019-07-06T18:37:06Z</time>
      </trkpt>
      <trkpt lat="48.25978" lon="5.05232">
        <ele>419.2</ele>
        <time>2019-07-06T18:37:10Z</time>
      </trkpt>
      <trkpt lat="48.2596" lon="5.05242">
        <ele>417.8</ele>
        <time>2019-07-06T18:37:14Z</time>
      </trkpt>
      <trkpt lat="48.25945" lon="5.05248">
        <ele>419.2</ele>
        <time>2019-07-06T18:37:18Z</time>
      </trkpt>
      <trkpt lat="48.25933" lon="5.05256">
        <ele>420</ele>
        <time>2019-07-06T18:37:22Z</time>
      </trkpt>
      <trkpt lat="48.2592" lon="5.05264">
        <ele>420</ele>
        <time>2019-07-06T18:37:26Z</time>
      </trkpt>
      <trkpt lat="48.25905" lon="5.05269">
        <ele>420.4</ele>
        <time>2019-07-06T18:37:30Z</time>
      </trkpt>
      <trkpt lat="48.25886" lon="5.05277">
        <ele>419.6</ele>
        <time>2019-07-06T18:37:34Z</time>
      </trkpt>
      <trkpt lat="48.25869" lon="5.05282">
        <ele>420.8</ele>
        <time>2019-07-06T18:37:38Z</time>
      </trkpt>
      <trkpt lat="48.25856" lon="5.05289">
        <ele>421.8</ele>
        <time>2019-07-06T18:37:42Z</time>
      </trkpt>
      <trkpt lat="48.25845" lon="5.05293">
        <ele>422.8</ele>
        <time>2019-07-06T18:37:46Z</time>
      </trkpt>
      <trkpt lat="48.25837" lon="5.05296">
        <ele>423.8</ele>
        <time>2019-07-06T18:37:50Z</time>
      </trkpt>
      <trkpt lat="48.25829" lon="5.05302">
        <ele>424.4</ele>
        <time>2019-07-06T18:37:54Z</time>
      </trkpt>
      <trkpt lat="48.25822" lon="5.05307">
        <ele>424.6</ele>
        <time>2019-07-06T18:37:58Z</time>
      </trkpt>
      <trkpt lat="48.25813" lon="5.0531">
        <ele>425.2</ele>
        <time>2019-07-06T18:38:02Z</time>
      </trkpt>
      <trkpt lat="48.25803" lon="5.05314">
        <ele>426</ele>
        <time>2019-07-06T18:38:06Z</time>
      </trkpt>
      <trkpt lat="48.25793" lon="5.05318">
        <ele>426.6</ele>
        <time>2019-07-06T18:38:10Z</time>
      </trkpt>
      <trkpt lat="48.25783" lon="5.05323">
        <ele>426.8</ele>
        <time>2019-07-06T18:38:14Z</time>
      </trkpt>
      <trkpt lat="48.25775" lon="5.05327">
        <ele>427.6</ele>
        <time>2019-07-06T18:38:18Z</time>
      </trkpt>
      <trkpt lat="48.25767" lon="5.05331">
        <ele>428.2</ele>
        <time>2019-07-06T18:38:22Z</time>
      </trkpt>
      <trkpt lat="48.2576" lon="5.05336">
        <ele>428</ele>
        <time>2019-07-06T18:38:26Z</time>
      </trkpt>
      <trkpt lat="48.25751" lon="5.05341">
        <ele>428.2</ele>
        <time>2019-07-06T18:38:30Z</time>
      </trkpt>
      <trkpt lat="48.25743" lon="5.05345">
        <ele>428.6</ele>
        <time>2019-07-06T18:38:34Z</time>
      </trkpt>
      <trkpt lat="48.25735" lon="5.0535">
        <ele>428.8</ele>
        <time>2019-07-06T18:38:38Z</time>
      </trkpt>
      <trkpt lat="48.25722" lon="5.05359">
        <ele>427.8</ele>
        <time>2019-07-06T18:38:42Z</time>
      </trkpt>
      <trkpt lat="48.25706" lon="5.05365">
        <ele>426.8</ele>
        <time>2019-07-06T18:38:46Z</time>
      </trkpt>
      <trkpt lat="48.25685" lon="5.05375">
        <ele>425.4</ele>
        <time>2019-07-06T18:38:50Z</time>
      </trkpt>
      <trkpt lat="48.2566" lon="5.05385">
        <ele>423.4</ele>
        <time>2019-07-06T18:38:54Z</time>
      </trkpt>
      <trkpt lat="48.25626" lon="5.05392">
        <ele>423.4</ele>
        <time>2019-07-06T18:38:58Z</time>
      </trkpt>
      <trkpt lat="48.25609" lon="5.05404">
        <ele>424.4</ele>
        <time>2019-07-06T18:39:02Z</time>
      </trkpt>
      <trkpt lat="48.25596" lon="5.05413">
        <ele>424.6</ele>
        <time>2019-07-06T18:39:06Z</time>
      </trkpt>
      <trkpt lat="48.25582" lon="5.0542">
        <ele>424.8</ele>
        <time>2019-07-06T18:39:10Z</time>
      </trkpt>
      <trkpt lat="48.25565" lon="5.05427">
        <ele>423.8</ele>
        <time>2019-07-06T18:39:14Z</time>
      </trkpt>
      <trkpt lat="48.25543" lon="5.05434">
        <ele>424.2</ele>
        <time>2019-07-06T18:39:18Z</time>
      </trkpt>
      <trkpt lat="48.25528" lon="5.05444">
        <ele>425</ele>
        <time>2019-07-06T18:39:22Z</time>
      </trkpt>
      <trkpt lat="48.25511" lon="5.05454">
        <ele>426</ele>
        <time>2019-07-06T18:39:26Z</time>
      </trkpt>
      <trkpt lat="48.25495" lon="5.05459">
        <ele>425.4</ele>
        <time>2019-07-06T18:39:30Z</time>
      </trkpt>
      <trkpt lat="48.25483" lon="5.05466">
        <ele>426.2</ele>
        <time>2019-07-06T18:39:34Z</time>
      </trkpt>
      <trkpt lat="48.25471" lon="5.05473">
        <ele>426.2</ele>
        <time>2019-07-06T18:39:38Z</time>
      </trkpt>
      <trkpt lat="48.25455" lon="5.05478">
        <ele>426.2</ele>
        <time>2019-07-06T18:39:42Z</time>
      </trkpt>
      <trkpt lat="48.25443" lon="5.05484">
        <ele>426.6</ele>
        <time>2019-07-06T18:39:46Z</time>
      </trkpt>
      <trkpt lat="48.25431" lon="5.05489">
        <ele>427</ele>
        <time>2019-07-06T18:39:50Z</time>
      </trkpt>
      <trkpt lat="48.25419" lon="5.05493">
        <ele>427.8</ele>
        <time>2019-07-06T18:39:54Z</time>
      </trkpt>
      <trkpt lat="48.25404" lon="5.05495">
        <ele>427.8</ele>
        <time>2019-07-06T18:39:58Z</time>
      </trkpt>
      <trkpt lat="48.25394" lon="5.05499">
        <ele>428.8</ele>
        <time>2019-07-06T18:40:02Z</time>
      </trkpt>
      <trkpt lat="48.25388" lon="5.05505">
        <ele>429.8</ele>
        <time>2019-07-06T18:40:06Z</time>
      </trkpt>
      <trkpt lat="48.25379" lon="5.05507">
        <ele>431</ele>
        <time>2019-07-06T18:40:10Z</time>
      </trkpt>
      <trkpt lat="48.25372" lon="5.0551">
        <ele>431.6</ele>
        <time>2019-07-06T18:40:14Z</time>
      </trkpt>
      <trkpt lat="48.25363" lon="5.05515">
        <ele>432</ele>
        <time>2019-07-06T18:40:18Z</time>
      </trkpt>
      <trkpt lat="48.25354" lon="5.0552">
        <ele>432.8</ele>
        <time>2019-07-06T18:40:22Z</time>
      </trkpt>
      <trkpt lat="48.25345" lon="5.05523">
        <ele>432.8</ele>
        <time>2019-07-06T18:40:26Z</time>
      </trkpt>
      <trkpt lat="48.25336" lon="5.05526">
        <ele>433.6</ele>
        <time>2019-07-06T18:40:30Z</time>
      </trkpt>
      <trkpt lat="48.25328" lon="5.05532">
        <ele>433.6</ele>
        <time>2019-07-06T18:40:34Z</time>
      </trkpt>
      <trkpt lat="48.25318" lon="5.05536">
        <ele>434.2</ele>
        <time>2019-07-06T18:40:38Z</time>
      </trkpt>
      <trkpt lat="48.25308" lon="5.05539">
        <ele>434.2</ele>
        <time>2019-07-06T18:40:42Z</time>
      </trkpt>
      <trkpt lat="48.253" lon="5.05543">
        <ele>434.6</ele>
        <time>2019-07-06T18:40:46Z</time>
      </trkpt>
      <trkpt lat="48.25292" lon="5.05548">
        <ele>435.6</ele>
        <time>2019-07-06T18:40:50Z</time>
      </trkpt>
      <trkpt lat="48.25284" lon="5.05551">
        <ele>435.4</ele>
        <time>2019-07-06T18:40:54Z</time>
      </trkpt>
      <trkpt lat="48.25274" lon="5.05556">
        <ele>436.4</ele>
        <time>2019-07-06T18:40:58Z</time>
      </trkpt>
      <trkpt lat="48.25262" lon="5.05553">
        <ele>436.6</ele>
        <time>2019-07-06T18:41:02Z</time>
      </trkpt>
      <trkpt lat="48.25254" lon="5.05539">
        <ele>434.8</ele>
        <time>2019-07-06T18:41:06Z</time>
      </trkpt>
      <trkpt lat="48.25245" lon="5.05512">
        <ele>433.8</ele>
        <time>2019-07-06T18:41:10Z</time>
      </trkpt>
      <trkpt lat="48.25237" lon="5.05486">
        <ele>432.4</ele>
        <time>2019-07-06T18:41:14Z</time>
      </trkpt>
      <trkpt lat="48.25233" lon="5.05468">
        <ele>435.2</ele>
        <time>2019-07-06T18:41:18Z</time>
      </trkpt>
      <trkpt lat="48.25231" lon="5.05453">
        <ele>436</ele>
        <time>2019-07-06T18:41:22Z</time>
      </trkpt>
      <trkpt lat="48.25228" lon="5.05439">
        <ele>436.6</ele>
        <time>2019-07-06T18:41:26Z</time>
      </trkpt>
      <trkpt lat="48.25225" lon="5.05425">
        <ele>437.6</ele>
        <time>2019-07-06T18:41:30Z</time>
      </trkpt>
      <trkpt lat="48.25221" lon="5.05411">
        <ele>437.8</ele>
        <time>2019-07-06T18:41:34Z</time>
      </trkpt>
      <trkpt lat="48.25217" lon="5.054">
        <ele>438.2</ele>
        <time>2019-07-06T18:41:38Z</time>
      </trkpt>
      <trkpt lat="48.25212" lon="5.05389">
        <ele>439.2</ele>
        <time>2019-07-06T18:41:42Z</time>
      </trkpt>
      <trkpt lat="48.25205" lon="5.05378">
        <ele>439.4</ele>
        <time>2019-07-06T18:41:46Z</time>
      </trkpt>
      <trkpt lat="48.252" lon="5.05367">
        <ele>439.6</ele>
        <time>2019-07-06T18:41:50Z</time>
      </trkpt>
      <trkpt lat="48.25196" lon="5.05356">
        <ele>439.6</ele>
        <time>2019-07-06T18:41:54Z</time>
      </trkpt>
      <trkpt lat="48.2519" lon="5.05344">
        <ele>440.6</ele>
        <time>2019-07-06T18:41:58Z</time>
      </trkpt>
      <trkpt lat="48.25179" lon="5.05326">
        <ele>440.2</ele>
        <time>2019-07-06T18:42:02Z</time>
      </trkpt>
      <trkpt lat="48.25173" lon="5.05311">
        <ele>441.2</ele>
        <time>2019-07-06T18:42:06Z</time>
      </trkpt>
      <trkpt lat="48.25168" lon="5.05296">
        <ele>441.4</ele>
        <time>2019-07-06T18:42:10Z</time>
      </trkpt>
      <trkpt lat="48.25162" lon="5.05282">
        <ele>441.8</ele>
        <time>2019-07-06T18:42:14Z</time>
      </trkpt>
      <trkpt lat="48.25154" lon="5.05264">
        <ele>441</ele>
        <time>2019-07-06T18:42:18Z</time>
      </trkpt>
      <trkpt lat="48.25146" lon="5.05241">
        <ele>441.8</ele>
        <time>2019-07-06T18:42:22Z</time>
      </trkpt>
      <trkpt lat="48.25144" lon="5.05209">
        <ele>441.8</ele>
        <time>2019-07-06T18:42:26Z</time>
      </trkpt>
      <trkpt lat="48.25139" lon="5.05183">
        <ele>441.2</ele>
        <time>2019-07-06T18:42:30Z</time>
      </trkpt>
      <trkpt lat="48.25135" lon="5.05158">
        <ele>442</ele>
        <time>2019-07-06T18:42:34Z</time>
      </trkpt>
      <trkpt lat="48.25128" lon="5.05134">
        <ele>442</ele>
        <time>2019-07-06T18:42:38Z</time>
      </trkpt>
      <trkpt lat="48.25121" lon="5.05116">
        <ele>442.6</ele>
        <time>2019-07-06T18:42:42Z</time>
      </trkpt>
      <trkpt lat="48.25111" lon="5.05096">
        <ele>443.2</ele>
        <time>2019-07-06T18:42:46Z</time>
      </trkpt>
      <trkpt lat="48.25101" lon="5.05079">
        <ele>443.2</ele>
        <time>2019-07-06T18:42:50Z</time>
      </trkpt>
      <trkpt lat="48.25092" lon="5.05065">
        <ele>444.4</ele>
        <time>2019-07-06T18:42:54Z</time>
      </trkpt>
      <trkpt lat="48.25085" lon="5.05043">
        <ele>444.4</ele>
        <time>2019-07-06T18:42:58Z</time>
      </trkpt>
      <trkpt lat="48.25078" lon="5.05028">
        <ele>444.8</ele>
        <time>2019-07-06T18:43:02Z</time>
      </trkpt>
      <trkpt lat="48.25069" lon="5.05013">
        <ele>445.6</ele>
        <time>2019-07-06T18:43:06Z</time>
      </trkpt>
      <trkpt lat="48.25062" lon="5.05001">
        <ele>446.2</ele>
        <time>2019-07-06T18:43:10Z</time>
      </trkpt>
      <trkpt lat="48.25058" lon="5.04989">
        <ele>447</ele>
        <time>2019-07-06T18:43:14Z</time>
      </trkpt>
      <trkpt lat="48.25055" lon="5.04974">
        <ele>447.4</ele>
        <time>2019-07-06T18:43:18Z</time>
      </trkpt>
      <trkpt lat="48.25052" lon="5.04963">
        <ele>448.4</ele>
        <time>2019-07-06T18:43:22Z</time>
      </trkpt>
      <trkpt lat="48.25047" lon="5.04951">
        <ele>449</ele>
        <time>2019-07-06T18:43:26Z</time>
      </trkpt>
      <trkpt lat="48.25043" lon="5.04941">
        <ele>449.6</ele>
        <time>2019-07-06T18:43:30Z</time>
      </trkpt>
      <trkpt lat="48.2504" lon="5.0493">
        <ele>450.4</ele>
        <time>2019-07-06T18:43:34Z</time>
      </trkpt>
      <trkpt lat="48.25035" lon="5.04917">
        <ele>450.6</ele>
        <time>2019-07-06T18:43:38Z</time>
      </trkpt>
      <trkpt lat="48.25031" lon="5.04898">
        <ele>451.2</ele>
        <time>2019-07-06T18:43:42Z</time>
      </trkpt>
      <trkpt lat="48.25029" lon="5.04886">
        <ele>451.8</ele>
        <time>2019-07-06T18:43:46Z</time>
      </trkpt>
      <trkpt lat="48.25026" lon="5.04876">
        <ele>452.4</ele>
        <time>2019-07-06T18:43:50Z</time>
      </trkpt>
      <trkpt lat="48.25022" lon="5.04865">
        <ele>452.8</ele>
        <time>2019-07-06T18:43:54Z</time>
      </trkpt>
      <trkpt lat="48.25017" lon="5.04854">
        <ele>453.8</ele>
        <time>2019-07-06T18:43:58Z</time>
      </trkpt>
      <trkpt lat="48.2501" lon="5.04845">
        <ele>453.8</ele>
        <time>2019-07-06T18:44:02Z</time>
      </trkpt>
      <trkpt lat="48.25005" lon="5.04832">
        <ele>454.2</ele>
        <time>2019-07-06T18:44:06Z</time>
      </trkpt>
      <trkpt lat="48.25001" lon="5.04819">
        <ele>455</ele>
        <time>2019-07-06T18:44:10Z</time>
      </trkpt>
      <trkpt lat="48.24996" lon="5.04806">
        <ele>455</ele>
        <time>2019-07-06T18:44:14Z</time>
      </trkpt>
      <trkpt lat="48.2499" lon="5.04798">
        <ele>455.8</ele>
        <time>2019-07-06T18:44:18Z</time>
      </trkpt>
      <trkpt lat="48.24986" lon="5.04784">
        <ele>455.6</ele>
        <time>2019-07-06T18:44:22Z</time>
      </trkpt>
      <trkpt lat="48.24984" lon="5.04765">
        <ele>455.6</ele>
        <time>2019-07-06T18:44:26Z</time>
      </trkpt>
      <trkpt lat="48.24978" lon="5.04751">
        <ele>456.4</ele>
        <time>2019-07-06T18:44:30Z</time>
      </trkpt>
      <trkpt lat="48.24972" lon="5.04735">
        <ele>456.2</ele>
        <time>2019-07-06T18:44:34Z</time>
      </trkpt>
      <trkpt lat="48.24966" lon="5.04719">
        <ele>456.2</ele>
        <time>2019-07-06T18:44:38Z</time>
      </trkpt>
      <trkpt lat="48.24963" lon="5.04699">
        <ele>456.6</ele>
        <time>2019-07-06T18:44:42Z</time>
      </trkpt>
      <trkpt lat="48.24959" lon="5.04679">
        <ele>456.2</ele>
        <time>2019-07-06T18:44:46Z</time>
      </trkpt>
      <trkpt lat="48.24952" lon="5.0466">
        <ele>456.2</ele>
        <time>2019-07-06T18:44:50Z</time>
      </trkpt>
      <trkpt lat="48.24943" lon="5.0464">
        <ele>456.2</ele>
        <time>2019-07-06T18:44:54Z</time>
      </trkpt>
      <trkpt lat="48.2493" lon="5.04623">
        <ele>456.2</ele>
        <time>2019-07-06T18:44:58Z</time>
      </trkpt>
      <trkpt lat="48.24914" lon="5.04615">
        <ele>456.2</ele>
        <time>2019-07-06T18:45:02Z</time>
      </trkpt>
      <trkpt lat="48.24899" lon="5.0461">
        <ele>456.2</ele>
        <time>2019-07-06T18:45:06Z</time>
      </trkpt>
      <trkpt lat="48.24884" lon="5.04609">
        <ele>456.2</ele>
        <time>2019-07-06T18:45:10Z</time>
      </trkpt>
      <trkpt lat="48.24868" lon="5.04606">
        <ele>456.8</ele>
        <time>2019-07-06T18:45:14Z</time>
      </trkpt>
      <trkpt lat="48.2485" lon="5.04605">
        <ele>456.8</ele>
        <time>2019-07-06T18:45:18Z</time>
      </trkpt>
      <trkpt lat="48.24833" lon="5.046">
        <ele>456.4</ele>
        <time>2019-07-06T18:45:22Z</time>
      </trkpt>
      <trkpt lat="48.24815" lon="5.04598">
        <ele>457</ele>
        <time>2019-07-06T18:45:26Z</time>
      </trkpt>
      <trkpt lat="48.24798" lon="5.04595">
        <ele>456.8</ele>
        <time>2019-07-06T18:45:30Z</time>
      </trkpt>
      <trkpt lat="48.2478" lon="5.04593">
        <ele>456.8</ele>
        <time>2019-07-06T18:45:34Z</time>
      </trkpt>
      <trkpt lat="48.24765" lon="5.04592">
        <ele>457.2</ele>
        <time>2019-07-06T18:45:38Z</time>
      </trkpt>
      <trkpt lat="48.24744" lon="5.04586">
        <ele>457.2</ele>
        <time>2019-07-06T18:45:42Z</time>
      </trkpt>
      <trkpt lat="48.24722" lon="5.04578">
        <ele>457.4</ele>
        <time>2019-07-06T18:45:46Z</time>
      </trkpt>
      <trkpt lat="48.24703" lon="5.04572">
        <ele>457.4</ele>
        <time>2019-07-06T18:45:50Z</time>
      </trkpt>
      <trkpt lat="48.24691" lon="5.04581">
        <ele>458</ele>
        <time>2019-07-06T18:45:54Z</time>
      </trkpt>
      <trkpt lat="48.24681" lon="5.04594">
        <ele>458.6</ele>
        <time>2019-07-06T18:45:58Z</time>
      </trkpt>
      <trkpt lat="48.24673" lon="5.04603">
        <ele>459.4</ele>
        <time>2019-07-06T18:46:02Z</time>
      </trkpt>
      <trkpt lat="48.24661" lon="5.04614">
        <ele>459.4</ele>
        <time>2019-07-06T18:46:06Z</time>
      </trkpt>
      <trkpt lat="48.24653" lon="5.04623">
        <ele>460.4</ele>
        <time>2019-07-06T18:46:10Z</time>
      </trkpt>
      <trkpt lat="48.24647" lon="5.04635">
        <ele>460.4</ele>
        <time>2019-07-06T18:46:14Z</time>
      </trkpt>
      <trkpt lat="48.24638" lon="5.04644">
        <ele>461</ele>
        <time>2019-07-06T18:46:18Z</time>
      </trkpt>
      <trkpt lat="48.24631" lon="5.04653">
        <ele>461.8</ele>
        <time>2019-07-06T18:46:22Z</time>
      </trkpt>
      <trkpt lat="48.24624" lon="5.04662">
        <ele>461.8</ele>
        <time>2019-07-06T18:46:26Z</time>
      </trkpt>
      <trkpt lat="48.24617" lon="5.04672">
        <ele>461.8</ele>
        <time>2019-07-06T18:46:30Z</time>
      </trkpt>
      <trkpt lat="48.24606" lon="5.04683">
        <ele>462.6</ele>
        <time>2019-07-06T18:46:34Z</time>
      </trkpt>
      <trkpt lat="48.24593" lon="5.04697">
        <ele>462</ele>
        <time>2019-07-06T18:46:38Z</time>
      </trkpt>
      <trkpt lat="48.24583" lon="5.04711">
        <ele>461.8</ele>
        <time>2019-07-06T18:46:42Z</time>
      </trkpt>
      <trkpt lat="48.24566" lon="5.04727">
        <ele>461.8</ele>
        <time>2019-07-06T18:46:46Z</time>
      </trkpt>
      <trkpt lat="48.24553" lon="5.04742">
        <ele>460.6</ele>
        <time>2019-07-06T18:46:50Z</time>
      </trkpt>
      <trkpt lat="48.24539" lon="5.04761">
        <ele>460.6</ele>
        <time>2019-07-06T18:46:54Z</time>
      </trkpt>
      <trkpt lat="48.24523" lon="5.0478">
        <ele>458.6</ele>
        <time>2019-07-06T18:46:58Z</time>
      </trkpt>
      <trkpt lat="48.24508" lon="5.048">
        <ele>457.6</ele>
        <time>2019-07-06T18:47:02Z</time>
      </trkpt>
      <trkpt lat="48.24495" lon="5.0482">
        <ele>457.6</ele>
        <time>2019-07-06T18:47:06Z</time>
      </trkpt>
      <trkpt lat="48.24478" lon="5.0484">
        <ele>457</ele>
        <time>2019-07-06T18:47:10Z</time>
      </trkpt>
      <trkpt lat="48.24461" lon="5.04863">
        <ele>456.2</ele>
        <time>2019-07-06T18:47:14Z</time>
      </trkpt>
      <trkpt lat="48.24453" lon="5.04873">
        <ele>456</ele>
        <time>2019-07-06T18:47:18Z</time>
      </trkpt>
      <trkpt lat="48.24457" lon="5.04885">
        <ele>456</ele>
        <time>2019-07-06T18:47:22Z</time>
      </trkpt>
      <trkpt lat="48.24463" lon="5.049">
        <ele>456</ele>
        <time>2019-07-06T18:47:26Z</time>
      </trkpt>
      <trkpt lat="48.2447" lon="5.04917">
        <ele>456.2</ele>
        <time>2019-07-06T18:47:30Z</time>
      </trkpt>
      <trkpt lat="48.24476" lon="5.04934">
        <ele>456.4</ele>
        <time>2019-07-06T18:47:34Z</time>
      </trkpt>
      <trkpt lat="48.24483" lon="5.04949">
        <ele>456.4</ele>
        <time>2019-07-06T18:47:38Z</time>
      </trkpt>
      <trkpt lat="48.24492" lon="5.04968">
        <ele>456</ele>
        <time>2019-07-06T18:47:42Z</time>
      </trkpt>
      <trkpt lat="48.24502" lon="5.04984">
        <ele>456.4</ele>
        <time>2019-07-06T18:47:46Z</time>
      </trkpt>
      <trkpt lat="48.24514" lon="5.05007">
        <ele>456.4</ele>
        <time>2019-07-06T18:47:50Z</time>
      </trkpt>
      <trkpt lat="48.24526" lon="5.05029">
        <ele>456.4</ele>
        <time>2019-07-06T18:47:54Z</time>
      </trkpt>
      <trkpt lat="48.24538" lon="5.05054">
        <ele>455.8</ele>
        <time>2019-07-06T18:47:58Z</time>
      </trkpt>
      <trkpt lat="48.24551" lon="5.05083">
        <ele>454.8</ele>
        <time>2019-07-06T18:48:02Z</time>
      </trkpt>
      <trkpt lat="48.24562" lon="5.05106">
        <ele>453</ele>
        <time>2019-07-06T18:48:06Z</time>
      </trkpt>
      <trkpt lat="48.24576" lon="5.05135">
        <ele>453</ele>
        <time>2019-07-06T18:48:10Z</time>
      </trkpt>
      <trkpt lat="48.24587" lon="5.05162">
        <ele>450.4</ele>
        <time>2019-07-06T18:48:14Z</time>
      </trkpt>
      <trkpt lat="48.24603" lon="5.05194">
        <ele>448</ele>
        <time>2019-07-06T18:48:18Z</time>
      </trkpt>
      <trkpt lat="48.24626" lon="5.05237">
        <ele>446.6</ele>
        <time>2019-07-06T18:48:22Z</time>
      </trkpt>
      <trkpt lat="48.24653" lon="5.05279">
        <ele>446.6</ele>
        <time>2019-07-06T18:48:26Z</time>
      </trkpt>
      <trkpt lat="48.24676" lon="5.05318">
        <ele>445</ele>
        <time>2019-07-06T18:48:30Z</time>
      </trkpt>
      <trkpt lat="48.24694" lon="5.05353">
        <ele>445</ele>
        <time>2019-07-06T18:48:34Z</time>
      </trkpt>
      <trkpt lat="48.2471" lon="5.05381">
        <ele>444</ele>
        <time>2019-07-06T18:48:38Z</time>
      </trkpt>
      <trkpt lat="48.24721" lon="5.05409">
        <ele>444</ele>
        <time>2019-07-06T18:48:42Z</time>
      </trkpt>
      <trkpt lat="48.24737" lon="5.0544">
        <ele>443.4</ele>
        <time>2019-07-06T18:48:46Z</time>
      </trkpt>
      <trkpt lat="48.24755" lon="5.0547">
        <ele>443</ele>
        <time>2019-07-06T18:48:50Z</time>
      </trkpt>
      <trkpt lat="48.24771" lon="5.05502">
        <ele>442.6</ele>
        <time>2019-07-06T18:48:54Z</time>
      </trkpt>
      <trkpt lat="48.24787" lon="5.05531">
        <ele>440.8</ele>
        <time>2019-07-06T18:48:58Z</time>
      </trkpt>
      <trkpt lat="48.24807" lon="5.05567">
        <ele>439.2</ele>
        <time>2019-07-06T18:49:02Z</time>
      </trkpt>
      <trkpt lat="48.24824" lon="5.05596">
        <ele>441.2</ele>
        <time>2019-07-06T18:49:06Z</time>
      </trkpt>
      <trkpt lat="48.2484" lon="5.0562">
        <ele>442.2</ele>
        <time>2019-07-06T18:49:10Z</time>
      </trkpt>
      <trkpt lat="48.24853" lon="5.05642">
        <ele>443.6</ele>
        <time>2019-07-06T18:49:14Z</time>
      </trkpt>
      <trkpt lat="48.24866" lon="5.05662">
        <ele>444.2</ele>
        <time>2019-07-06T18:49:18Z</time>
      </trkpt>
      <trkpt lat="48.24877" lon="5.05679">
        <ele>444.6</ele>
        <time>2019-07-06T18:49:22Z</time>
      </trkpt>
      <trkpt lat="48.24886" lon="5.05696">
        <ele>444.8</ele>
        <time>2019-07-06T18:49:26Z</time>
      </trkpt>
      <trkpt lat="48.24898" lon="5.05715">
        <ele>446.2</ele>
        <time>2019-07-06T18:49:30Z</time>
      </trkpt>
      <trkpt lat="48.24906" lon="5.0573">
        <ele>446.6</ele>
        <time>2019-07-06T18:49:34Z</time>
      </trkpt>
      <trkpt lat="48.24913" lon="5.05741">
        <ele>446.8</ele>
        <time>2019-07-06T18:49:38Z</time>
      </trkpt>
      <trkpt lat="48.24922" lon="5.05755">
        <ele>447.4</ele>
        <time>2019-07-06T18:49:42Z</time>
      </trkpt>
      <trkpt lat="48.24931" lon="5.0577">
        <ele>447.8</ele>
        <time>2019-07-06T18:49:46Z</time>
      </trkpt>
      <trkpt lat="48.24939" lon="5.05783">
        <ele>447.8</ele>
        <time>2019-07-06T18:49:50Z</time>
      </trkpt>
      <trkpt lat="48.24944" lon="5.05796">
        <ele>448.4</ele>
        <time>2019-07-06T18:49:54Z</time>
      </trkpt>
      <trkpt lat="48.24951" lon="5.05813">
        <ele>448.6</ele>
        <time>2019-07-06T18:49:58Z</time>
      </trkpt>
      <trkpt lat="48.24958" lon="5.05827">
        <ele>448.8</ele>
        <time>2019-07-06T18:50:02Z</time>
      </trkpt>
      <trkpt lat="48.24968" lon="5.05846">
        <ele>448.8</ele>
        <time>2019-07-06T18:50:06Z</time>
      </trkpt>
      <trkpt lat="48.24979" lon="5.05865">
        <ele>449.4</ele>
        <time>2019-07-06T18:50:10Z</time>
      </trkpt>
      <trkpt lat="48.24989" lon="5.05883">
        <ele>449.6</ele>
        <time>2019-07-06T18:50:14Z</time>
      </trkpt>
      <trkpt lat="48.25" lon="5.059">
        <ele>450</ele>
        <time>2019-07-06T18:50:18Z</time>
      </trkpt>
      <trkpt lat="48.2501" lon="5.05916">
        <ele>450.6</ele>
        <time>2019-07-06T18:50:22Z</time>
      </trkpt>
      <trkpt lat="48.25021" lon="5.05934">
        <ele>450</ele>
        <time>2019-07-06T18:50:26Z</time>
      </trkpt>
      <trkpt lat="48.25034" lon="5.05955">
        <ele>451.2</ele>
        <time>2019-07-06T18:50:30Z</time>
      </trkpt>
      <trkpt lat="48.25047" lon="5.05975">
        <ele>451.2</ele>
        <time>2019-07-06T18:50:34Z</time>
      </trkpt>
      <trkpt lat="48.25058" lon="5.05993">
        <ele>452.2</ele>
        <time>2019-07-06T18:50:38Z</time>
      </trkpt>
      <trkpt lat="48.25068" lon="5.06012">
        <ele>452</ele>
        <time>2019-07-06T18:50:42Z</time>
      </trkpt>
      <trkpt lat="48.25077" lon="5.0603">
        <ele>452.8</ele>
        <time>2019-07-06T18:50:46Z</time>
      </trkpt>
      <trkpt lat="48.25084" lon="5.06043">
        <ele>453.4</ele>
        <time>2019-07-06T18:50:50Z</time>
      </trkpt>
      <trkpt lat="48.25093" lon="5.06059">
        <ele>454</ele>
        <time>2019-07-06T18:50:54Z</time>
      </trkpt>
      <trkpt lat="48.25102" lon="5.06075">
        <ele>454</ele>
        <time>2019-07-06T18:50:58Z</time>
      </trkpt>
      <trkpt lat="48.25113" lon="5.06091">
        <ele>454.6</ele>
        <time>2019-07-06T18:51:02Z</time>
      </trkpt>
      <trkpt lat="48.25122" lon="5.06109">
        <ele>454.8</ele>
        <time>2019-07-06T18:51:06Z</time>
      </trkpt>
      <trkpt lat="48.25131" lon="5.06126">
        <ele>455.8</ele>
        <time>2019-07-06T18:51:10Z</time>
      </trkpt>
      <trkpt lat="48.25139" lon="5.06142">
        <ele>455.8</ele>
        <time>2019-07-06T18:51:14Z</time>
      </trkpt>
      <trkpt lat="48.25147" lon="5.06156">
        <ele>456.8</ele>
        <time>2019-07-06T18:51:18Z</time>
      </trkpt>
      <trkpt lat="48.25154" lon="5.0617">
        <ele>457.6</ele>
        <time>2019-07-06T18:51:22Z</time>
      </trkpt>
      <trkpt lat="48.25163" lon="5.06183">
        <ele>458</ele>
        <time>2019-07-06T18:51:26Z</time>
      </trkpt>
      <trkpt lat="48.25169" lon="5.06197">
        <ele>458.6</ele>
        <time>2019-07-06T18:51:30Z</time>
      </trkpt>
      <trkpt lat="48.25177" lon="5.0621">
        <ele>459.4</ele>
        <time>2019-07-06T18:51:34Z</time>
      </trkpt>
      <trkpt lat="48.25186" lon="5.06225">
        <ele>460.2</ele>
        <time>2019-07-06T18:51:38Z</time>
      </trkpt>
      <trkpt lat="48.25194" lon="5.06239">
        <ele>460.4</ele>
        <time>2019-07-06T18:51:42Z</time>
      </trkpt>
      <trkpt lat="48.25201" lon="5.06252">
        <ele>460.8</ele>
        <time>2019-07-06T18:51:46Z</time>
      </trkpt>
      <trkpt lat="48.25209" lon="5.06265">
        <ele>461.6</ele>
        <time>2019-07-06T18:51:50Z</time>
      </trkpt>
      <trkpt lat="48.25215" lon="5.06278">
        <ele>462.6</ele>
        <time>2019-07-06T18:51:54Z</time>
      </trkpt>
      <trkpt lat="48.25222" lon="5.0629">
        <ele>461.8</ele>
        <time>2019-07-06T18:51:58Z</time>
      </trkpt>
      <trkpt lat="48.25228" lon="5.06301">
        <ele>462.6</ele>
        <time>2019-07-06T18:52:02Z</time>
      </trkpt>
      <trkpt lat="48.25234" lon="5.06312">
        <ele>463.2</ele>
        <time>2019-07-06T18:52:06Z</time>
      </trkpt>
      <trkpt lat="48.25241" lon="5.06325">
        <ele>463.8</ele>
        <time>2019-07-06T18:52:10Z</time>
      </trkpt>
      <trkpt lat="48.2525" lon="5.06339">
        <ele>463.8</ele>
        <time>2019-07-06T18:52:14Z</time>
      </trkpt>
      <trkpt lat="48.25257" lon="5.0635">
        <ele>464.6</ele>
        <time>2019-07-06T18:52:18Z</time>
      </trkpt>
      <trkpt lat="48.25264" lon="5.06362">
        <ele>464.6</ele>
        <time>2019-07-06T18:52:22Z</time>
      </trkpt>
      <trkpt lat="48.25273" lon="5.06379">
        <ele>464.6</ele>
        <time>2019-07-06T18:52:26Z</time>
      </trkpt>
      <trkpt lat="48.25281" lon="5.06395">
        <ele>464.4</ele>
        <time>2019-07-06T18:52:30Z</time>
      </trkpt>
      <trkpt lat="48.25293" lon="5.06412">
        <ele>464.4</ele>
        <time>2019-07-06T18:52:34Z</time>
      </trkpt>
      <trkpt lat="48.25304" lon="5.06431">
        <ele>464</ele>
        <time>2019-07-06T18:52:38Z</time>
      </trkpt>
      <trkpt lat="48.25315" lon="5.06451">
        <ele>464</ele>
        <time>2019-07-06T18:52:42Z</time>
      </trkpt>
      <trkpt lat="48.25325" lon="5.06472">
        <ele>463.6</ele>
        <time>2019-07-06T18:52:46Z</time>
      </trkpt>
      <trkpt lat="48.25335" lon="5.06497">
        <ele>463.2</ele>
        <time>2019-07-06T18:52:50Z</time>
      </trkpt>
      <trkpt lat="48.25349" lon="5.06523">
        <ele>462.6</ele>
        <time>2019-07-06T18:52:54Z</time>
      </trkpt>
      <trkpt lat="48.25364" lon="5.06553">
        <ele>461.8</ele>
        <time>2019-07-06T18:52:58Z</time>
      </trkpt>
      <trkpt lat="48.2538" lon="5.06584">
        <ele>461.8</ele>
        <time>2019-07-06T18:53:02Z</time>
      </trkpt>
      <trkpt lat="48.25398" lon="5.06616">
        <ele>460.6</ele>
        <time>2019-07-06T18:53:06Z</time>
      </trkpt>
      <trkpt lat="48.25416" lon="5.06648">
        <ele>460.2</ele>
        <time>2019-07-06T18:53:10Z</time>
      </trkpt>
      <trkpt lat="48.25435" lon="5.06682">
        <ele>460</ele>
        <time>2019-07-06T18:53:14Z</time>
      </trkpt>
      <trkpt lat="48.25454" lon="5.06715">
        <ele>458.8</ele>
        <time>2019-07-06T18:53:18Z</time>
      </trkpt>
      <trkpt lat="48.25463" lon="5.06732">
        <ele>458.6</ele>
        <time>2019-07-06T18:53:22Z</time>
      </trkpt>
      <trkpt lat="48.25473" lon="5.06753">
        <ele>457.8</ele>
        <time>2019-07-06T18:53:26Z</time>
      </trkpt>
      <trkpt lat="48.25487" lon="5.06781">
        <ele>455.4</ele>
        <time>2019-07-06T18:53:30Z</time>
      </trkpt>
      <trkpt lat="48.25501" lon="5.06814">
        <ele>452.6</ele>
        <time>2019-07-06T18:53:34Z</time>
      </trkpt>
      <trkpt lat="48.25519" lon="5.06847">
        <ele>451.6</ele>
        <time>2019-07-06T18:53:38Z</time>
      </trkpt>
      <trkpt lat="48.25538" lon="5.06887">
        <ele>447.6</ele>
        <time>2019-07-06T18:53:42Z</time>
      </trkpt>
      <trkpt lat="48.25563" lon="5.06927">
        <ele>443.6</ele>
        <time>2019-07-06T18:53:46Z</time>
      </trkpt>
      <trkpt lat="48.25601" lon="5.06989">
        <ele>439.6</ele>
        <time>2019-07-06T18:53:50Z</time>
      </trkpt>
      <trkpt lat="48.25629" lon="5.07039">
        <ele>435.6</ele>
        <time>2019-07-06T18:53:54Z</time>
      </trkpt>
      <trkpt lat="48.25657" lon="5.07085">
        <ele>431.6</ele>
        <time>2019-07-06T18:53:58Z</time>
      </trkpt>
      <trkpt lat="48.25683" lon="5.0713">
        <ele>428</ele>
        <time>2019-07-06T18:54:02Z</time>
      </trkpt>
      <trkpt lat="48.25706" lon="5.07176">
        <ele>427.6</ele>
        <time>2019-07-06T18:54:06Z</time>
      </trkpt>
      <trkpt lat="48.25727" lon="5.07212">
        <ele>429.6</ele>
        <time>2019-07-06T18:54:10Z</time>
      </trkpt>
      <trkpt lat="48.25744" lon="5.0724">
        <ele>428.6</ele>
        <time>2019-07-06T18:54:14Z</time>
      </trkpt>
      <trkpt lat="48.25763" lon="5.07272">
        <ele>427.6</ele>
        <time>2019-07-06T18:54:18Z</time>
      </trkpt>
      <trkpt lat="48.25781" lon="5.07306">
        <ele>424.4</ele>
        <time>2019-07-06T18:54:22Z</time>
      </trkpt>
      <trkpt lat="48.25803" lon="5.07344">
        <ele>421.4</ele>
        <time>2019-07-06T18:54:26Z</time>
      </trkpt>
      <trkpt lat="48.25823" lon="5.07383">
        <ele>420.4</ele>
        <time>2019-07-06T18:54:30Z</time>
      </trkpt>
      <trkpt lat="48.25842" lon="5.07421">
        <ele>418.6</ele>
        <time>2019-07-06T18:54:34Z</time>
      </trkpt>
      <trkpt lat="48.25859" lon="5.07459">
        <ele>417.8</ele>
        <time>2019-07-06T18:54:38Z</time>
      </trkpt>
      <trkpt lat="48.2588" lon="5.07501">
        <ele>416.8</ele>
        <time>2019-07-06T18:54:42Z</time>
      </trkpt>
      <trkpt lat="48.25901" lon="5.07538">
        <ele>417</ele>
        <time>2019-07-06T18:54:46Z</time>
      </trkpt>
      <trkpt lat="48.25918" lon="5.07567">
        <ele>416</ele>
        <time>2019-07-06T18:54:50Z</time>
      </trkpt>
      <trkpt lat="48.2594" lon="5.07586">
        <ele>412</ele>
        <time>2019-07-06T18:54:54Z</time>
      </trkpt>
      <trkpt lat="48.25968" lon="5.07602">
        <ele>410.6</ele>
        <time>2019-07-06T18:54:58Z</time>
      </trkpt>
      <trkpt lat="48.25992" lon="5.07635">
        <ele>411.6</ele>
        <time>2019-07-06T18:55:02Z</time>
      </trkpt>
      <trkpt lat="48.26012" lon="5.07661">
        <ele>414.4</ele>
        <time>2019-07-06T18:55:06Z</time>
      </trkpt>
      <trkpt lat="48.26027" lon="5.07675">
        <ele>415.8</ele>
        <time>2019-07-06T18:55:10Z</time>
      </trkpt>
      <trkpt lat="48.26039" lon="5.07683">
        <ele>417.2</ele>
        <time>2019-07-06T18:55:14Z</time>
      </trkpt>
      <trkpt lat="48.26051" lon="5.07691">
        <ele>418.4</ele>
        <time>2019-07-06T18:55:18Z</time>
      </trkpt>
      <trkpt lat="48.26061" lon="5.07699">
        <ele>419.2</ele>
        <time>2019-07-06T18:55:22Z</time>
      </trkpt>
      <trkpt lat="48.26072" lon="5.07708">
        <ele>419.8</ele>
        <time>2019-07-06T18:55:26Z</time>
      </trkpt>
      <trkpt lat="48.26083" lon="5.07715">
        <ele>420</ele>
        <time>2019-07-06T18:55:30Z</time>
      </trkpt>
      <trkpt lat="48.26094" lon="5.07724">
        <ele>420</ele>
        <time>2019-07-06T18:55:34Z</time>
      </trkpt>
      <trkpt lat="48.26104" lon="5.07732">
        <ele>421.4</ele>
        <time>2019-07-06T18:55:38Z</time>
      </trkpt>
      <trkpt lat="48.26112" lon="5.07739">
        <ele>422.2</ele>
        <time>2019-07-06T18:55:42Z</time>
      </trkpt>
      <trkpt lat="48.26119" lon="5.07746">
        <ele>421.8</ele>
        <time>2019-07-06T18:55:46Z</time>
      </trkpt>
      <trkpt lat="48.26125" lon="5.07754">
        <ele>422.4</ele>
        <time>2019-07-06T18:55:50Z</time>
      </trkpt>
      <trkpt lat="48.26132" lon="5.07764">
        <ele>422.8</ele>
        <time>2019-07-06T18:55:54Z</time>
      </trkpt>
      <trkpt lat="48.26139" lon="5.07772">
        <ele>423.2</ele>
        <time>2019-07-06T18:55:58Z</time>
      </trkpt>
      <trkpt lat="48.26147" lon="5.07781">
        <ele>423.4</ele>
        <time>2019-07-06T18:56:02Z</time>
      </trkpt>
      <trkpt lat="48.26154" lon="5.07789">
        <ele>424.2</ele>
        <time>2019-07-06T18:56:06Z</time>
      </trkpt>
      <trkpt lat="48.26161" lon="5.07795">
        <ele>424.2</ele>
        <time>2019-07-06T18:56:10Z</time>
      </trkpt>
      <trkpt lat="48.26168" lon="5.07802">
        <ele>424.8</ele>
        <time>2019-07-06T18:56:14Z</time>
      </trkpt>
      <trkpt lat="48.26177" lon="5.07809">
        <ele>425.2</ele>
        <time>2019-07-06T18:56:18Z</time>
      </trkpt>
      <trkpt lat="48.26187" lon="5.0782">
        <ele>425.4</ele>
        <time>2019-07-06T18:56:22Z</time>
      </trkpt>
      <trkpt lat="48.26197" lon="5.07828">
        <ele>425.6</ele>
        <time>2019-07-06T18:56:26Z</time>
      </trkpt>
      <trkpt lat="48.26208" lon="5.07833">
        <ele>426</ele>
        <time>2019-07-06T18:56:30Z</time>
      </trkpt>
      <trkpt lat="48.26219" lon="5.07837">
        <ele>426</ele>
        <time>2019-07-06T18:56:34Z</time>
      </trkpt>
      <trkpt lat="48.2623" lon="5.07842">
        <ele>426.6</ele>
        <time>2019-07-06T18:56:38Z</time>
      </trkpt>
      <trkpt lat="48.26239" lon="5.07845">
        <ele>427</ele>
        <time>2019-07-06T18:56:42Z</time>
      </trkpt>
      <trkpt lat="48.2625" lon="5.07851">
        <ele>427</ele>
        <time>2019-07-06T18:56:46Z</time>
      </trkpt>
      <trkpt lat="48.2626" lon="5.07858">
        <ele>427</ele>
        <time>2019-07-06T18:56:50Z</time>
      </trkpt>
      <trkpt lat="48.26272" lon="5.07865">
        <ele>427</ele>
        <time>2019-07-06T18:56:54Z</time>
      </trkpt>
      <trkpt lat="48.26281" lon="5.07872">
        <ele>428</ele>
        <time>2019-07-06T18:56:58Z</time>
      </trkpt>
      <trkpt lat="48.26292" lon="5.07879">
        <ele>428.2</ele>
        <time>2019-07-06T18:57:02Z</time>
      </trkpt>
      <trkpt lat="48.26301" lon="5.07885">
        <ele>428.6</ele>
        <time>2019-07-06T18:57:06Z</time>
      </trkpt>
      <trkpt lat="48.26312" lon="5.07892">
        <ele>429.2</ele>
        <time>2019-07-06T18:57:10Z</time>
      </trkpt>
      <trkpt lat="48.26322" lon="5.07898">
        <ele>429.2</ele>
        <time>2019-07-06T18:57:14Z</time>
      </trkpt>
      <trkpt lat="48.26335" lon="5.07903">
        <ele>430</ele>
        <time>2019-07-06T18:57:18Z</time>
      </trkpt>
      <trkpt lat="48.26345" lon="5.07912">
        <ele>430</ele>
        <time>2019-07-06T18:57:22Z</time>
      </trkpt>
      <trkpt lat="48.26356" lon="5.0792">
        <ele>430</ele>
        <time>2019-07-06T18:57:26Z</time>
      </trkpt>
      <trkpt lat="48.26367" lon="5.07928">
        <ele>430.4</ele>
        <time>2019-07-06T18:57:30Z</time>
      </trkpt>
      <trkpt lat="48.26378" lon="5.07935">
        <ele>430.8</ele>
        <time>2019-07-06T18:57:34Z</time>
      </trkpt>
      <trkpt lat="48.26389" lon="5.07943">
        <ele>430.4</ele>
        <time>2019-07-06T18:57:38Z</time>
      </trkpt>
      <trkpt lat="48.26403" lon="5.07953">
        <ele>430.4</ele>
        <time>2019-07-06T18:57:42Z</time>
      </trkpt>
      <trkpt lat="48.26416" lon="5.07966">
        <ele>430.4</ele>
        <time>2019-07-06T18:57:46Z</time>
      </trkpt>
      <trkpt lat="48.26428" lon="5.07979">
        <ele>430.4</ele>
        <time>2019-07-06T18:57:50Z</time>
      </trkpt>
      <trkpt lat="48.2644" lon="5.07993">
        <ele>431</ele>
        <time>2019-07-06T18:57:54Z</time>
      </trkpt>
      <trkpt lat="48.26454" lon="5.08006">
        <ele>431.2</ele>
        <time>2019-07-06T18:57:58Z</time>
      </trkpt>
      <trkpt lat="48.26467" lon="5.08017">
        <ele>432.2</ele>
        <time>2019-07-06T18:58:02Z</time>
      </trkpt>
      <trkpt lat="48.2648" lon="5.08026">
        <ele>431.2</ele>
        <time>2019-07-06T18:58:06Z</time>
      </trkpt>
      <trkpt lat="48.26494" lon="5.08033">
        <ele>432.4</ele>
        <time>2019-07-06T18:58:10Z</time>
      </trkpt>
      <trkpt lat="48.26506" lon="5.08041">
        <ele>432.4</ele>
        <time>2019-07-06T18:58:14Z</time>
      </trkpt>
      <trkpt lat="48.26523" lon="5.08054">
        <ele>431.8</ele>
        <time>2019-07-06T18:58:18Z</time>
      </trkpt>
      <trkpt lat="48.26535" lon="5.08071">
        <ele>431.8</ele>
        <time>2019-07-06T18:58:22Z</time>
      </trkpt>
      <trkpt lat="48.26549" lon="5.08089">
        <ele>431.8</ele>
        <time>2019-07-06T18:58:26Z</time>
      </trkpt>
      <trkpt lat="48.26561" lon="5.0811">
        <ele>430.8</ele>
        <time>2019-07-06T18:58:30Z</time>
      </trkpt>
      <trkpt lat="48.26574" lon="5.0813">
        <ele>429.4</ele>
        <time>2019-07-06T18:58:34Z</time>
      </trkpt>
      <trkpt lat="48.26593" lon="5.08147">
        <ele>428.4</ele>
        <time>2019-07-06T18:58:38Z</time>
      </trkpt>
      <trkpt lat="48.26607" lon="5.08165">
        <ele>427</ele>
        <time>2019-07-06T18:58:42Z</time>
      </trkpt>
      <trkpt lat="48.26601" lon="5.0819">
        <ele>427.2</ele>
        <time>2019-07-06T18:58:46Z</time>
      </trkpt>
      <trkpt lat="48.26586" lon="5.08208">
        <ele>427.8</ele>
        <time>2019-07-06T18:58:50Z</time>
      </trkpt>
      <trkpt lat="48.26572" lon="5.08225">
        <ele>427.8</ele>
        <time>2019-07-06T18:58:54Z</time>
      </trkpt>
      <trkpt lat="48.2656" lon="5.08244">
        <ele>427.4</ele>
        <time>2019-07-06T18:58:58Z</time>
      </trkpt>
      <trkpt lat="48.26543" lon="5.08264">
        <ele>427.6</ele>
        <time>2019-07-06T18:59:02Z</time>
      </trkpt>
      <trkpt lat="48.26526" lon="5.08286">
        <ele>427</ele>
        <time>2019-07-06T18:59:06Z</time>
      </trkpt>
      <trkpt lat="48.26513" lon="5.08309">
        <ele>426</ele>
        <time>2019-07-06T18:59:10Z</time>
      </trkpt>
      <trkpt lat="48.26494" lon="5.0833">
        <ele>424.8</ele>
        <time>2019-07-06T18:59:14Z</time>
      </trkpt>
      <trkpt lat="48.2647" lon="5.08359">
        <ele>422.8</ele>
        <time>2019-07-06T18:59:18Z</time>
      </trkpt>
      <trkpt lat="48.26451" lon="5.0838">
        <ele>421.2</ele>
        <time>2019-07-06T18:59:22Z</time>
      </trkpt>
      <trkpt lat="48.26428" lon="5.08412">
        <ele>419</ele>
        <time>2019-07-06T18:59:26Z</time>
      </trkpt>
      <trkpt lat="48.26408" lon="5.08441">
        <ele>416.8</ele>
        <time>2019-07-06T18:59:30Z</time>
      </trkpt>
      <trkpt lat="48.26398" lon="5.08462">
        <ele>416.4</ele>
        <time>2019-07-06T18:59:34Z</time>
      </trkpt>
      <trkpt lat="48.26399" lon="5.08486">
        <ele>415</ele>
        <time>2019-07-06T18:59:38Z</time>
      </trkpt>
      <trkpt lat="48.26399" lon="5.08508">
        <ele>415</ele>
        <time>2019-07-06T18:59:42Z</time>
      </trkpt>
      <trkpt lat="48.264" lon="5.08534">
        <ele>412</ele>
        <time>2019-07-06T18:59:46Z</time>
      </trkpt>
      <trkpt lat="48.26403" lon="5.08564">
        <ele>411</ele>
        <time>2019-07-06T18:59:50Z</time>
      </trkpt>
      <trkpt lat="48.26407" lon="5.08584">
        <ele>411.2</ele>
        <time>2019-07-06T18:59:54Z</time>
      </trkpt>
      <trkpt lat="48.26416" lon="5.08597">
        <ele>412.2</ele>
        <time>2019-07-06T18:59:58Z</time>
      </trkpt>
      <trkpt lat="48.26422" lon="5.08613">
        <ele>412.2</ele>
        <time>2019-07-06T19:00:02Z</time>
      </trkpt>
      <trkpt lat="48.2643" lon="5.08635">
        <ele>411.2</ele>
        <time>2019-07-06T19:00:06Z</time>
      </trkpt>
      <trkpt lat="48.26442" lon="5.08638">
        <ele>411.2</ele>
        <time>2019-07-06T19:00:10Z</time>
      </trkpt>
      <trkpt lat="48.26453" lon="5.08634">
        <ele>412.4</ele>
        <time>2019-07-06T19:00:14Z</time>
      </trkpt>
      <trkpt lat="48.26461" lon="5.08628">
        <ele>413.4</ele>
        <time>2019-07-06T19:00:18Z</time>
      </trkpt>
      <trkpt lat="48.26469" lon="5.08622">
        <ele>413.6</ele>
        <time>2019-07-06T19:00:22Z</time>
      </trkpt>
      <trkpt lat="48.26478" lon="5.08614">
        <ele>413.8</ele>
        <time>2019-07-06T19:00:26Z</time>
      </trkpt>
      <trkpt lat="48.26485" lon="5.08604">
        <ele>413.8</ele>
        <time>2019-07-06T19:00:30Z</time>
      </trkpt>
      <trkpt lat="48.26494" lon="5.08596">
        <ele>414.4</ele>
        <time>2019-07-06T19:00:34Z</time>
      </trkpt>
      <trkpt lat="48.26503" lon="5.08585">
        <ele>414.4</ele>
        <time>2019-07-06T19:00:38Z</time>
      </trkpt>
      <trkpt lat="48.26509" lon="5.08576">
        <ele>414.4</ele>
        <time>2019-07-06T19:00:42Z</time>
      </trkpt>
      <trkpt lat="48.26519" lon="5.08567">
        <ele>415.2</ele>
        <time>2019-07-06T19:00:46Z</time>
      </trkpt>
      <trkpt lat="48.26519" lon="5.08567">
        <ele>415.2</ele>
        <time>2019-07-06T19:00:50Z</time>
      </trkpt>
      <trkpt lat="48.26519" lon="5.08567">
        <ele>415.2</ele>
        <time>2019-07-06T19:00:54Z</time>
      </trkpt>
      <trkpt lat="48.26519" lon="5.08567">
        <ele>415.2</ele>
        <time>2019-07-06T19:00:58Z</time>
      </trkpt>
      <trkpt lat="48.26519" lon="5.08567">
        <ele>415.2</ele>
        <time>2019-07-06T19:01:02Z</time>
      </trkpt>
      <trkpt lat="48.2653" lon="5.08559">
        <ele>414.8</ele>
        <time>2019-07-06T19:01:06Z</time>
      </trkpt>
      <trkpt lat="48.26535" lon="5.08552">
        <ele>412.8</ele>
        <time>2019-07-06T19:01:10Z</time>
      </trkpt>
      <trkpt lat="48.26544" lon="5.08537">
        <ele>410.8</ele>
        <time>2019-07-06T19:01:14Z</time>
      </trkpt>
      <trkpt lat="48.26555" lon="5.08519">
        <ele>410.4</ele>
        <time>2019-07-06T19:01:18Z</time>
      </trkpt>
      <trkpt lat="48.26573" lon="5.08496">
        <ele>409.6</ele>
        <time>2019-07-06T19:01:22Z</time>
      </trkpt>
      <trkpt lat="48.26589" lon="5.08473">
        <ele>408.2</ele>
        <time>2019-07-06T19:01:26Z</time>
      </trkpt>
      <trkpt lat="48.266" lon="5.08459">
        <ele>410.6</ele>
        <time>2019-07-06T19:01:30Z</time>
      </trkpt>
      <trkpt lat="48.26611" lon="5.08446">
        <ele>410.4</ele>
        <time>2019-07-06T19:01:34Z</time>
      </trkpt>
      <trkpt lat="48.26623" lon="5.08438">
        <ele>410.8</ele>
        <time>2019-07-06T19:01:38Z</time>
      </trkpt>
      <trkpt lat="48.26631" lon="5.08448">
        <ele>409.6</ele>
        <time>2019-07-06T19:01:42Z</time>
      </trkpt>
      <trkpt lat="48.26635" lon="5.08465">
        <ele>407.6</ele>
        <time>2019-07-06T19:01:46Z</time>
      </trkpt>
      <trkpt lat="48.26635" lon="5.08489">
        <ele>406.6</ele>
        <time>2019-07-06T19:01:50Z</time>
      </trkpt>
      <trkpt lat="48.26638" lon="5.08517">
        <ele>405.8</ele>
        <time>2019-07-06T19:01:54Z</time>
      </trkpt>
      <trkpt lat="48.26639" lon="5.08544">
        <ele>403.6</ele>
        <time>2019-07-06T19:01:58Z</time>
      </trkpt>
      <trkpt lat="48.26639" lon="5.08575">
        <ele>403.2</ele>
        <time>2019-07-06T19:02:02Z</time>
      </trkpt>
      <trkpt lat="48.26633" lon="5.08606">
        <ele>403.2</ele>
        <time>2019-07-06T19:02:06Z</time>
      </trkpt>
      <trkpt lat="48.26632" lon="5.0863">
        <ele>404.6</ele>
        <time>2019-07-06T19:02:10Z</time>
      </trkpt>
      <trkpt lat="48.26631" lon="5.0865">
        <ele>404.2</ele>
        <time>2019-07-06T19:02:14Z</time>
      </trkpt>
      <trkpt lat="48.2663" lon="5.08671">
        <ele>404.6</ele>
        <time>2019-07-06T19:02:18Z</time>
      </trkpt>
      <trkpt lat="48.26629" lon="5.08689">
        <ele>405.8</ele>
        <time>2019-07-06T19:02:22Z</time>
      </trkpt>
      <trkpt lat="48.26618" lon="5.08707">
        <ele>404.8</ele>
        <time>2019-07-06T19:02:26Z</time>
      </trkpt>
      <trkpt lat="48.26605" lon="5.08726">
        <ele>401.2</ele>
        <time>2019-07-06T19:02:30Z</time>
      </trkpt>
      <trkpt lat="48.26591" lon="5.08745">
        <ele>398</ele>
        <time>2019-07-06T19:02:34Z</time>
      </trkpt>
      <trkpt lat="48.26577" lon="5.08761">
        <ele>394</ele>
        <time>2019-07-06T19:02:38Z</time>
      </trkpt>
      <trkpt lat="48.26575" lon="5.08777">
        <ele>393</ele>
        <time>2019-07-06T19:02:42Z</time>
      </trkpt>
      <trkpt lat="48.26572" lon="5.08795">
        <ele>394.4</ele>
        <time>2019-07-06T19:02:46Z</time>
      </trkpt>
      <trkpt lat="48.26572" lon="5.08811">
        <ele>395</ele>
        <time>2019-07-06T19:02:50Z</time>
      </trkpt>
      <trkpt lat="48.26574" lon="5.08827">
        <ele>397.2</ele>
        <time>2019-07-06T19:02:54Z</time>
      </trkpt>
      <trkpt lat="48.26573" lon="5.0884">
        <ele>397.2</ele>
        <time>2019-07-06T19:02:58Z</time>
      </trkpt>
      <trkpt lat="48.26572" lon="5.08854">
        <ele>397.8</ele>
        <time>2019-07-06T19:03:02Z</time>
      </trkpt>
      <trkpt lat="48.26571" lon="5.08866">
        <ele>397.6</ele>
        <time>2019-07-06T19:03:06Z</time>
      </trkpt>
      <trkpt lat="48.26572" lon="5.08879">
        <ele>397.6</ele>
        <time>2019-07-06T19:03:10Z</time>
      </trkpt>
      <trkpt lat="48.26571" lon="5.08892">
        <ele>398.6</ele>
        <time>2019-07-06T19:03:14Z</time>
      </trkpt>
      <trkpt lat="48.26571" lon="5.08904">
        <ele>399.2</ele>
        <time>2019-07-06T19:03:18Z</time>
      </trkpt>
      <trkpt lat="48.26572" lon="5.08916">
        <ele>399.4</ele>
        <time>2019-07-06T19:03:22Z</time>
      </trkpt>
      <trkpt lat="48.26573" lon="5.08929">
        <ele>399.4</ele>
        <time>2019-07-06T19:03:26Z</time>
      </trkpt>
      <trkpt lat="48.26573" lon="5.08942">
        <ele>399.8</ele>
        <time>2019-07-06T19:03:30Z</time>
      </trkpt>
      <trkpt lat="48.26573" lon="5.08954">
        <ele>399.2</ele>
        <time>2019-07-06T19:03:34Z</time>
      </trkpt>
      <trkpt lat="48.26573" lon="5.08966">
        <ele>399</ele>
        <time>2019-07-06T19:03:38Z</time>
      </trkpt>
      <trkpt lat="48.26573" lon="5.08979">
        <ele>399.6</ele>
        <time>2019-07-06T19:03:42Z</time>
      </trkpt>
      <trkpt lat="48.26575" lon="5.08994">
        <ele>400</ele>
        <time>2019-07-06T19:03:46Z</time>
      </trkpt>
      <trkpt lat="48.26576" lon="5.09007">
        <ele>400.2</ele>
        <time>2019-07-06T19:03:50Z</time>
      </trkpt>
      <trkpt lat="48.26576" lon="5.09026">
        <ele>398.6</ele>
        <time>2019-07-06T19:03:54Z</time>
      </trkpt>
      <trkpt lat="48.26579" lon="5.09046">
        <ele>398.8</ele>
        <time>2019-07-06T19:03:58Z</time>
      </trkpt>
      <trkpt lat="48.26583" lon="5.09068">
        <ele>397.8</ele>
        <time>2019-07-06T19:04:02Z</time>
      </trkpt>
      <trkpt lat="48.26587" lon="5.09081">
        <ele>398.8</ele>
        <time>2019-07-06T19:04:06Z</time>
      </trkpt>
      <trkpt lat="48.26588" lon="5.09091">
        <ele>399.6</ele>
        <time>2019-07-06T19:04:10Z</time>
      </trkpt>
      <trkpt lat="48.26593" lon="5.09106">
        <ele>400</ele>
        <time>2019-07-06T19:04:14Z</time>
      </trkpt>
      <trkpt lat="48.26593" lon="5.09117">
        <ele>400</ele>
        <time>2019-07-06T19:04:18Z</time>
      </trkpt>
      <trkpt lat="48.26596" lon="5.09131">
        <ele>399.2</ele>
        <time>2019-07-06T19:04:22Z</time>
      </trkpt>
      <trkpt lat="48.26601" lon="5.09145">
        <ele>399.2</ele>
        <time>2019-07-06T19:04:26Z</time>
      </trkpt>
      <trkpt lat="48.26607" lon="5.09158">
        <ele>400</ele>
        <time>2019-07-06T19:04:30Z</time>
      </trkpt>
      <trkpt lat="48.26612" lon="5.09171">
        <ele>398.8</ele>
        <time>2019-07-06T19:04:34Z</time>
      </trkpt>
      <trkpt lat="48.26616" lon="5.09179">
        <ele>399.2</ele>
        <time>2019-07-06T19:04:38Z</time>
      </trkpt>
      <trkpt lat="48.26618" lon="5.09179">
        <ele>400.6</ele>
        <time>2019-07-06T19:04:42Z</time>
      </trkpt>
      <trkpt lat="48.26618" lon="5.09176">
        <ele>401.6</ele>
        <time>2019-07-06T19:04:46Z</time>
      </trkpt>
      <trkpt lat="48.26618" lon="5.0917">
        <ele>402</ele>
        <time>2019-07-06T19:04:50Z</time>
      </trkpt>
      <trkpt lat="48.26618" lon="5.09163">
        <ele>402.8</ele>
        <time>2019-07-06T19:04:54Z</time>
      </trkpt>
      <trkpt lat="48.26621" lon="5.0916">
        <ele>403.4</ele>
        <time>2019-07-06T19:04:58Z</time>
      </trkpt>
      <trkpt lat="48.26625" lon="5.09164">
        <ele>404</ele>
        <time>2019-07-06T19:05:02Z</time>
      </trkpt>
      <trkpt lat="48.26629" lon="5.09171">
        <ele>404</ele>
        <time>2019-07-06T19:05:06Z</time>
      </trkpt>
      <trkpt lat="48.26634" lon="5.09182">
        <ele>403.4</ele>
        <time>2019-07-06T19:05:10Z</time>
      </trkpt>
      <trkpt lat="48.26637" lon="5.09191">
        <ele>403.4</ele>
        <time>2019-07-06T19:05:14Z</time>
      </trkpt>
      <trkpt lat="48.26642" lon="5.092">
        <ele>404</ele>
        <time>2019-07-06T19:05:18Z</time>
      </trkpt>
      <trkpt lat="48.26647" lon="5.09212">
        <ele>404</ele>
        <time>2019-07-06T19:05:22Z</time>
      </trkpt>
      <trkpt lat="48.26652" lon="5.09224">
        <ele>404</ele>
        <time>2019-07-06T19:05:26Z</time>
      </trkpt>
      <trkpt lat="48.26655" lon="5.0924">
        <ele>403.6</ele>
        <time>2019-07-06T19:05:30Z</time>
      </trkpt>
      <trkpt lat="48.26663" lon="5.09256">
        <ele>402.6</ele>
        <time>2019-07-06T19:05:34Z</time>
      </trkpt>
      <trkpt lat="48.26671" lon="5.09272">
        <ele>403.4</ele>
        <time>2019-07-06T19:05:38Z</time>
      </trkpt>
      <trkpt lat="48.26676" lon="5.09289">
        <ele>404.4</ele>
        <time>2019-07-06T19:05:42Z</time>
      </trkpt>
      <trkpt lat="48.26681" lon="5.0931">
        <ele>403.6</ele>
        <time>2019-07-06T19:05:46Z</time>
      </trkpt>
      <trkpt lat="48.26687" lon="5.0933">
        <ele>402</ele>
        <time>2019-07-06T19:05:50Z</time>
      </trkpt>
      <trkpt lat="48.26691" lon="5.09357">
        <ele>400.4</ele>
        <time>2019-07-06T19:05:54Z</time>
      </trkpt>
      <trkpt lat="48.26698" lon="5.09382">
        <ele>399.4</ele>
        <time>2019-07-06T19:05:58Z</time>
      </trkpt>
      <trkpt lat="48.26705" lon="5.09404">
        <ele>398.4</ele>
        <time>2019-07-06T19:06:02Z</time>
      </trkpt>
      <trkpt lat="48.26712" lon="5.09431">
        <ele>399.2</ele>
        <time>2019-07-06T19:06:06Z</time>
      </trkpt>
      <trkpt lat="48.26716" lon="5.09459">
        <ele>396.6</ele>
        <time>2019-07-06T19:06:10Z</time>
      </trkpt>
      <trkpt lat="48.26723" lon="5.09479">
        <ele>396.2</ele>
        <time>2019-07-06T19:06:14Z</time>
      </trkpt>
      <trkpt lat="48.26728" lon="5.09504">
        <ele>396</ele>
        <time>2019-07-06T19:06:18Z</time>
      </trkpt>
      <trkpt lat="48.26735" lon="5.09525">
        <ele>395.8</ele>
        <time>2019-07-06T19:06:22Z</time>
      </trkpt>
      <trkpt lat="48.26739" lon="5.09548">
        <ele>396</ele>
        <time>2019-07-06T19:06:26Z</time>
      </trkpt>
      <trkpt lat="48.26735" lon="5.09562">
        <ele>394.2</ele>
        <time>2019-07-06T19:06:30Z</time>
      </trkpt>
      <trkpt lat="48.26739" lon="5.09574">
        <ele>394.8</ele>
        <time>2019-07-06T19:06:34Z</time>
      </trkpt>
      <trkpt lat="48.26742" lon="5.09588">
        <ele>394.4</ele>
        <time>2019-07-06T19:06:38Z</time>
      </trkpt>
      <trkpt lat="48.26743" lon="5.09603">
        <ele>395</ele>
        <time>2019-07-06T19:06:42Z</time>
      </trkpt>
      <trkpt lat="48.26745" lon="5.09617">
        <ele>394.6</ele>
        <time>2019-07-06T19:06:46Z</time>
      </trkpt>
      <trkpt lat="48.26749" lon="5.0963">
        <ele>394.4</ele>
        <time>2019-07-06T19:06:50Z</time>
      </trkpt>
      <trkpt lat="48.2675" lon="5.09649">
        <ele>394.6</ele>
        <time>2019-07-06T19:06:54Z</time>
      </trkpt>
      <trkpt lat="48.26754" lon="5.0967">
        <ele>394.6</ele>
        <time>2019-07-06T19:06:58Z</time>
      </trkpt>
      <trkpt lat="48.26758" lon="5.09682">
        <ele>394.2</ele>
        <time>2019-07-06T19:07:02Z</time>
      </trkpt>
      <trkpt lat="48.2676" lon="5.09693">
        <ele>394.2</ele>
        <time>2019-07-06T19:07:06Z</time>
      </trkpt>
      <trkpt lat="48.26761" lon="5.09708">
        <ele>393.6</ele>
        <time>2019-07-06T19:07:10Z</time>
      </trkpt>
      <trkpt lat="48.26758" lon="5.09726">
        <ele>391.8</ele>
        <time>2019-07-06T19:07:14Z</time>
      </trkpt>
      <trkpt lat="48.26758" lon="5.09726">
        <ele>391.8</ele>
        <time>2019-07-06T19:07:18Z</time>
      </trkpt>
      <trkpt lat="48.26758" lon="5.09726">
        <ele>391.8</ele>
        <time>2019-07-06T19:07:22Z</time>
      </trkpt>
      <trkpt lat="48.26758" lon="5.09726">
        <ele>391.8</ele>
        <time>2019-07-06T19:07:26Z</time>
      </trkpt>
      <trkpt lat="48.26758" lon="5.09726">
        <ele>391.8</ele>
        <time>2019-07-06T19:07:30Z</time>
      </trkpt>
      <trkpt lat="48.26758" lon="5.09726">
        <ele>391.8</ele>
        <time>2019-07-06T19:07:34Z</time>
      </trkpt>
      <trkpt lat="48.26757" lon="5.09746">
        <ele>392.4</ele>
        <time>2019-07-06T19:07:38Z</time>
      </trkpt>
      <trkpt lat="48.26758" lon="5.09743">
        <ele>392.8</ele>
        <time>2019-07-06T19:07:42Z</time>
      </trkpt>
      <trkpt lat="48.26759" lon="5.09741">
        <ele>393</ele>
        <time>2019-07-06T19:07:46Z</time>
      </trkpt>
      <trkpt lat="48.26759" lon="5.09741">
        <ele>393</ele>
        <time>2019-07-06T19:07:50Z</time>
      </trkpt>
      <trkpt lat="48.26758" lon="5.09741">
        <ele>392.2</ele>
        <time>2019-07-06T19:07:54Z</time>
      </trkpt>
      <trkpt lat="48.26753" lon="5.09735">
        <ele>392.2</ele>
        <time>2019-07-06T19:07:58Z</time>
      </trkpt>
      <trkpt lat="48.26752" lon="5.09724">
        <ele>393</ele>
        <time>2019-07-06T19:08:02Z</time>
      </trkpt>
      <trkpt lat="48.26751" lon="5.09713">
        <ele>393.8</ele>
        <time>2019-07-06T19:08:06Z</time>
      </trkpt>
      <trkpt lat="48.26749" lon="5.09701">
        <ele>393.8</ele>
        <time>2019-07-06T19:08:10Z</time>
      </trkpt>
      <trkpt lat="48.26749" lon="5.09688">
        <ele>393</ele>
        <time>2019-07-06T19:08:14Z</time>
      </trkpt>
      <trkpt lat="48.26748" lon="5.09676">
        <ele>393.4</ele>
        <time>2019-07-06T19:08:18Z</time>
      </trkpt>
      <trkpt lat="48.26747" lon="5.0966">
        <ele>393.6</ele>
        <time>2019-07-06T19:08:22Z</time>
      </trkpt>
      <trkpt lat="48.26743" lon="5.09647">
        <ele>393.2</ele>
        <time>2019-07-06T19:08:26Z</time>
      </trkpt>
      <trkpt lat="48.26739" lon="5.09632">
        <ele>393.2</ele>
        <time>2019-07-06T19:08:30Z</time>
      </trkpt>
      <trkpt lat="48.26734" lon="5.09621">
        <ele>392.4</ele>
        <time>2019-07-06T19:08:34Z</time>
      </trkpt>
      <trkpt lat="48.26728" lon="5.09627">
        <ele>389.6</ele>
        <time>2019-07-06T19:08:38Z</time>
      </trkpt>
      <trkpt lat="48.26728" lon="5.09633">
        <ele>389.6</ele>
        <time>2019-07-06T19:08:42Z</time>
      </trkpt>
      <trkpt lat="48.26729" lon="5.0964">
        <ele>390.4</ele>
        <time>2019-07-06T19:08:46Z</time>
      </trkpt>
      <trkpt lat="48.26731" lon="5.09651">
        <ele>390.2</ele>
        <time>2019-07-06T19:08:50Z</time>
      </trkpt>
      <trkpt lat="48.26734" lon="5.09662">
        <ele>390</ele>
        <time>2019-07-06T19:08:54Z</time>
      </trkpt>
      <trkpt lat="48.26737" lon="5.0967">
        <ele>391</ele>
        <time>2019-07-06T19:08:58Z</time>
      </trkpt>
      <trkpt lat="48.26741" lon="5.09684">
        <ele>391</ele>
        <time>2019-07-06T19:09:02Z</time>
      </trkpt>
      <trkpt lat="48.26743" lon="5.09697">
        <ele>390</ele>
        <time>2019-07-06T19:09:06Z</time>
      </trkpt>
      <trkpt lat="48.26746" lon="5.09711">
        <ele>391.2</ele>
        <time>2019-07-06T19:09:10Z</time>
      </trkpt>
      <trkpt lat="48.26751" lon="5.09728">
        <ele>390.6</ele>
        <time>2019-07-06T19:09:14Z</time>
      </trkpt>
      <trkpt lat="48.26754" lon="5.09747">
        <ele>389.8</ele>
        <time>2019-07-06T19:09:18Z</time>
      </trkpt>
      <trkpt lat="48.26759" lon="5.09759">
        <ele>391.2</ele>
        <time>2019-07-06T19:09:22Z</time>
      </trkpt>
      <trkpt lat="48.26763" lon="5.09777">
        <ele>390.2</ele>
        <time>2019-07-06T19:09:26Z</time>
      </trkpt>
      <trkpt lat="48.26768" lon="5.09796">
        <ele>388.6</ele>
        <time>2019-07-06T19:09:30Z</time>
      </trkpt>
      <trkpt lat="48.26774" lon="5.09812">
        <ele>390</ele>
        <time>2019-07-06T19:09:34Z</time>
      </trkpt>
      <trkpt lat="48.2678" lon="5.09825">
        <ele>390</ele>
        <time>2019-07-06T19:09:38Z</time>
      </trkpt>
      <trkpt lat="48.26789" lon="5.09836">
        <ele>390</ele>
        <time>2019-07-06T19:09:42Z</time>
      </trkpt>
      <trkpt lat="48.268" lon="5.09848">
        <ele>390</ele>
        <time>2019-07-06T19:09:46Z</time>
      </trkpt>
      <trkpt lat="48.26806" lon="5.0986">
        <ele>388</ele>
        <time>2019-07-06T19:09:50Z</time>
      </trkpt>
      <trkpt lat="48.26799" lon="5.09879">
        <ele>384</ele>
        <time>2019-07-06T19:09:54Z</time>
      </trkpt>
      <trkpt lat="48.26788" lon="5.09881">
        <ele>382.8</ele>
        <time>2019-07-06T19:09:58Z</time>
      </trkpt>
      <trkpt lat="48.26781" lon="5.09877">
        <ele>383.6</ele>
        <time>2019-07-06T19:10:02Z</time>
      </trkpt>
      <trkpt lat="48.26776" lon="5.09875">
        <ele>382.6</ele>
        <time>2019-07-06T19:10:06Z</time>
      </trkpt>
      <trkpt lat="48.26774" lon="5.09882">
        <ele>381.2</ele>
        <time>2019-07-06T19:10:10Z</time>
      </trkpt>
      <trkpt lat="48.26778" lon="5.09894">
        <ele>381.2</ele>
        <time>2019-07-06T19:10:14Z</time>
      </trkpt>
      <trkpt lat="48.26785" lon="5.09903">
        <ele>380.4</ele>
        <time>2019-07-06T19:10:18Z</time>
      </trkpt>
      <trkpt lat="48.26796" lon="5.09916">
        <ele>380</ele>
        <time>2019-07-06T19:10:22Z</time>
      </trkpt>
      <trkpt lat="48.26803" lon="5.09926">
        <ele>380.4</ele>
        <time>2019-07-06T19:10:26Z</time>
      </trkpt>
      <trkpt lat="48.2681" lon="5.09932">
        <ele>380.8</ele>
        <time>2019-07-06T19:10:30Z</time>
      </trkpt>
      <trkpt lat="48.2681" lon="5.09932">
        <ele>380.8</ele>
        <time>2019-07-06T19:10:34Z</time>
      </trkpt>
      <trkpt lat="48.2682" lon="5.0994">
        <ele>380.6</ele>
        <time>2019-07-06T19:10:38Z</time>
      </trkpt>
      <trkpt lat="48.26825" lon="5.09946">
        <ele>379.6</ele>
        <time>2019-07-06T19:10:42Z</time>
      </trkpt>
      <trkpt lat="48.26832" lon="5.09959">
        <ele>379</ele>
        <time>2019-07-06T19:10:46Z</time>
      </trkpt>
      <trkpt lat="48.26844" lon="5.09968">
        <ele>380</ele>
        <time>2019-07-06T19:10:50Z</time>
      </trkpt>
      <trkpt lat="48.2685" lon="5.09974">
        <ele>378</ele>
        <time>2019-07-06T19:10:54Z</time>
      </trkpt>
      <trkpt lat="48.26856" lon="5.09986">
        <ele>375.6</ele>
        <time>2019-07-06T19:10:58Z</time>
      </trkpt>
      <trkpt lat="48.26864" lon="5.09995">
        <ele>375.2</ele>
        <time>2019-07-06T19:11:02Z</time>
      </trkpt>
      <trkpt lat="48.2687" lon="5.10004">
        <ele>374.8</ele>
        <time>2019-07-06T19:11:06Z</time>
      </trkpt>
      <trkpt lat="48.26876" lon="5.10015">
        <ele>375.4</ele>
        <time>2019-07-06T19:11:10Z</time>
      </trkpt>
      <trkpt lat="48.26882" lon="5.10025">
        <ele>376.4</ele>
        <time>2019-07-06T19:11:14Z</time>
      </trkpt>
      <trkpt lat="48.26888" lon="5.10033">
        <ele>377.2</ele>
        <time>2019-07-06T19:11:18Z</time>
      </trkpt>
      <trkpt lat="48.26896" lon="5.10043">
        <ele>378.2</ele>
        <time>2019-07-06T19:11:22Z</time>
      </trkpt>
      <trkpt lat="48.26902" lon="5.10049">
        <ele>379.6</ele>
        <time>2019-07-06T19:11:26Z</time>
      </trkpt>
      <trkpt lat="48.26909" lon="5.10053">
        <ele>381.2</ele>
        <time>2019-07-06T19:11:30Z</time>
      </trkpt>
      <trkpt lat="48.26917" lon="5.10059">
        <ele>383</ele>
        <time>2019-07-06T19:11:34Z</time>
      </trkpt>
      <trkpt lat="48.26925" lon="5.10065">
        <ele>382.6</ele>
        <time>2019-07-06T19:11:38Z</time>
      </trkpt>
      <trkpt lat="48.26925" lon="5.10065">
        <ele>382.6</ele>
        <time>2019-07-06T19:11:42Z</time>
      </trkpt>
      <trkpt lat="48.26925" lon="5.10065">
        <ele>382.6</ele>
        <time>2019-07-06T19:11:46Z</time>
      </trkpt>
      <trkpt lat="48.26925" lon="5.10065">
        <ele>382.6</ele>
        <time>2019-07-06T19:11:50Z</time>
      </trkpt>
      <trkpt lat="48.26925" lon="5.10065">
        <ele>382.6</ele>
        <time>2019-07-06T19:11:54Z</time>
      </trkpt>
      <trkpt lat="48.26925" lon="5.10065">
        <ele>382.6</ele>
        <time>2019-07-06T19:11:58Z</time>
      </trkpt>
      <trkpt lat="48.26925" lon="5.10065">
        <ele>382.6</ele>
        <time>2019-07-06T19:12:02Z</time>
      </trkpt>
      <trkpt lat="48.26925" lon="5.10065">
        <ele>382.6</ele>
        <time>2019-07-06T19:12:06Z</time>
      </trkpt>
      <trkpt lat="48.26925" lon="5.10065">
        <ele>382.6</ele>
        <time>2019-07-06T19:12:10Z</time>
      </trkpt>
      <trkpt lat="48.26925" lon="5.10065">
        <ele>382.6</ele>
        <time>2019-07-06T19:12:14Z</time>
      </trkpt>
      <trkpt lat="48.26925" lon="5.10065">
        <ele>382.6</ele>
        <time>2019-07-06T19:12:18Z</time>
      </trkpt>
      <trkpt lat="48.26925" lon="5.10065">
        <ele>382.6</ele>
        <time>2019-07-06T19:12:22Z</time>
      </trkpt>
      <trkpt lat="48.26934" lon="5.10072">
        <ele>383.4</ele>
        <time>2019-07-06T19:12:26Z</time>
      </trkpt>
      <trkpt lat="48.26939" lon="5.10077">
        <ele>382</ele>
        <time>2019-07-06T19:12:31Z</time>
      </trkpt>
      <trkpt lat="48.26941" lon="5.1008">
        <ele>383</ele>
        <time>2019-07-06T19:12:34Z</time>
      </trkpt>
      <trkpt lat="48.26947" lon="5.10085">
        <ele>383.4</ele>
        <time>2019-07-06T19:12:38Z</time>
      </trkpt>
      <trkpt lat="48.26953" lon="5.10093">
        <ele>383.6</ele>
        <time>2019-07-06T19:12:42Z</time>
      </trkpt>
      <trkpt lat="48.26959" lon="5.10102">
        <ele>382</ele>
        <time>2019-07-06T19:12:46Z</time>
      </trkpt>
      <trkpt lat="48.26968" lon="5.10112">
        <ele>382.4</ele>
        <time>2019-07-06T19:12:50Z</time>
      </trkpt>
      <trkpt lat="48.26976" lon="5.1012">
        <ele>383</ele>
        <time>2019-07-06T19:12:54Z</time>
      </trkpt>
      <trkpt lat="48.26982" lon="5.10126">
        <ele>383.8</ele>
        <time>2019-07-06T19:12:58Z</time>
      </trkpt>
      <trkpt lat="48.26982" lon="5.10126">
        <ele>383.8</ele>
        <time>2019-07-06T19:13:02Z</time>
      </trkpt>
      <trkpt lat="48.26992" lon="5.10134">
        <ele>384.4</ele>
        <time>2019-07-06T19:13:06Z</time>
      </trkpt>
      <trkpt lat="48.26998" lon="5.10138">
        <ele>385.2</ele>
        <time>2019-07-06T19:13:10Z</time>
      </trkpt>
      <trkpt lat="48.26998" lon="5.10138">
        <ele>385.2</ele>
        <time>2019-07-06T19:13:14Z</time>
      </trkpt>
      <trkpt lat="48.26998" lon="5.10138">
        <ele>385.2</ele>
        <time>2019-07-06T19:13:18Z</time>
      </trkpt>
      <trkpt lat="48.27003" lon="5.10143">
        <ele>386.8</ele>
        <time>2019-07-06T19:13:22Z</time>
      </trkpt>
      <trkpt lat="48.27006" lon="5.10144">
        <ele>386.4</ele>
        <time>2019-07-06T19:13:26Z</time>
      </trkpt>
      <trkpt lat="48.27011" lon="5.10148">
        <ele>386.4</ele>
        <time>2019-07-06T19:13:30Z</time>
      </trkpt>
      <trkpt lat="48.27018" lon="5.10156">
        <ele>386.4</ele>
        <time>2019-07-06T19:13:34Z</time>
      </trkpt>
      <trkpt lat="48.27025" lon="5.10159">
        <ele>388.2</ele>
        <time>2019-07-06T19:13:38Z</time>
      </trkpt>
      <trkpt lat="48.27032" lon="5.10166">
        <ele>387.6</ele>
        <time>2019-07-06T19:13:42Z</time>
      </trkpt>
      <trkpt lat="48.2704" lon="5.10172">
        <ele>387.6</ele>
        <time>2019-07-06T19:13:46Z</time>
      </trkpt>
      <trkpt lat="48.27048" lon="5.10183">
        <ele>387.4</ele>
        <time>2019-07-06T19:13:50Z</time>
      </trkpt>
      <trkpt lat="48.27056" lon="5.10193">
        <ele>387.4</ele>
        <time>2019-07-06T19:13:54Z</time>
      </trkpt>
      <trkpt lat="48.27066" lon="5.10202">
        <ele>387.4</ele>
        <time>2019-07-06T19:13:58Z</time>
      </trkpt>
      <trkpt lat="48.27076" lon="5.1021">
        <ele>387.8</ele>
        <time>2019-07-06T19:14:02Z</time>
      </trkpt>
      <trkpt lat="48.27085" lon="5.10214">
        <ele>387.4</ele>
        <time>2019-07-06T19:14:06Z</time>
      </trkpt>
      <trkpt lat="48.27092" lon="5.10215">
        <ele>388.6</ele>
        <time>2019-07-06T19:14:10Z</time>
      </trkpt>
      <trkpt lat="48.27092" lon="5.10215">
        <ele>388.6</ele>
        <time>2019-07-06T19:14:14Z</time>
      </trkpt>
      <trkpt lat="48.27092" lon="5.10215">
        <ele>388.6</ele>
        <time>2019-07-06T19:14:18Z</time>
      </trkpt>
      <trkpt lat="48.27092" lon="5.10215">
        <ele>388.6</ele>
        <time>2019-07-06T19:14:22Z</time>
      </trkpt>
      <trkpt lat="48.27092" lon="5.10215">
        <ele>388.6</ele>
        <time>2019-07-06T19:14:26Z</time>
      </trkpt>
      <trkpt lat="48.27094" lon="5.10213">
        <ele>389</ele>
        <time>2019-07-06T19:14:30Z</time>
      </trkpt>
      <trkpt lat="48.27094" lon="5.10207">
        <ele>390</ele>
        <time>2019-07-06T19:14:34Z</time>
      </trkpt>
      <trkpt lat="48.27094" lon="5.10197">
        <ele>390</ele>
        <time>2019-07-06T19:14:38Z</time>
      </trkpt>
      <trkpt lat="48.27095" lon="5.10189">
        <ele>390.6</ele>
        <time>2019-07-06T19:14:42Z</time>
      </trkpt>
      <trkpt lat="48.27099" lon="5.10181">
        <ele>391.2</ele>
        <time>2019-07-06T19:14:46Z</time>
      </trkpt>
      <trkpt lat="48.27102" lon="5.10172">
        <ele>392</ele>
        <time>2019-07-06T19:14:50Z</time>
      </trkpt>
      <trkpt lat="48.27108" lon="5.10165">
        <ele>391.4</ele>
        <time>2019-07-06T19:14:54Z</time>
      </trkpt>
      <trkpt lat="48.27118" lon="5.10163">
        <ele>392.2</ele>
        <time>2019-07-06T19:14:58Z</time>
      </trkpt>
      <trkpt lat="48.27126" lon="5.10169">
        <ele>392</ele>
        <time>2019-07-06T19:15:02Z</time>
      </trkpt>
      <trkpt lat="48.27134" lon="5.10179">
        <ele>392</ele>
        <time>2019-07-06T19:15:06Z</time>
      </trkpt>
      <trkpt lat="48.27143" lon="5.1019">
        <ele>391.8</ele>
        <time>2019-07-06T19:15:10Z</time>
      </trkpt>
      <trkpt lat="48.27153" lon="5.10201">
        <ele>391.8</ele>
        <time>2019-07-06T19:15:14Z</time>
      </trkpt>
      <trkpt lat="48.27162" lon="5.10213">
        <ele>392.4</ele>
        <time>2019-07-06T19:15:18Z</time>
      </trkpt>
      <trkpt lat="48.27172" lon="5.10225">
        <ele>391.8</ele>
        <time>2019-07-06T19:15:22Z</time>
      </trkpt>
      <trkpt lat="48.27182" lon="5.10238">
        <ele>391.8</ele>
        <time>2019-07-06T19:15:26Z</time>
      </trkpt>
      <trkpt lat="48.27192" lon="5.10251">
        <ele>391.8</ele>
        <time>2019-07-06T19:15:30Z</time>
      </trkpt>
      <trkpt lat="48.27202" lon="5.10266">
        <ele>391.2</ele>
        <time>2019-07-06T19:15:34Z</time>
      </trkpt>
      <trkpt lat="48.27207" lon="5.10289">
        <ele>390.6</ele>
        <time>2019-07-06T19:15:38Z</time>
      </trkpt>
      <trkpt lat="48.27209" lon="5.10316">
        <ele>389.2</ele>
        <time>2019-07-06T19:15:42Z</time>
      </trkpt>
      <trkpt lat="48.27214" lon="5.10346">
        <ele>387.4</ele>
        <time>2019-07-06T19:15:46Z</time>
      </trkpt>
      <trkpt lat="48.27219" lon="5.10361">
        <ele>387</ele>
        <time>2019-07-06T19:15:50Z</time>
      </trkpt>
      <trkpt lat="48.27226" lon="5.10364">
        <ele>387.4</ele>
        <time>2019-07-06T19:15:54Z</time>
      </trkpt>
      <trkpt lat="48.27233" lon="5.10369">
        <ele>386.4</ele>
        <time>2019-07-06T19:15:58Z</time>
      </trkpt>
      <trkpt lat="48.27236" lon="5.10377">
        <ele>385.8</ele>
        <time>2019-07-06T19:16:02Z</time>
      </trkpt>
      <trkpt lat="48.27245" lon="5.10383">
        <ele>384.8</ele>
        <time>2019-07-06T19:16:06Z</time>
      </trkpt>
      <trkpt lat="48.27254" lon="5.10385">
        <ele>383</ele>
        <time>2019-07-06T19:16:10Z</time>
      </trkpt>
      <trkpt lat="48.27259" lon="5.1039">
        <ele>384</ele>
        <time>2019-07-06T19:16:14Z</time>
      </trkpt>
      <trkpt lat="48.27268" lon="5.10401">
        <ele>384</ele>
        <time>2019-07-06T19:16:18Z</time>
      </trkpt>
      <trkpt lat="48.27276" lon="5.10419">
        <ele>383.6</ele>
        <time>2019-07-06T19:16:22Z</time>
      </trkpt>
      <trkpt lat="48.27283" lon="5.10431">
        <ele>383.2</ele>
        <time>2019-07-06T19:16:26Z</time>
      </trkpt>
      <trkpt lat="48.2729" lon="5.10438">
        <ele>383.8</ele>
        <time>2019-07-06T19:16:30Z</time>
      </trkpt>
      <trkpt lat="48.27302" lon="5.10433">
        <ele>384.8</ele>
        <time>2019-07-06T19:16:34Z</time>
      </trkpt>
      <trkpt lat="48.2731" lon="5.10441">
        <ele>385.4</ele>
        <time>2019-07-06T19:16:38Z</time>
      </trkpt>
      <trkpt lat="48.27321" lon="5.10442">
        <ele>385</ele>
        <time>2019-07-06T19:16:42Z</time>
      </trkpt>
      <trkpt lat="48.27334" lon="5.10441">
        <ele>386.6</ele>
        <time>2019-07-06T19:16:46Z</time>
      </trkpt>
      <trkpt lat="48.27343" lon="5.10443">
        <ele>386.6</ele>
        <time>2019-07-06T19:16:50Z</time>
      </trkpt>
      <trkpt lat="48.27356" lon="5.10444">
        <ele>385.8</ele>
        <time>2019-07-06T19:16:54Z</time>
      </trkpt>
      <trkpt lat="48.27365" lon="5.10447">
        <ele>385.8</ele>
        <time>2019-07-06T19:16:58Z</time>
      </trkpt>
      <trkpt lat="48.27374" lon="5.10453">
        <ele>384.8</ele>
        <time>2019-07-06T19:17:02Z</time>
      </trkpt>
      <trkpt lat="48.2738" lon="5.10464">
        <ele>383.6</ele>
        <time>2019-07-06T19:17:06Z</time>
      </trkpt>
      <trkpt lat="48.27383" lon="5.10471">
        <ele>385.8</ele>
        <time>2019-07-06T19:17:10Z</time>
      </trkpt>
      <trkpt lat="48.27389" lon="5.1048">
        <ele>385.2</ele>
        <time>2019-07-06T19:17:14Z</time>
      </trkpt>
      <trkpt lat="48.27387" lon="5.10486">
        <ele>384</ele>
        <time>2019-07-06T19:17:18Z</time>
      </trkpt>
      <trkpt lat="48.27383" lon="5.10481">
        <ele>384.6</ele>
        <time>2019-07-06T19:17:22Z</time>
      </trkpt>
      <trkpt lat="48.27381" lon="5.10472">
        <ele>385.6</ele>
        <time>2019-07-06T19:17:26Z</time>
      </trkpt>
      <trkpt lat="48.27371" lon="5.10471">
        <ele>384.4</ele>
        <time>2019-07-06T19:17:30Z</time>
      </trkpt>
      <trkpt lat="48.27361" lon="5.1047">
        <ele>385.2</ele>
        <time>2019-07-06T19:17:34Z</time>
      </trkpt>
      <trkpt lat="48.27353" lon="5.10472">
        <ele>385.2</ele>
        <time>2019-07-06T19:17:38Z</time>
      </trkpt>
      <trkpt lat="48.27345" lon="5.10477">
        <ele>384.2</ele>
        <time>2019-07-06T19:17:42Z</time>
      </trkpt>
      <trkpt lat="48.27342" lon="5.10488">
        <ele>382.8</ele>
        <time>2019-07-06T19:17:46Z</time>
      </trkpt>
      <trkpt lat="48.27339" lon="5.10501">
        <ele>382.6</ele>
        <time>2019-07-06T19:17:50Z</time>
      </trkpt>
      <trkpt lat="48.27335" lon="5.10515">
        <ele>382.2</ele>
        <time>2019-07-06T19:17:54Z</time>
      </trkpt>
      <trkpt lat="48.27333" lon="5.10534">
        <ele>380</ele>
        <time>2019-07-06T19:17:58Z</time>
      </trkpt>
      <trkpt lat="48.27329" lon="5.10559">
        <ele>379</ele>
        <time>2019-07-06T19:18:02Z</time>
      </trkpt>
      <trkpt lat="48.27326" lon="5.10581">
        <ele>379</ele>
        <time>2019-07-06T19:18:06Z</time>
      </trkpt>
      <trkpt lat="48.27329" lon="5.10602">
        <ele>378</ele>
        <time>2019-07-06T19:18:10Z</time>
      </trkpt>
      <trkpt lat="48.2733" lon="5.10626">
        <ele>377.6</ele>
        <time>2019-07-06T19:18:14Z</time>
      </trkpt>
      <trkpt lat="48.27342" lon="5.10632">
        <ele>377.6</ele>
        <time>2019-07-06T19:18:18Z</time>
      </trkpt>
      <trkpt lat="48.27351" lon="5.10641">
        <ele>378.2</ele>
        <time>2019-07-06T19:18:22Z</time>
      </trkpt>
      <trkpt lat="48.27363" lon="5.10647">
        <ele>378</ele>
        <time>2019-07-06T19:18:26Z</time>
      </trkpt>
      <trkpt lat="48.27375" lon="5.10652">
        <ele>378</ele>
        <time>2019-07-06T19:18:30Z</time>
      </trkpt>
      <trkpt lat="48.27387" lon="5.10659">
        <ele>378</ele>
        <time>2019-07-06T19:18:34Z</time>
      </trkpt>
      <trkpt lat="48.27398" lon="5.10666">
        <ele>377.2</ele>
        <time>2019-07-06T19:18:38Z</time>
      </trkpt>
      <trkpt lat="48.2741" lon="5.10677">
        <ele>374.8</ele>
        <time>2019-07-06T19:18:42Z</time>
      </trkpt>
      <trkpt lat="48.27425" lon="5.10689">
        <ele>374.8</ele>
        <time>2019-07-06T19:18:46Z</time>
      </trkpt>
      <trkpt lat="48.27434" lon="5.10704">
        <ele>372.2</ele>
        <time>2019-07-06T19:18:50Z</time>
      </trkpt>
      <trkpt lat="48.27451" lon="5.10719">
        <ele>372</ele>
        <time>2019-07-06T19:18:54Z</time>
      </trkpt>
      <trkpt lat="48.27472" lon="5.10715">
        <ele>371.8</ele>
        <time>2019-07-06T19:18:58Z</time>
      </trkpt>
      <trkpt lat="48.27476" lon="5.107">
        <ele>373</ele>
        <time>2019-07-06T19:19:02Z</time>
      </trkpt>
      <trkpt lat="48.27478" lon="5.10688">
        <ele>373.4</ele>
        <time>2019-07-06T19:19:06Z</time>
      </trkpt>
      <trkpt lat="48.27483" lon="5.10673">
        <ele>373.4</ele>
        <time>2019-07-06T19:19:10Z</time>
      </trkpt>
      <trkpt lat="48.2749" lon="5.10661">
        <ele>373.4</ele>
        <time>2019-07-06T19:19:14Z</time>
      </trkpt>
      <trkpt lat="48.27499" lon="5.10645">
        <ele>373.4</ele>
        <time>2019-07-06T19:19:18Z</time>
      </trkpt>
      <trkpt lat="48.27499" lon="5.10629">
        <ele>373.8</ele>
        <time>2019-07-06T19:19:22Z</time>
      </trkpt>
      <trkpt lat="48.27498" lon="5.10617">
        <ele>374</ele>
        <time>2019-07-06T19:19:26Z</time>
      </trkpt>
      <trkpt lat="48.27501" lon="5.10599">
        <ele>375</ele>
        <time>2019-07-06T19:19:30Z</time>
      </trkpt>
      <trkpt lat="48.27505" lon="5.10588">
        <ele>374.8</ele>
        <time>2019-07-06T19:19:34Z</time>
      </trkpt>
      <trkpt lat="48.27511" lon="5.10576">
        <ele>373.8</ele>
        <time>2019-07-06T19:19:38Z</time>
      </trkpt>
      <trkpt lat="48.27513" lon="5.10563">
        <ele>374.8</ele>
        <time>2019-07-06T19:19:42Z</time>
      </trkpt>
      <trkpt lat="48.27521" lon="5.10542">
        <ele>374.8</ele>
        <time>2019-07-06T19:19:46Z</time>
      </trkpt>
      <trkpt lat="48.27522" lon="5.10524">
        <ele>375.4</ele>
        <time>2019-07-06T19:19:50Z</time>
      </trkpt>
      <trkpt lat="48.27526" lon="5.1051">
        <ele>375</ele>
        <time>2019-07-06T19:19:54Z</time>
      </trkpt>
      <trkpt lat="48.27531" lon="5.10494">
        <ele>373.8</ele>
        <time>2019-07-06T19:19:58Z</time>
      </trkpt>
      <trkpt lat="48.2753" lon="5.10476">
        <ele>373.8</ele>
        <time>2019-07-06T19:20:02Z</time>
      </trkpt>
      <trkpt lat="48.27532" lon="5.10453">
        <ele>374.6</ele>
        <time>2019-07-06T19:20:06Z</time>
      </trkpt>
      <trkpt lat="48.27529" lon="5.10438">
        <ele>375.2</ele>
        <time>2019-07-06T19:20:10Z</time>
      </trkpt>
      <trkpt lat="48.27523" lon="5.10422">
        <ele>375.2</ele>
        <time>2019-07-06T19:20:14Z</time>
      </trkpt>
      <trkpt lat="48.2752" lon="5.10409">
        <ele>376</ele>
        <time>2019-07-06T19:20:18Z</time>
      </trkpt>
      <trkpt lat="48.27517" lon="5.10399">
        <ele>377.4</ele>
        <time>2019-07-06T19:20:22Z</time>
      </trkpt>
      <trkpt lat="48.27514" lon="5.10388">
        <ele>377.8</ele>
        <time>2019-07-06T19:20:26Z</time>
      </trkpt>
      <trkpt lat="48.27513" lon="5.10377">
        <ele>377.6</ele>
        <time>2019-07-06T19:20:30Z</time>
      </trkpt>
      <trkpt lat="48.27511" lon="5.10363">
        <ele>377</ele>
        <time>2019-07-06T19:20:34Z</time>
      </trkpt>
      <trkpt lat="48.27509" lon="5.10351">
        <ele>377.8</ele>
        <time>2019-07-06T19:20:38Z</time>
      </trkpt>
      <trkpt lat="48.27506" lon="5.1034">
        <ele>378.2</ele>
        <time>2019-07-06T19:20:42Z</time>
      </trkpt>
      <trkpt lat="48.27504" lon="5.10325">
        <ele>378.2</ele>
        <time>2019-07-06T19:20:46Z</time>
      </trkpt>
      <trkpt lat="48.275" lon="5.10309">
        <ele>378.2</ele>
        <time>2019-07-06T19:20:50Z</time>
      </trkpt>
      <trkpt lat="48.27497" lon="5.10295">
        <ele>379</ele>
        <time>2019-07-06T19:20:54Z</time>
      </trkpt>
      <trkpt lat="48.27493" lon="5.10278">
        <ele>378.4</ele>
        <time>2019-07-06T19:20:58Z</time>
      </trkpt>
      <trkpt lat="48.2749" lon="5.10263">
        <ele>379</ele>
        <time>2019-07-06T19:21:02Z</time>
      </trkpt>
      <trkpt lat="48.27489" lon="5.1025">
        <ele>379</ele>
        <time>2019-07-06T19:21:06Z</time>
      </trkpt>
      <trkpt lat="48.27486" lon="5.10234">
        <ele>380</ele>
        <time>2019-07-06T19:21:10Z</time>
      </trkpt>
      <trkpt lat="48.27485" lon="5.10216">
        <ele>378.2</ele>
        <time>2019-07-06T19:21:14Z</time>
      </trkpt>
      <trkpt lat="48.2748" lon="5.10196">
        <ele>378.8</ele>
        <time>2019-07-06T19:21:18Z</time>
      </trkpt>
      <trkpt lat="48.27477" lon="5.10177">
        <ele>378</ele>
        <time>2019-07-06T19:21:22Z</time>
      </trkpt>
      <trkpt lat="48.27474" lon="5.10157">
        <ele>379</ele>
        <time>2019-07-06T19:21:26Z</time>
      </trkpt>
      <trkpt lat="48.27469" lon="5.1013">
        <ele>378.2</ele>
        <time>2019-07-06T19:21:30Z</time>
      </trkpt>
      <trkpt lat="48.27461" lon="5.1011">
        <ele>378.2</ele>
        <time>2019-07-06T19:21:34Z</time>
      </trkpt>
      <trkpt lat="48.27454" lon="5.10094">
        <ele>379.2</ele>
        <time>2019-07-06T19:21:38Z</time>
      </trkpt>
      <trkpt lat="48.2745" lon="5.1008">
        <ele>379.2</ele>
        <time>2019-07-06T19:21:42Z</time>
      </trkpt>
      <trkpt lat="48.27441" lon="5.1006">
        <ele>379.8</ele>
        <time>2019-07-06T19:21:46Z</time>
      </trkpt>
      <trkpt lat="48.27436" lon="5.10046">
        <ele>381</ele>
        <time>2019-07-06T19:21:50Z</time>
      </trkpt>
      <trkpt lat="48.27431" lon="5.10033">
        <ele>381</ele>
        <time>2019-07-06T19:21:54Z</time>
      </trkpt>
      <trkpt lat="48.27429" lon="5.1002">
        <ele>381.2</ele>
        <time>2019-07-06T19:21:58Z</time>
      </trkpt>
      <trkpt lat="48.27422" lon="5.10008">
        <ele>381.2</ele>
        <time>2019-07-06T19:22:02Z</time>
      </trkpt>
      <trkpt lat="48.27417" lon="5.09998">
        <ele>382.2</ele>
        <time>2019-07-06T19:22:06Z</time>
      </trkpt>
      <trkpt lat="48.2741" lon="5.09989">
        <ele>382.2</ele>
        <time>2019-07-06T19:22:10Z</time>
      </trkpt>
      <trkpt lat="48.27406" lon="5.09978">
        <ele>383</ele>
        <time>2019-07-06T19:22:14Z</time>
      </trkpt>
      <trkpt lat="48.274" lon="5.09966">
        <ele>383</ele>
        <time>2019-07-06T19:22:18Z</time>
      </trkpt>
      <trkpt lat="48.27394" lon="5.0996">
        <ele>383.8</ele>
        <time>2019-07-06T19:22:22Z</time>
      </trkpt>
      <trkpt lat="48.27389" lon="5.09954">
        <ele>385.2</ele>
        <time>2019-07-06T19:22:26Z</time>
      </trkpt>
      <trkpt lat="48.27382" lon="5.09947">
        <ele>385.2</ele>
        <time>2019-07-06T19:22:30Z</time>
      </trkpt>
      <trkpt lat="48.27376" lon="5.09939">
        <ele>385.4</ele>
        <time>2019-07-06T19:22:34Z</time>
      </trkpt>
      <trkpt lat="48.27368" lon="5.0993">
        <ele>385.4</ele>
        <time>2019-07-06T19:22:38Z</time>
      </trkpt>
      <trkpt lat="48.27361" lon="5.09922">
        <ele>386.4</ele>
        <time>2019-07-06T19:22:42Z</time>
      </trkpt>
      <trkpt lat="48.27354" lon="5.09913">
        <ele>386.6</ele>
        <time>2019-07-06T19:22:46Z</time>
      </trkpt>
      <trkpt lat="48.27349" lon="5.09906">
        <ele>387.6</ele>
        <time>2019-07-06T19:22:50Z</time>
      </trkpt>
      <trkpt lat="48.27346" lon="5.09895">
        <ele>387</ele>
        <time>2019-07-06T19:22:54Z</time>
      </trkpt>
      <trkpt lat="48.27344" lon="5.09885">
        <ele>386.4</ele>
        <time>2019-07-06T19:22:58Z</time>
      </trkpt>
      <trkpt lat="48.27339" lon="5.09873">
        <ele>386.4</ele>
        <time>2019-07-06T19:23:02Z</time>
      </trkpt>
      <trkpt lat="48.27333" lon="5.09865">
        <ele>387.2</ele>
        <time>2019-07-06T19:23:06Z</time>
      </trkpt>
      <trkpt lat="48.27328" lon="5.09857">
        <ele>387.8</ele>
        <time>2019-07-06T19:23:10Z</time>
      </trkpt>
      <trkpt lat="48.27326" lon="5.0984">
        <ele>387.2</ele>
        <time>2019-07-06T19:23:14Z</time>
      </trkpt>
      <trkpt lat="48.27321" lon="5.09825">
        <ele>387.2</ele>
        <time>2019-07-06T19:23:18Z</time>
      </trkpt>
      <trkpt lat="48.27315" lon="5.09813">
        <ele>387.2</ele>
        <time>2019-07-06T19:23:22Z</time>
      </trkpt>
      <trkpt lat="48.2731" lon="5.09801">
        <ele>387.2</ele>
        <time>2019-07-06T19:23:26Z</time>
      </trkpt>
      <trkpt lat="48.27306" lon="5.09787">
        <ele>387.2</ele>
        <time>2019-07-06T19:23:30Z</time>
      </trkpt>
      <trkpt lat="48.27298" lon="5.09773">
        <ele>388.2</ele>
        <time>2019-07-06T19:23:34Z</time>
      </trkpt>
      <trkpt lat="48.27296" lon="5.09762">
        <ele>388.2</ele>
        <time>2019-07-06T19:23:38Z</time>
      </trkpt>
      <trkpt lat="48.27292" lon="5.09748">
        <ele>388.6</ele>
        <time>2019-07-06T19:23:42Z</time>
      </trkpt>
      <trkpt lat="48.27287" lon="5.09737">
        <ele>388.6</ele>
        <time>2019-07-06T19:23:46Z</time>
      </trkpt>
      <trkpt lat="48.27285" lon="5.09724">
        <ele>388.6</ele>
        <time>2019-07-06T19:23:50Z</time>
      </trkpt>
      <trkpt lat="48.27281" lon="5.09709">
        <ele>388.6</ele>
        <time>2019-07-06T19:23:54Z</time>
      </trkpt>
      <trkpt lat="48.27281" lon="5.09694">
        <ele>388.6</ele>
        <time>2019-07-06T19:23:58Z</time>
      </trkpt>
      <trkpt lat="48.27274" lon="5.09675">
        <ele>388.6</ele>
        <time>2019-07-06T19:24:02Z</time>
      </trkpt>
      <trkpt lat="48.27269" lon="5.09658">
        <ele>388.6</ele>
        <time>2019-07-06T19:24:06Z</time>
      </trkpt>
      <trkpt lat="48.27266" lon="5.09636">
        <ele>389</ele>
        <time>2019-07-06T19:24:10Z</time>
      </trkpt>
      <trkpt lat="48.27262" lon="5.09618">
        <ele>388.4</ele>
        <time>2019-07-06T19:24:14Z</time>
      </trkpt>
      <trkpt lat="48.27253" lon="5.09611">
        <ele>389</ele>
        <time>2019-07-06T19:24:18Z</time>
      </trkpt>
      <trkpt lat="48.27246" lon="5.09598">
        <ele>389.6</ele>
        <time>2019-07-06T19:24:22Z</time>
      </trkpt>
      <trkpt lat="48.27241" lon="5.09584">
        <ele>389.8</ele>
        <time>2019-07-06T19:24:26Z</time>
      </trkpt>
      <trkpt lat="48.27239" lon="5.09569">
        <ele>389.8</ele>
        <time>2019-07-06T19:24:30Z</time>
      </trkpt>
      <trkpt lat="48.27236" lon="5.09554">
        <ele>389.8</ele>
        <time>2019-07-06T19:24:34Z</time>
      </trkpt>
      <trkpt lat="48.27231" lon="5.09541">
        <ele>390.6</ele>
        <time>2019-07-06T19:24:38Z</time>
      </trkpt>
      <trkpt lat="48.27227" lon="5.09527">
        <ele>390</ele>
        <time>2019-07-06T19:24:42Z</time>
      </trkpt>
      <trkpt lat="48.27234" lon="5.09508">
        <ele>389.6</ele>
        <time>2019-07-06T19:24:46Z</time>
      </trkpt>
      <trkpt lat="48.27242" lon="5.09477">
        <ele>385.6</ele>
        <time>2019-07-06T19:24:50Z</time>
      </trkpt>
      <trkpt lat="48.27246" lon="5.09444">
        <ele>382.2</ele>
        <time>2019-07-06T19:24:54Z</time>
      </trkpt>
      <trkpt lat="48.27251" lon="5.09428">
        <ele>382</ele>
        <time>2019-07-06T19:24:58Z</time>
      </trkpt>
      <trkpt lat="48.27256" lon="5.09419">
        <ele>380.8</ele>
        <time>2019-07-06T19:25:02Z</time>
      </trkpt>
      <trkpt lat="48.27269" lon="5.09416">
        <ele>381.8</ele>
        <time>2019-07-06T19:25:06Z</time>
      </trkpt>
      <trkpt lat="48.27276" lon="5.09425">
        <ele>383.6</ele>
        <time>2019-07-06T19:25:10Z</time>
      </trkpt>
      <trkpt lat="48.27281" lon="5.09433">
        <ele>384.6</ele>
        <time>2019-07-06T19:25:14Z</time>
      </trkpt>
      <trkpt lat="48.27286" lon="5.0944">
        <ele>385.2</ele>
        <time>2019-07-06T19:25:18Z</time>
      </trkpt>
      <trkpt lat="48.2729" lon="5.09446">
        <ele>385.8</ele>
        <time>2019-07-06T19:25:22Z</time>
      </trkpt>
      <trkpt lat="48.27296" lon="5.09454">
        <ele>386.8</ele>
        <time>2019-07-06T19:25:26Z</time>
      </trkpt>
      <trkpt lat="48.273" lon="5.09459">
        <ele>387.4</ele>
        <time>2019-07-06T19:25:30Z</time>
      </trkpt>
      <trkpt lat="48.27305" lon="5.09466">
        <ele>387.8</ele>
        <time>2019-07-06T19:25:34Z</time>
      </trkpt>
      <trkpt lat="48.27308" lon="5.09472">
        <ele>388.8</ele>
        <time>2019-07-06T19:25:38Z</time>
      </trkpt>
      <trkpt lat="48.27314" lon="5.09479">
        <ele>389</ele>
        <time>2019-07-06T19:25:42Z</time>
      </trkpt>
      <trkpt lat="48.27319" lon="5.09487">
        <ele>389.4</ele>
        <time>2019-07-06T19:25:46Z</time>
      </trkpt>
      <trkpt lat="48.27324" lon="5.09498">
        <ele>388.6</ele>
        <time>2019-07-06T19:25:50Z</time>
      </trkpt>
      <trkpt lat="48.2733" lon="5.09513">
        <ele>388.2</ele>
        <time>2019-07-06T19:25:54Z</time>
      </trkpt>
      <trkpt lat="48.27336" lon="5.09528">
        <ele>387.6</ele>
        <time>2019-07-06T19:25:58Z</time>
      </trkpt>
      <trkpt lat="48.27344" lon="5.09545">
        <ele>387</ele>
        <time>2019-07-06T19:26:02Z</time>
      </trkpt>
      <trkpt lat="48.27349" lon="5.09564">
        <ele>386.6</ele>
        <time>2019-07-06T19:26:06Z</time>
      </trkpt>
      <trkpt lat="48.27355" lon="5.0958">
        <ele>386.8</ele>
        <time>2019-07-06T19:26:10Z</time>
      </trkpt>
      <trkpt lat="48.27361" lon="5.09595">
        <ele>387</ele>
        <time>2019-07-06T19:26:14Z</time>
      </trkpt>
      <trkpt lat="48.27365" lon="5.09607">
        <ele>386.2</ele>
        <time>2019-07-06T19:26:18Z</time>
      </trkpt>
      <trkpt lat="48.27366" lon="5.09623">
        <ele>383.6</ele>
        <time>2019-07-06T19:26:22Z</time>
      </trkpt>
      <trkpt lat="48.27366" lon="5.09642">
        <ele>383.4</ele>
        <time>2019-07-06T19:26:26Z</time>
      </trkpt>
      <trkpt lat="48.27374" lon="5.09659">
        <ele>382.8</ele>
        <time>2019-07-06T19:26:30Z</time>
      </trkpt>
      <trkpt lat="48.27379" lon="5.09674">
        <ele>381.6</ele>
        <time>2019-07-06T19:26:34Z</time>
      </trkpt>
      <trkpt lat="48.27389" lon="5.09689">
        <ele>382.2</ele>
        <time>2019-07-06T19:26:38Z</time>
      </trkpt>
      <trkpt lat="48.27396" lon="5.09701">
        <ele>383.4</ele>
        <time>2019-07-06T19:26:42Z</time>
      </trkpt>
      <trkpt lat="48.27401" lon="5.09717">
        <ele>380.2</ele>
        <time>2019-07-06T19:26:46Z</time>
      </trkpt>
      <trkpt lat="48.27408" lon="5.0973">
        <ele>379</ele>
        <time>2019-07-06T19:26:50Z</time>
      </trkpt>
      <trkpt lat="48.27416" lon="5.09746">
        <ele>379</ele>
        <time>2019-07-06T19:26:54Z</time>
      </trkpt>
      <trkpt lat="48.27424" lon="5.09756">
        <ele>379.4</ele>
        <time>2019-07-06T19:26:58Z</time>
      </trkpt>
      <trkpt lat="48.2743" lon="5.09764">
        <ele>381</ele>
        <time>2019-07-06T19:27:02Z</time>
      </trkpt>
      <trkpt lat="48.27435" lon="5.0977">
        <ele>379.6</ele>
        <time>2019-07-06T19:27:06Z</time>
      </trkpt>
      <trkpt lat="48.27442" lon="5.09779">
        <ele>380.6</ele>
        <time>2019-07-06T19:27:10Z</time>
      </trkpt>
      <trkpt lat="48.27448" lon="5.09789">
        <ele>379.2</ele>
        <time>2019-07-06T19:27:14Z</time>
      </trkpt>
      <trkpt lat="48.27454" lon="5.09798">
        <ele>379.2</ele>
        <time>2019-07-06T19:27:18Z</time>
      </trkpt>
      <trkpt lat="48.27461" lon="5.09809">
        <ele>378.4</ele>
        <time>2019-07-06T19:27:22Z</time>
      </trkpt>
      <trkpt lat="48.27467" lon="5.09819">
        <ele>377.2</ele>
        <time>2019-07-06T19:27:26Z</time>
      </trkpt>
      <trkpt lat="48.27474" lon="5.09831">
        <ele>375.2</ele>
        <time>2019-07-06T19:27:30Z</time>
      </trkpt>
      <trkpt lat="48.27482" lon="5.09847">
        <ele>374.2</ele>
        <time>2019-07-06T19:27:34Z</time>
      </trkpt>
      <trkpt lat="48.27492" lon="5.09858">
        <ele>374</ele>
        <time>2019-07-06T19:27:38Z</time>
      </trkpt>
      <trkpt lat="48.275" lon="5.09865">
        <ele>375.4</ele>
        <time>2019-07-06T19:27:42Z</time>
      </trkpt>
      <trkpt lat="48.27509" lon="5.09874">
        <ele>376.4</ele>
        <time>2019-07-06T19:27:46Z</time>
      </trkpt>
      <trkpt lat="48.27516" lon="5.09883">
        <ele>377</ele>
        <time>2019-07-06T19:27:50Z</time>
      </trkpt>
      <trkpt lat="48.27523" lon="5.09894">
        <ele>376</ele>
        <time>2019-07-06T19:27:54Z</time>
      </trkpt>
      <trkpt lat="48.27528" lon="5.09902">
        <ele>376.8</ele>
        <time>2019-07-06T19:27:58Z</time>
      </trkpt>
      <trkpt lat="48.27534" lon="5.09911">
        <ele>376.8</ele>
        <time>2019-07-06T19:28:02Z</time>
      </trkpt>
      <trkpt lat="48.27543" lon="5.09922">
        <ele>376.8</ele>
        <time>2019-07-06T19:28:06Z</time>
      </trkpt>
      <trkpt lat="48.27551" lon="5.09933">
        <ele>377</ele>
        <time>2019-07-06T19:28:10Z</time>
      </trkpt>
      <trkpt lat="48.27556" lon="5.09944">
        <ele>375.8</ele>
        <time>2019-07-06T19:28:14Z</time>
      </trkpt>
      <trkpt lat="48.27565" lon="5.09959">
        <ele>377.2</ele>
        <time>2019-07-06T19:28:18Z</time>
      </trkpt>
      <trkpt lat="48.27572" lon="5.09969">
        <ele>377.6</ele>
        <time>2019-07-06T19:28:22Z</time>
      </trkpt>
      <trkpt lat="48.27581" lon="5.09979">
        <ele>376.2</ele>
        <time>2019-07-06T19:28:26Z</time>
      </trkpt>
      <trkpt lat="48.27591" lon="5.09992">
        <ele>376</ele>
        <time>2019-07-06T19:28:30Z</time>
      </trkpt>
      <trkpt lat="48.27598" lon="5.10005">
        <ele>376</ele>
        <time>2019-07-06T19:28:34Z</time>
      </trkpt>
      <trkpt lat="48.27603" lon="5.1002">
        <ele>375.2</ele>
        <time>2019-07-06T19:28:38Z</time>
      </trkpt>
      <trkpt lat="48.27606" lon="5.10035">
        <ele>374.2</ele>
        <time>2019-07-06T19:28:42Z</time>
      </trkpt>
      <trkpt lat="48.27613" lon="5.10046">
        <ele>374.6</ele>
        <time>2019-07-06T19:28:46Z</time>
      </trkpt>
      <trkpt lat="48.27618" lon="5.10063">
        <ele>372.4</ele>
        <time>2019-07-06T19:28:50Z</time>
      </trkpt>
      <trkpt lat="48.27622" lon="5.10081">
        <ele>370.8</ele>
        <time>2019-07-06T19:28:54Z</time>
      </trkpt>
      <trkpt lat="48.27633" lon="5.10101">
        <ele>371.8</ele>
        <time>2019-07-06T19:28:58Z</time>
      </trkpt>
      <trkpt lat="48.27641" lon="5.10122">
        <ele>371.2</ele>
        <time>2019-07-06T19:29:02Z</time>
      </trkpt>
      <trkpt lat="48.27647" lon="5.10137">
        <ele>373.6</ele>
        <time>2019-07-06T19:29:06Z</time>
      </trkpt>
      <trkpt lat="48.27649" lon="5.1015">
        <ele>375.6</ele>
        <time>2019-07-06T19:29:10Z</time>
      </trkpt>
      <trkpt lat="48.27656" lon="5.10154">
        <ele>376.8</ele>
        <time>2019-07-06T19:29:14Z</time>
      </trkpt>
      <trkpt lat="48.27663" lon="5.10152">
        <ele>376.8</ele>
        <time>2019-07-06T19:29:18Z</time>
      </trkpt>
      <trkpt lat="48.2767" lon="5.10148">
        <ele>376.8</ele>
        <time>2019-07-06T19:29:22Z</time>
      </trkpt>
      <trkpt lat="48.27675" lon="5.10136">
        <ele>376.2</ele>
        <time>2019-07-06T19:29:26Z</time>
      </trkpt>
      <trkpt lat="48.27674" lon="5.10126">
        <ele>376.4</ele>
        <time>2019-07-06T19:29:30Z</time>
      </trkpt>
    </trkseg>
  </trk>
</gpx>